[[{"header":{"parameterUnit":"m.s-1","parameterCategory":1,"la1":31.0,"la2":29.5877,"lo1":-88.7671,"lo2":-86.6584,"dy":0.0162,"dx":0.0185,"nx":115,"ny":88,"refTime":"2023-03-02T18:00:00:Z","depth":0,"parameterNumber":2,"parameterNumberName":"U-component_of_WINDS"},"data":[0.0,0.0,0.0,0.0,0.0,0.0,0.0,0.0,0.0,0.0,0.0,0.0,0.0,0.0,0.0,0.0,0.0,0.0,0.0,0.0,0.0,0.0,0.0,0.0,0.0,0.0,0.0,0.0,0.0,0.0,0.0,0.0,0.0,0.0,0.0,0.0,0.0,0.0,0.0,0.0,0.0,-4.5203,-4.5203,-4.5181,-4.5486,-4.5597,-4.5456,0.0,0.0,0.0,0.0,0.0,0.0,0.0,0.0,0.0,0.0,0.0,0.0,0.0,0.0,0.0,0.0,0.0,0.0,0.0,0.0,0.0,0.0,0.0,0.0,0.0,0.0,0.0,0.0,0.0,0.0,0.0,0.0,0.0,0.0,0.0,0.0,0.0,0.0,0.0,0.0,0.0,0.0,0.0,0.0,0.0,0.0,0.0,0.0,0.0,0.0,0.0,0.0,0.0,0.0,0.0,0.0,0.0,0.0,0.0,0.0,0.0,0.0,0.0,0.0,0.0,0.0,0.0,0.0,0.0,0.0,0.0,0.0,0.0,0.0,0.0,0.0,0.0,0.0,0.0,0.0,0.0,0.0,0.0,0.0,0.0,0.0,0.0,0.0,0.0,0.0,0.0,0.0,0.0,0.0,0.0,0.0,0.0,0.0,0.0,0.0,0.0,0.0,0.0,0.0,0.0,0.0,0.0,0.0,0.0,0.0,-4.5484,-4.5489,-4.6205,-4.6557,-4.6459,0.0,0.0,0.0,0.0,0.0,0.0,0.0,0.0,0.0,0.0,0.0,0.0,0.0,0.0,0.0,0.0,0.0,0.0,0.0,0.0,0.0,0.0,0.0,0.0,0.0,0.0,0.0,0.0,0.0,0.0,0.0,0.0,0.0,0.0,0.0,0.0,0.0,0.0,0.0,0.0,0.0,0.0,0.0,0.0,0.0,0.0,0.0,0.0,0.0,0.0,0.0,0.0,0.0,0.0,0.0,0.0,0.0,0.0,0.0,0.0,0.0,0.0,0.0,0.0,0.0,0.0,0.0,0.0,0.0,0.0,0.0,0.0,0.0,0.0,0.0,0.0,0.0,0.0,0.0,0.0,0.0,0.0,0.0,0.0,0.0,0.0,0.0,0.0,0.0,0.0,0.0,0.0,0.0,0.0,0.0,0.0,0.0,0.0,0.0,0.0,0.0,0.0,0.0,0.0,0.0,0.0,0.0,0.0,0.0,0.0,-4.6377,-4.6415,-4.715,-4.7505,-4.7376,0.0,0.0,0.0,0.0,0.0,0.0,0.0,0.0,0.0,0.0,0.0,0.0,0.0,0.0,0.0,0.0,0.0,0.0,0.0,0.0,0.0,0.0,0.0,0.0,0.0,0.0,0.0,0.0,0.0,0.0,0.0,0.0,0.0,0.0,0.0,0.0,0.0,0.0,0.0,0.0,0.0,0.0,0.0,0.0,0.0,0.0,0.0,0.0,0.0,0.0,0.0,0.0,0.0,0.0,0.0,0.0,0.0,0.0,0.0,0.0,0.0,0.0,0.0,0.0,0.0,0.0,0.0,0.0,0.0,0.0,0.0,0.0,0.0,0.0,0.0,0.0,0.0,0.0,0.0,0.0,0.0,0.0,0.0,0.0,0.0,0.0,0.0,0.0,0.0,0.0,0.0,0.0,0.0,0.0,0.0,0.0,0.0,0.0,0.0,0.0,0.0,0.0,0.0,0.0,0.0,0.0,0.0,0.0,0.0,0.0,-4.6772,-4.6772,-4.7873,-4.8411,-4.8289,-4.8479,0.0,0.0,0.0,0.0,0.0,0.0,0.0,0.0,0.0,0.0,0.0,0.0,0.0,0.0,0.0,0.0,0.0,0.0,0.0,0.0,0.0,0.0,0.0,0.0,0.0,0.0,0.0,0.0,0.0,0.0,0.0,0.0,0.0,0.0,0.0,0.0,0.0,0.0,0.0,0.0,0.0,0.0,0.0,0.0,0.0,0.0,0.0,0.0,0.0,0.0,0.0,0.0,0.0,0.0,0.0,0.0,0.0,0.0,0.0,0.0,0.0,0.0,0.0,0.0,0.0,0.0,0.0,0.0,0.0,0.0,0.0,0.0,0.0,0.0,0.0,0.0,0.0,0.0,0.0,0.0,0.0,0.0,0.0,0.0,0.0,0.0,0.0,0.0,0.0,0.0,0.0,0.0,0.0,0.0,0.0,0.0,0.0,0.0,0.0,0.0,0.0,0.0,0.0,0.0,0.0,0.0,0.0,0.0,0.0,-4.7101,-4.7278,-4.8634,-4.9318,-4.9197,-4.9695,0.0,0.0,0.0,0.0,0.0,0.0,0.0,0.0,0.0,0.0,0.0,0.0,0.0,0.0,0.0,0.0,0.0,0.0,0.0,0.0,0.0,0.0,0.0,0.0,0.0,0.0,0.0,0.0,0.0,0.0,0.0,0.0,0.0,0.0,0.0,0.0,0.0,0.0,0.0,0.0,0.0,0.0,0.0,0.0,0.0,0.0,0.0,0.0,0.0,0.0,0.0,0.0,0.0,0.0,0.0,0.0,0.0,0.0,0.0,0.0,0.0,0.0,0.0,0.0,0.0,0.0,0.0,0.0,0.0,0.0,0.0,0.0,0.0,0.0,0.0,0.0,0.0,0.0,0.0,0.0,0.0,0.0,0.0,0.0,0.0,0.0,0.0,0.0,0.0,0.0,0.0,0.0,0.0,0.0,0.0,0.0,0.0,0.0,0.0,0.0,0.0,0.0,0.0,0.0,0.0,0.0,0.0,0.0,0.0,-4.8328,-4.8969,-4.9875,-5.0256,-5.0172,-5.0118,0.0,0.0,0.0,0.0,0.0,0.0,0.0,0.0,0.0,0.0,0.0,0.0,0.0,0.0,0.0,0.0,0.0,0.0,0.0,0.0,0.0,0.0,0.0,0.0,0.0,0.0,0.0,0.0,0.0,0.0,0.0,0.0,0.0,0.0,0.0,0.0,0.0,0.0,0.0,0.0,0.0,0.0,0.0,0.0,0.0,0.0,0.0,0.0,0.0,0.0,0.0,0.0,0.0,0.0,0.0,0.0,0.0,0.0,0.0,0.0,0.0,0.0,0.0,0.0,0.0,0.0,0.0,0.0,0.0,0.0,0.0,0.0,0.0,0.0,0.0,0.0,0.0,0.0,0.0,0.0,0.0,0.0,0.0,0.0,0.0,0.0,0.0,0.0,0.0,0.0,0.0,0.0,0.0,0.0,0.0,0.0,0.0,0.0,0.0,0.0,0.0,0.0,0.0,0.0,0.0,0.0,0.0,0.0,0.0,-4.8767,-4.9564,-5.0249,-5.0576,-5.0489,-5.0278,0.0,0.0,0.0,0.0,0.0,0.0,0.0,0.0,0.0,0.0,0.0,0.0,0.0,0.0,0.0,0.0,0.0,0.0,0.0,0.0,0.0,0.0,0.0,0.0,0.0,0.0,0.0,0.0,0.0,0.0,0.0,0.0,0.0,0.0,0.0,0.0,0.0,0.0,0.0,0.0,0.0,0.0,0.0,0.0,0.0,0.0,0.0,0.0,0.0,0.0,0.0,0.0,0.0,0.0,0.0,0.0,0.0,0.0,0.0,0.0,0.0,0.0,0.0,0.0,0.0,0.0,0.0,0.0,0.0,0.0,0.0,0.0,0.0,0.0,0.0,0.0,0.0,0.0,0.0,0.0,0.0,0.0,0.0,0.0,0.0,0.0,0.0,0.0,0.0,0.0,0.0,0.0,0.0,0.0,0.0,0.0,0.0,0.0,0.0,0.0,0.0,0.0,0.0,0.0,0.0,0.0,0.0,0.0,-4.8248,-4.9045,-4.9873,-5.0408,-5.0635,-5.0603,-5.0348,0.0,0.0,0.0,0.0,0.0,0.0,0.0,0.0,0.0,0.0,0.0,0.0,0.0,0.0,0.0,0.0,0.0,0.0,0.0,0.0,0.0,0.0,0.0,0.0,0.0,0.0,0.0,0.0,0.0,0.0,0.0,0.0,0.0,0.0,0.0,0.0,0.0,0.0,0.0,0.0,0.0,0.0,0.0,0.0,0.0,0.0,0.0,0.0,0.0,0.0,0.0,0.0,0.0,0.0,0.0,0.0,0.0,0.0,0.0,0.0,0.0,0.0,0.0,0.0,0.0,0.0,0.0,0.0,0.0,0.0,0.0,0.0,0.0,0.0,0.0,0.0,0.0,0.0,0.0,0.0,0.0,0.0,0.0,0.0,0.0,0.0,0.0,0.0,0.0,0.0,0.0,0.0,0.0,0.0,0.0,0.0,0.0,0.0,0.0,0.0,0.0,0.0,0.0,0.0,0.0,0.0,0.0,-4.8302,-4.9168,-4.9947,-5.0693,-5.0811,-5.0776,-5.0603,-5.0393,0.0,0.0,0.0,0.0,0.0,0.0,0.0,0.0,0.0,0.0,0.0,0.0,0.0,0.0,0.0,0.0,0.0,0.0,0.0,0.0,0.0,0.0,0.0,0.0,0.0,0.0,0.0,0.0,0.0,0.0,0.0,0.0,0.0,0.0,0.0,0.0,0.0,0.0,0.0,0.0,0.0,0.0,0.0,0.0,0.0,0.0,0.0,0.0,0.0,0.0,0.0,0.0,0.0,0.0,0.0,0.0,0.0,0.0,0.0,0.0,0.0,0.0,0.0,0.0,0.0,0.0,0.0,0.0,0.0,0.0,0.0,0.0,0.0,0.0,0.0,0.0,0.0,0.0,0.0,0.0,0.0,0.0,0.0,0.0,0.0,0.0,0.0,0.0,0.0,0.0,0.0,0.0,0.0,0.0,0.0,0.0,0.0,0.0,0.0,0.0,0.0,0.0,0.0,0.0,0.0,0.0,-4.7691,-4.858,-4.9411,-5.0222,-5.0983,-5.0937,-5.0803,-5.0596,-4.9813,0.0,0.0,0.0,0.0,0.0,0.0,0.0,0.0,0.0,0.0,0.0,0.0,0.0,0.0,0.0,0.0,0.0,0.0,0.0,0.0,0.0,0.0,0.0,0.0,0.0,0.0,0.0,0.0,0.0,0.0,0.0,0.0,0.0,0.0,0.0,0.0,0.0,0.0,0.0,0.0,0.0,0.0,0.0,0.0,0.0,0.0,0.0,0.0,0.0,0.0,0.0,0.0,0.0,0.0,0.0,0.0,0.0,0.0,0.0,0.0,0.0,0.0,0.0,0.0,0.0,0.0,0.0,0.0,0.0,0.0,0.0,0.0,0.0,0.0,0.0,0.0,0.0,0.0,0.0,0.0,0.0,0.0,0.0,0.0,0.0,0.0,0.0,0.0,0.0,0.0,0.0,0.0,0.0,0.0,0.0,0.0,0.0,0.0,0.0,0.0,0.0,0.0,0.0,0.0,0.0,0.0,-4.7971,-4.8711,-4.9687,-5.0484,-5.1043,-5.0963,-5.0784,-5.0498,0.0,0.0,0.0,0.0,0.0,0.0,0.0,0.0,0.0,0.0,0.0,0.0,0.0,0.0,0.0,0.0,0.0,0.0,0.0,0.0,0.0,0.0,0.0,0.0,0.0,0.0,0.0,0.0,0.0,0.0,0.0,0.0,0.0,0.0,0.0,0.0,0.0,0.0,0.0,0.0,0.0,0.0,0.0,0.0,0.0,0.0,0.0,0.0,0.0,0.0,0.0,0.0,0.0,0.0,0.0,0.0,0.0,0.0,0.0,0.0,0.0,0.0,0.0,0.0,0.0,0.0,0.0,0.0,0.0,0.0,0.0,0.0,0.0,0.0,0.0,0.0,0.0,0.0,0.0,0.0,0.0,0.0,0.0,0.0,0.0,0.0,0.0,0.0,0.0,0.0,0.0,0.0,0.0,0.0,0.0,0.0,0.0,0.0,0.0,0.0,0.0,0.0,0.0,0.0,0.0,0.0,0.0,-4.8535,-4.8808,-5.0247,-5.1095,-5.1099,-5.0981,-5.0718,-5.0302,0.0,0.0,0.0,0.0,0.0,0.0,0.0,0.0,0.0,0.0,0.0,0.0,0.0,0.0,0.0,0.0,0.0,0.0,0.0,0.0,0.0,0.0,0.0,0.0,0.0,0.0,0.0,0.0,0.0,0.0,0.0,0.0,0.0,0.0,0.0,0.0,0.0,0.0,0.0,0.0,0.0,0.0,0.0,0.0,0.0,0.0,0.0,0.0,0.0,0.0,0.0,0.0,0.0,0.0,0.0,0.0,0.0,0.0,0.0,0.0,0.0,0.0,0.0,0.0,0.0,0.0,0.0,0.0,0.0,0.0,0.0,0.0,0.0,0.0,0.0,0.0,0.0,0.0,0.0,0.0,0.0,0.0,0.0,0.0,0.0,0.0,0.0,0.0,0.0,0.0,0.0,0.0,0.0,0.0,0.0,0.0,0.0,0.0,0.0,0.0,0.0,0.0,0.0,0.0,0.0,0.0,-4.7777,-4.8676,-4.8833,-5.0393,-5.122,-5.1173,-5.091,-5.0644,-5.0333,0.0,0.0,0.0,0.0,0.0,0.0,0.0,0.0,0.0,0.0,0.0,0.0,0.0,0.0,0.0,0.0,0.0,0.0,0.0,0.0,0.0,0.0,0.0,0.0,0.0,0.0,0.0,0.0,0.0,0.0,0.0,0.0,0.0,0.0,0.0,0.0,0.0,0.0,0.0,0.0,0.0,0.0,0.0,0.0,0.0,0.0,0.0,0.0,0.0,0.0,0.0,0.0,0.0,0.0,0.0,0.0,0.0,0.0,0.0,0.0,0.0,0.0,0.0,0.0,0.0,0.0,0.0,0.0,0.0,0.0,0.0,0.0,0.0,0.0,0.0,0.0,0.0,0.0,0.0,0.0,0.0,0.0,0.0,0.0,0.0,0.0,0.0,0.0,0.0,0.0,0.0,0.0,0.0,0.0,0.0,0.0,0.0,0.0,0.0,0.0,0.0,0.0,0.0,0.0,0.0,-4.6152,-4.7792,-4.8736,-4.8888,-5.0431,-5.1244,-5.113,-5.0879,-5.0616,-5.0396,0.0,0.0,0.0,0.0,0.0,0.0,0.0,0.0,0.0,0.0,0.0,0.0,0.0,0.0,0.0,0.0,0.0,0.0,0.0,0.0,0.0,0.0,0.0,0.0,0.0,0.0,0.0,0.0,0.0,0.0,0.0,0.0,0.0,0.0,0.0,0.0,0.0,0.0,0.0,0.0,0.0,0.0,0.0,0.0,0.0,0.0,0.0,0.0,0.0,0.0,0.0,0.0,0.0,0.0,0.0,0.0,0.0,0.0,0.0,0.0,0.0,0.0,0.0,0.0,0.0,0.0,0.0,0.0,0.0,0.0,0.0,0.0,0.0,0.0,0.0,0.0,0.0,0.0,0.0,0.0,0.0,0.0,0.0,0.0,0.0,0.0,0.0,0.0,0.0,0.0,0.0,0.0,0.0,0.0,0.0,0.0,0.0,0.0,0.0,0.0,0.0,0.0,0.0,0.0,0.0,0.0,-4.7791,-4.8737,-4.8851,-5.0451,-5.1211,-5.1037,-5.0867,-5.0672,-5.0339,0.0,0.0,0.0,0.0,0.0,0.0,0.0,0.0,0.0,0.0,0.0,0.0,0.0,0.0,0.0,0.0,0.0,0.0,0.0,0.0,0.0,0.0,0.0,0.0,0.0,0.0,0.0,0.0,0.0,0.0,0.0,0.0,0.0,0.0,0.0,0.0,0.0,0.0,0.0,0.0,0.0,0.0,0.0,0.0,0.0,0.0,0.0,0.0,0.0,0.0,0.0,0.0,0.0,0.0,0.0,0.0,0.0,0.0,0.0,0.0,0.0,0.0,0.0,0.0,0.0,0.0,0.0,0.0,0.0,0.0,0.0,0.0,0.0,0.0,0.0,0.0,0.0,0.0,0.0,0.0,0.0,0.0,0.0,0.0,0.0,0.0,0.0,0.0,0.0,0.0,0.0,0.0,0.0,0.0,0.0,0.0,0.0,0.0,0.0,0.0,0.0,0.0,0.0,0.0,0.0,0.0,-4.8091,-4.8737,-4.887,-5.0439,-5.1215,-5.1069,-5.0898,-5.0699,-5.0378,0.0,0.0,0.0,0.0,0.0,0.0,0.0,0.0,0.0,0.0,0.0,0.0,0.0,0.0,0.0,0.0,0.0,0.0,0.0,0.0,0.0,0.0,0.0,0.0,0.0,0.0,0.0,0.0,0.0,0.0,0.0,0.0,0.0,0.0,0.0,0.0,0.0,0.0,0.0,0.0,0.0,0.0,0.0,0.0,0.0,0.0,0.0,0.0,0.0,0.0,0.0,0.0,0.0,0.0,0.0,0.0,0.0,0.0,0.0,0.0,0.0,0.0,0.0,0.0,0.0,0.0,0.0,0.0,0.0,0.0,0.0,0.0,0.0,0.0,0.0,0.0,0.0,0.0,0.0,0.0,0.0,0.0,0.0,0.0,0.0,0.0,0.0,0.0,0.0,0.0,0.0,0.0,0.0,0.0,0.0,0.0,0.0,0.0,0.0,0.0,0.0,0.0,0.0,0.0,0.0,0.0,-4.826,-4.9009,-4.9646,-5.0727,-5.1234,-5.1117,-5.0961,-5.0743,0.0,0.0,0.0,0.0,0.0,0.0,0.0,0.0,0.0,0.0,0.0,0.0,0.0,0.0,0.0,0.0,0.0,0.0,0.0,0.0,0.0,0.0,0.0,0.0,0.0,0.0,0.0,0.0,0.0,0.0,0.0,0.0,0.0,0.0,0.0,0.0,0.0,0.0,0.0,0.0,0.0,0.0,0.0,0.0,0.0,0.0,0.0,0.0,0.0,0.0,0.0,0.0,0.0,0.0,0.0,0.0,0.0,0.0,0.0,0.0,0.0,0.0,0.0,0.0,0.0,0.0,0.0,0.0,0.0,0.0,0.0,0.0,0.0,0.0,0.0,0.0,0.0,0.0,0.0,0.0,0.0,0.0,0.0,0.0,0.0,0.0,0.0,0.0,0.0,0.0,0.0,0.0,0.0,0.0,0.0,0.0,0.0,0.0,0.0,0.0,0.0,0.0,0.0,0.0,0.0,0.0,0.0,-4.8308,-4.9621,-5.1299,-5.1369,-5.1409,-5.1253,-5.114,-5.0888,0.0,0.0,0.0,0.0,0.0,0.0,0.0,0.0,0.0,0.0,0.0,0.0,0.0,0.0,0.0,0.0,0.0,0.0,0.0,0.0,0.0,0.0,0.0,0.0,0.0,0.0,0.0,0.0,0.0,0.0,0.0,0.0,0.0,0.0,0.0,0.0,0.0,0.0,0.0,0.0,0.0,0.0,0.0,0.0,0.0,0.0,0.0,0.0,0.0,0.0,0.0,0.0,0.0,0.0,0.0,0.0,0.0,0.0,0.0,0.0,0.0,0.0,0.0,0.0,0.0,0.0,0.0,0.0,0.0,0.0,0.0,0.0,0.0,0.0,0.0,0.0,0.0,0.0,0.0,0.0,0.0,0.0,0.0,0.0,0.0,0.0,0.0,0.0,0.0,0.0,0.0,0.0,0.0,0.0,0.0,0.0,0.0,0.0,0.0,0.0,0.0,0.0,0.0,0.0,0.0,0.0,0.0,-5.0692,-5.1728,-5.2294,-5.2812,-5.3054,-5.2971,-5.2266,-5.1784,-5.1482,0.0,0.0,0.0,0.0,0.0,0.0,0.0,0.0,0.0,0.0,0.0,0.0,0.0,0.0,0.0,0.0,0.0,0.0,0.0,0.0,0.0,0.0,0.0,0.0,0.0,0.0,0.0,0.0,0.0,0.0,0.0,0.0,0.0,0.0,0.0,0.0,0.0,0.0,0.0,0.0,0.0,0.0,0.0,0.0,0.0,0.0,0.0,0.0,0.0,0.0,0.0,0.0,0.0,0.0,0.0,0.0,0.0,0.0,0.0,0.0,0.0,0.0,0.0,0.0,0.0,0.0,0.0,0.0,0.0,0.0,0.0,0.0,0.0,0.0,0.0,0.0,0.0,0.0,0.0,0.0,0.0,0.0,0.0,0.0,0.0,0.0,0.0,0.0,0.0,0.0,0.0,0.0,0.0,0.0,0.0,0.0,0.0,0.0,0.0,0.0,0.0,0.0,0.0,0.0,0.0,0.0,-5.245,-5.334,-5.3648,-5.3847,-5.3887,-5.3813,-5.3137,-5.255,-5.2027,0.0,0.0,0.0,0.0,0.0,0.0,0.0,0.0,0.0,0.0,0.0,0.0,0.0,0.0,0.0,0.0,0.0,0.0,0.0,0.0,0.0,0.0,0.0,0.0,0.0,0.0,0.0,0.0,0.0,0.0,0.0,0.0,0.0,0.0,0.0,0.0,0.0,0.0,0.0,0.0,0.0,0.0,0.0,0.0,0.0,0.0,0.0,0.0,0.0,0.0,0.0,0.0,0.0,0.0,0.0,0.0,0.0,0.0,0.0,0.0,0.0,0.0,0.0,0.0,0.0,0.0,0.0,0.0,0.0,0.0,0.0,0.0,0.0,0.0,0.0,0.0,0.0,0.0,0.0,0.0,0.0,0.0,0.0,0.0,0.0,0.0,0.0,0.0,0.0,0.0,0.0,0.0,0.0,0.0,0.0,0.0,0.0,0.0,0.0,0.0,0.0,0.0,0.0,0.0,0.0,0.0,0.0,-5.4431,-5.5281,-5.4541,-5.4108,-5.3978,-5.3783,-5.3216,-5.2191,0.0,0.0,0.0,0.0,0.0,0.0,0.0,0.0,0.0,0.0,0.0,0.0,0.0,0.0,0.0,0.0,0.0,0.0,0.0,0.0,0.0,0.0,0.0,0.0,0.0,0.0,0.0,0.0,0.0,0.0,0.0,0.0,0.0,0.0,0.0,0.0,0.0,0.0,0.0,0.0,0.0,0.0,0.0,0.0,0.0,0.0,0.0,0.0,0.0,0.0,0.0,0.0,0.0,0.0,0.0,0.0,0.0,0.0,0.0,0.0,0.0,0.0,0.0,0.0,0.0,0.0,0.0,0.0,0.0,0.0,0.0,0.0,0.0,0.0,0.0,0.0,0.0,0.0,0.0,0.0,0.0,0.0,0.0,0.0,0.0,0.0,0.0,0.0,0.0,0.0,0.0,0.0,0.0,0.0,0.0,0.0,0.0,0.0,0.0,0.0,0.0,0.0,0.0,0.0,0.0,0.0,-5.3569,-5.4416,-5.5272,-5.5706,-5.5884,-5.5786,-5.5093,-5.4187,-5.3091,0.0,0.0,0.0,0.0,0.0,0.0,0.0,0.0,0.0,0.0,0.0,0.0,0.0,0.0,0.0,0.0,0.0,0.0,0.0,0.0,0.0,0.0,0.0,0.0,0.0,0.0,0.0,0.0,0.0,0.0,0.0,0.0,0.0,0.0,0.0,0.0,0.0,0.0,0.0,0.0,0.0,0.0,0.0,0.0,0.0,0.0,0.0,0.0,0.0,0.0,0.0,0.0,0.0,0.0,0.0,0.0,0.0,0.0,0.0,0.0,0.0,0.0,0.0,0.0,0.0,0.0,0.0,0.0,0.0,0.0,0.0,0.0,0.0,0.0,0.0,0.0,0.0,0.0,0.0,0.0,0.0,0.0,0.0,0.0,0.0,0.0,0.0,0.0,0.0,0.0,0.0,0.0,0.0,0.0,0.0,0.0,0.0,0.0,0.0,0.0,0.0,0.0,0.0,0.0,0.0,0.0,-5.3709,-5.4616,-5.5822,-5.6333,-5.6569,-5.6487,-5.5944,-5.4955,-5.3518,0.0,0.0,0.0,0.0,0.0,0.0,0.0,0.0,0.0,0.0,0.0,0.0,0.0,0.0,0.0,0.0,0.0,0.0,0.0,0.0,0.0,0.0,0.0,0.0,0.0,0.0,0.0,0.0,0.0,0.0,0.0,0.0,0.0,0.0,0.0,0.0,0.0,0.0,0.0,0.0,0.0,0.0,0.0,0.0,0.0,0.0,0.0,0.0,-5.4698,0.0,0.0,0.0,0.0,0.0,0.0,0.0,0.0,0.0,0.0,0.0,0.0,0.0,0.0,0.0,0.0,0.0,0.0,0.0,0.0,0.0,0.0,0.0,0.0,0.0,0.0,0.0,0.0,0.0,0.0,0.0,0.0,0.0,0.0,0.0,0.0,0.0,0.0,0.0,0.0,0.0,0.0,0.0,0.0,0.0,0.0,0.0,0.0,0.0,0.0,0.0,0.0,0.0,0.0,0.0,-5.0326,-5.333,-5.3861,-5.4807,-5.6408,-5.6545,-5.655,-5.6488,-5.6429,-5.5578,-5.3816,0.0,0.0,0.0,0.0,0.0,0.0,0.0,0.0,0.0,0.0,0.0,0.0,0.0,0.0,0.0,0.0,0.0,0.0,0.0,0.0,0.0,0.0,0.0,0.0,0.0,0.0,0.0,0.0,0.0,0.0,0.0,0.0,0.0,0.0,0.0,0.0,0.0,0.0,0.0,0.0,0.0,0.0,0.0,0.0,0.0,0.0,0.0,-5.5121,-5.4901,0.0,0.0,0.0,0.0,0.0,0.0,0.0,0.0,0.0,0.0,0.0,0.0,0.0,0.0,0.0,0.0,0.0,0.0,0.0,0.0,0.0,0.0,0.0,0.0,0.0,0.0,0.0,-4.5807,0.0,-4.5812,0.0,0.0,0.0,0.0,0.0,0.0,0.0,0.0,0.0,0.0,0.0,0.0,0.0,0.0,0.0,0.0,0.0,0.0,0.0,0.0,0.0,0.0,0.0,0.0,-4.8503,-4.9834,-5.188,-5.3285,-5.4504,-5.5542,-5.6241,-5.6559,-5.6503,-5.6434,-5.5827,-5.4585,0.0,0.0,0.0,0.0,0.0,0.0,0.0,0.0,0.0,0.0,0.0,0.0,0.0,0.0,0.0,0.0,0.0,0.0,0.0,0.0,0.0,0.0,0.0,0.0,0.0,0.0,0.0,0.0,0.0,0.0,0.0,0.0,0.0,0.0,0.0,0.0,0.0,0.0,0.0,0.0,0.0,0.0,0.0,0.0,0.0,0.0,0.0,-5.5268,0.0,0.0,0.0,0.0,0.0,0.0,0.0,0.0,0.0,0.0,0.0,0.0,0.0,0.0,0.0,0.0,0.0,0.0,0.0,0.0,0.0,0.0,0.0,0.0,0.0,0.0,0.0,0.0,-4.5807,-4.5807,-4.5807,0.0,0.0,0.0,0.0,0.0,0.0,0.0,0.0,0.0,0.0,0.0,0.0,0.0,0.0,0.0,0.0,0.0,0.0,0.0,0.0,0.0,0.0,0.0,-4.748,-4.8319,-4.9647,-5.1382,-5.3113,-5.4408,-5.529,-5.6147,-5.6563,-5.6509,-5.6422,-5.5891,-5.4837,0.0,0.0,0.0,0.0,0.0,0.0,0.0,0.0,0.0,0.0,0.0,0.0,0.0,0.0,0.0,0.0,0.0,0.0,0.0,0.0,0.0,0.0,0.0,0.0,0.0,0.0,0.0,0.0,0.0,0.0,0.0,0.0,0.0,0.0,0.0,0.0,0.0,-5.19,-5.2866,0.0,0.0,0.0,0.0,0.0,0.0,0.0,0.0,-5.5408,-5.5216,0.0,0.0,0.0,0.0,0.0,0.0,0.0,0.0,0.0,0.0,0.0,0.0,0.0,0.0,0.0,0.0,0.0,0.0,0.0,0.0,0.0,0.0,0.0,0.0,0.0,0.0,0.0,-4.5807,-4.5807,-4.5807,0.0,0.0,0.0,0.0,0.0,0.0,0.0,0.0,0.0,0.0,0.0,0.0,0.0,0.0,0.0,0.0,0.0,0.0,0.0,0.0,0.0,0.0,0.0,-4.727,-4.8252,-4.9516,-5.0998,-5.2841,-5.4233,-5.5096,-5.5951,-5.6427,-5.6494,-5.6445,-5.5915,-5.4832,0.0,0.0,0.0,0.0,0.0,0.0,0.0,0.0,0.0,0.0,0.0,0.0,0.0,0.0,0.0,0.0,0.0,0.0,0.0,0.0,0.0,0.0,0.0,0.0,0.0,0.0,0.0,0.0,0.0,0.0,0.0,0.0,0.0,0.0,0.0,0.0,0.0,-5.2223,-5.339,-5.4911,-5.5924,0.0,0.0,0.0,0.0,0.0,0.0,0.0,-5.5444,-5.5281,-5.5009,0.0,0.0,0.0,0.0,0.0,0.0,0.0,0.0,0.0,0.0,0.0,0.0,0.0,0.0,0.0,0.0,0.0,0.0,0.0,0.0,0.0,0.0,0.0,0.0,0.0,-4.5807,-4.5807,-4.5807,0.0,0.0,0.0,0.0,0.0,0.0,0.0,0.0,0.0,0.0,0.0,0.0,0.0,0.0,0.0,0.0,0.0,0.0,0.0,0.0,0.0,0.0,0.0,0.0,-4.7957,-4.8938,-4.9242,-5.165,-5.3336,-5.4199,-5.5073,-5.5846,-5.646,-5.6488,-5.5989,-5.4925,-5.3862,0.0,0.0,0.0,0.0,0.0,0.0,0.0,0.0,0.0,0.0,0.0,0.0,0.0,0.0,0.0,0.0,0.0,0.0,0.0,0.0,0.0,0.0,0.0,0.0,0.0,0.0,0.0,0.0,0.0,0.0,0.0,0.0,0.0,0.0,0.0,0.0,-5.3368,-5.52,-5.574,-5.5987,-5.599,0.0,0.0,0.0,0.0,0.0,-5.5756,-5.5673,-5.5585,-5.5432,-5.5094,0.0,0.0,0.0,0.0,0.0,0.0,0.0,0.0,0.0,0.0,0.0,0.0,0.0,0.0,0.0,0.0,0.0,0.0,0.0,0.0,0.0,0.0,0.0,0.0,-4.5861,-4.5854,-4.5854,-4.5854,-4.5854,0.0,0.0,0.0,0.0,-4.5841,0.0,0.0,0.0,0.0,0.0,0.0,0.0,0.0,0.0,0.0,0.0,0.0,0.0,0.0,0.0,0.0,0.0,-4.7476,-4.8357,-4.8934,-5.0948,-5.2673,-5.3945,-5.484,-5.5672,-5.6463,-5.6491,-5.6022,-5.4982,0.0,0.0,0.0,0.0,0.0,0.0,0.0,0.0,0.0,0.0,0.0,0.0,0.0,0.0,0.0,0.0,0.0,0.0,0.0,0.0,0.0,0.0,0.0,0.0,0.0,0.0,0.0,0.0,0.0,0.0,0.0,0.0,0.0,0.0,0.0,0.0,0.0,0.0,-5.5037,-5.568,-5.6003,-5.5996,-5.5989,-5.5999,-5.5951,-5.5913,-5.5904,-5.5904,-5.5808,-5.5728,-5.5662,0.0,0.0,0.0,0.0,0.0,0.0,0.0,0.0,0.0,0.0,0.0,0.0,0.0,0.0,0.0,0.0,0.0,0.0,0.0,0.0,0.0,0.0,0.0,0.0,0.0,0.0,-4.5893,-4.5906,-4.5906,-4.5906,-4.5912,0.0,0.0,0.0,-4.5923,-4.6771,0.0,0.0,0.0,0.0,0.0,0.0,0.0,0.0,0.0,0.0,0.0,0.0,0.0,0.0,0.0,0.0,-4.707,-4.7969,-4.8918,-5.0383,-5.1988,-5.3672,-5.443,-5.5165,-5.5959,-5.5996,-5.5517,-5.4516,0.0,0.0,0.0,0.0,0.0,0.0,0.0,0.0,0.0,0.0,0.0,0.0,0.0,0.0,0.0,0.0,0.0,0.0,0.0,0.0,0.0,0.0,0.0,0.0,0.0,0.0,0.0,0.0,0.0,0.0,0.0,0.0,0.0,0.0,0.0,0.0,0.0,0.0,0.0,-5.5427,-5.602,-5.602,-5.6042,-5.6031,-5.6035,-5.599,-5.5982,-5.6051,-5.5937,-5.5856,0.0,0.0,0.0,0.0,0.0,0.0,0.0,0.0,0.0,0.0,0.0,0.0,0.0,0.0,0.0,0.0,0.0,0.0,0.0,0.0,0.0,0.0,-4.5898,-4.5892,0.0,0.0,-4.5892,-4.5911,-4.5905,-4.5905,-4.5905,-4.5905,-4.5905,-4.5943,0.0,-4.5991,-4.6507,-4.7456,0.0,0.0,0.0,0.0,0.0,0.0,0.0,0.0,0.0,0.0,0.0,0.0,0.0,0.0,0.0,0.0,-4.7969,-4.8879,-4.9777,-5.109,-5.2754,-5.2967,-5.3413,-5.4249,-5.4289,-5.3796,-5.2844,0.0,0.0,0.0,0.0,0.0,0.0,0.0,0.0,0.0,0.0,0.0,0.0,0.0,0.0,0.0,0.0,0.0,0.0,0.0,0.0,0.0,0.0,0.0,0.0,0.0,-4.5694,0.0,0.0,0.0,0.0,0.0,0.0,0.0,0.0,0.0,0.0,0.0,0.0,0.0,0.0,-5.609,-5.609,-5.6153,-5.6185,-5.6181,-5.6168,-5.6194,-5.6252,-5.6172,-5.6071,0.0,0.0,0.0,0.0,0.0,0.0,0.0,0.0,0.0,0.0,0.0,0.0,0.0,0.0,0.0,0.0,0.0,0.0,0.0,0.0,0.0,0.0,-4.6012,-4.6012,-4.6012,-4.6012,-4.6032,-4.6002,-4.6005,-4.6005,-4.6005,-4.6005,-4.6005,-4.6032,-4.6047,-4.6071,-4.6527,-4.7343,0.0,0.0,0.0,0.0,0.0,0.0,0.0,0.0,0.0,0.0,0.0,0.0,-4.6056,-4.6141,-4.6229,-4.6585,-4.7227,-4.8137,-4.8978,-5.0251,-5.1894,-5.244,-5.3102,-5.3997,-5.3982,-5.3537,0.0,0.0,0.0,0.0,0.0,0.0,0.0,0.0,0.0,0.0,0.0,0.0,0.0,0.0,0.0,0.0,0.0,0.0,0.0,0.0,0.0,0.0,0.0,0.0,0.0,-4.538,-4.5553,-4.5937,0.0,0.0,0.0,0.0,0.0,0.0,0.0,0.0,0.0,0.0,0.0,0.0,0.0,-5.5595,-5.609,-5.6179,-5.6214,-5.6244,-5.6286,-5.6347,-5.6354,-5.6261,-5.622,0.0,0.0,0.0,0.0,0.0,0.0,0.0,0.0,0.0,0.0,0.0,0.0,0.0,0.0,0.0,0.0,0.0,0.0,-4.6125,-4.6118,-4.6131,-4.6142,-4.6119,-4.6115,-4.6134,-4.6115,-4.6115,-4.6122,-4.6128,-4.6128,-4.6128,-4.6128,-4.6128,-4.613,-4.6123,-4.6123,-4.6484,-4.7099,-4.7322,0.0,0.0,0.0,0.0,0.0,0.0,0.0,0.0,0.0,0.0,-4.6099,-4.6085,-4.6162,-4.6203,-4.6206,-4.6667,-4.759,-4.8236,-4.9393,-5.1055,-5.1738,-5.2497,-5.3315,-5.3362,-5.2928,0.0,0.0,0.0,0.0,0.0,0.0,0.0,0.0,0.0,0.0,0.0,0.0,0.0,0.0,0.0,0.0,0.0,0.0,0.0,0.0,0.0,0.0,0.0,-4.625,-4.5544,-4.5438,-4.5448,-4.5486,-4.6033,0.0,-4.6753,0.0,0.0,0.0,0.0,0.0,0.0,0.0,0.0,0.0,0.0,-5.5248,-5.6097,-5.6226,-5.6278,-5.6334,-5.6401,-5.6422,-5.6437,-5.6381,-5.6261,0.0,0.0,0.0,0.0,0.0,0.0,0.0,0.0,0.0,0.0,0.0,0.0,0.0,0.0,0.0,0.0,0.0,0.0,-4.6212,-4.618,-4.6176,-4.62,-4.618,-4.6203,-4.6196,-4.6196,-4.6196,-4.6192,-4.6212,-4.6192,-4.6192,-4.6192,-4.6192,-4.6183,-4.6183,-4.6183,-4.6251,-4.6359,-4.7098,0.0,0.0,0.0,0.0,0.0,0.0,0.0,0.0,0.0,0.0,-4.607,-4.6134,-4.6183,-4.6206,-4.6262,-4.6718,-4.7571,-4.7653,-4.8515,-5.0215,-5.0332,-5.0742,-5.1541,-5.1576,-5.1153,0.0,0.0,0.0,0.0,0.0,0.0,0.0,0.0,0.0,0.0,0.0,0.0,0.0,0.0,0.0,0.0,0.0,0.0,0.0,0.0,0.0,0.0,0.0,0.0,-4.5591,-4.554,-4.5586,-4.5586,-4.5624,-4.5981,-4.6702,0.0,0.0,0.0,0.0,0.0,0.0,0.0,0.0,0.0,0.0,-5.531,-5.6181,-5.6344,-5.6418,-5.6475,-5.6492,-5.6482,-5.6482,-5.6478,-5.6198,-5.5397,-5.5103,-5.4469,0.0,0.0,0.0,0.0,0.0,0.0,0.0,0.0,0.0,0.0,0.0,0.0,0.0,0.0,0.0,-4.6206,-4.6204,-4.621,-4.6204,-4.6202,-4.6212,-4.6208,-4.6208,-4.6201,-4.6197,-4.6197,-4.6197,-4.6197,-4.6197,-4.6197,-4.6223,-4.6253,-4.6273,-4.6259,-4.6287,-4.6612,0.0,0.0,0.0,0.0,0.0,0.0,0.0,0.0,0.0,0.0,-4.6154,-4.6165,-4.6222,-4.6262,-4.6294,-4.6467,-4.6793,-4.7322,-4.7929,-4.8574,-4.9121,-4.9551,-4.9862,-4.9857,-4.9673,-4.9319,0.0,0.0,0.0,0.0,0.0,0.0,0.0,0.0,0.0,0.0,0.0,0.0,0.0,0.0,0.0,0.0,0.0,0.0,0.0,0.0,0.0,0.0,0.0,0.0,-4.5635,-4.5662,-4.5657,-4.5662,-4.6007,-4.6833,-4.797,0.0,0.0,0.0,0.0,0.0,0.0,0.0,-5.2811,0.0,-5.4636,-5.55,-5.611,-5.6478,-5.6497,-5.6536,-5.6566,-5.6564,-5.6105,-5.5643,-5.5309,-5.4294,-5.328,-5.2676,0.0,0.0,0.0,0.0,0.0,0.0,0.0,0.0,0.0,0.0,0.0,0.0,0.0,0.0,-4.6184,-4.6208,-4.6211,-4.6211,-4.621,-4.6208,-4.6206,-4.6224,-4.6241,-4.6237,-4.6234,-4.6233,-4.6233,-4.6234,-4.6233,-4.6256,-4.6301,-4.6301,-4.6302,-4.6305,-4.6302,-4.6591,0.0,0.0,0.0,0.0,0.0,0.0,0.0,0.0,0.0,-4.6206,-4.6222,-4.6248,-4.63,-4.6288,-4.6299,-4.6307,-4.6913,-4.7324,-4.7617,-4.8203,-4.8633,-4.8886,-4.8883,-4.876,-4.8455,0.0,0.0,0.0,0.0,-4.9602,0.0,0.0,0.0,0.0,0.0,0.0,0.0,0.0,0.0,0.0,0.0,0.0,0.0,0.0,0.0,0.0,0.0,0.0,0.0,0.0,-4.5692,-4.5687,-4.5708,-4.5985,-4.658,-4.769,-4.8655,-4.9255,0.0,0.0,0.0,0.0,0.0,0.0,-5.3112,-5.3848,-5.4723,-5.5591,-5.6159,-5.6149,-5.6182,-5.6226,-5.6225,-5.5479,-5.4829,-5.4554,-5.3461,-5.2523,-5.2283,-5.1736,-5.1326,-5.1339,-5.122,-5.1105,-5.1069,0.0,0.0,0.0,0.0,0.0,0.0,0.0,0.0,-4.6134,-4.6189,-4.62,-4.6209,-4.6196,-4.6202,-4.6226,-4.6307,-4.6287,-4.6289,-4.6307,-4.6287,-4.6287,-4.6307,-4.6287,-4.6288,-4.6289,-4.6289,-4.6289,-4.6289,-4.6289,-4.6308,-4.6328,-4.6366,-4.6347,-4.6503,-4.712,-4.7028,-4.6343,-4.6212,-4.6206,-4.6209,-4.6264,-4.63,-4.6303,-4.6301,-4.6307,-4.6287,-4.6347,-4.6738,-4.7539,-4.7617,-4.8008,-4.8808,-4.8886,-4.8493,-4.7649,0.0,0.0,0.0,0.0,-4.8852,0.0,0.0,0.0,0.0,0.0,0.0,0.0,0.0,0.0,0.0,0.0,0.0,0.0,0.0,0.0,0.0,0.0,0.0,0.0,0.0,-4.5688,-4.5688,-4.5757,-4.58,-4.5865,-4.7411,-4.8499,0.0,0.0,0.0,0.0,0.0,-5.1616,-5.2457,-5.2665,-5.3057,-5.3891,-5.4766,-5.5323,-5.5329,-5.5331,-5.5312,-5.533,-5.4587,-5.3746,-5.2981,-5.274,0.0,0.0,0.0,0.0,0.0,0.0,0.0,0.0,0.0,0.0,0.0,0.0,0.0,0.0,0.0,0.0,-4.6002,-4.6072,-4.6105,-4.6147,-4.6201,-4.6147,-4.6177,-4.6225,-4.6234,-4.6228,-4.624,-4.6283,-4.6305,-4.6306,-4.6305,-4.6303,-4.6301,-4.6258,-4.6235,-4.6231,-4.6231,-4.6231,-4.623,-4.6241,-4.6239,-4.6264,-4.6499,-4.6503,-4.627,-4.6222,-4.6238,-4.6257,-4.629,-4.6297,-4.6301,-4.6288,-4.6289,-4.6289,-4.6289,-4.6445,-4.6738,-4.6719,-4.6875,-4.7168,-4.7167,-4.7047,-4.6747,-4.671,0.0,0.0,-4.7817,-4.8107,0.0,0.0,0.0,0.0,0.0,0.0,0.0,0.0,0.0,0.0,0.0,0.0,0.0,0.0,0.0,0.0,0.0,0.0,0.0,0.0,-4.5826,-4.5826,-4.5848,-4.5873,-4.5916,-4.7031,-4.8001,-4.8595,-4.9655,-5.0598,-5.1183,-5.1336,-5.1478,-5.1764,-5.2314,-5.2796,-5.3091,-5.3879,-5.443,-5.4431,-5.4433,-5.4433,-5.4433,-5.3691,-5.3027,-5.2733,-5.2224,-5.1752,-5.1458,-5.1394,-5.1387,-5.1384,-5.1357,-5.1338,-5.133,-5.1339,-5.1339,-5.1339,-5.1326,-5.133,-5.133,-5.1353,-5.1206,-4.5847,-4.5947,-4.6013,-4.6069,-4.6119,-4.6099,-4.6088,-4.613,-4.6148,-4.6173,-4.616,-4.6232,-4.6259,-4.6264,-4.6259,-4.6273,-4.6269,-4.6199,-4.617,-4.6178,-4.6159,-4.6176,-4.615,-4.6135,-4.6151,-4.6157,-4.6176,-4.6195,-4.6226,-4.6211,-4.6228,-4.6247,-4.6269,-4.6289,-4.6289,-4.6288,-4.6288,-4.6288,-4.6289,-4.6289,-4.6289,-4.6289,-4.6289,-4.6289,-4.6288,-4.6305,-4.63,-4.6291,-4.6552,0.0,-4.7038,0.0,0.0,0.0,0.0,0.0,0.0,0.0,0.0,0.0,0.0,0.0,0.0,0.0,0.0,0.0,0.0,0.0,0.0,0.0,0.0,-4.5938,-4.5938,-4.5931,-4.596,-4.5975,-4.6042,-4.6857,-4.7661,-4.8227,-4.9318,-5.036,-5.1241,-5.1355,-5.139,-5.1403,-5.1904,-5.2241,-5.2241,-5.3006,-5.3553,-5.3553,-5.3535,-5.3555,-5.3535,-5.2832,-5.2266,-5.2246,-5.1796,-5.1386,-5.1385,-5.1148,-5.0949,-5.093,-5.0715,-5.0729,-5.1273,-5.1384,-5.1384,-5.1384,-5.1384,-5.1384,-5.1384,-5.1169,-5.0781,-4.5704,-4.579,-4.5854,-4.5922,-4.5997,-4.5997,-4.5993,-4.5998,-4.608,-4.6099,-4.6098,-4.6154,-4.6203,-4.6203,-4.6183,-4.619,-4.6192,-4.6135,-4.6088,-4.6088,-4.6088,-4.6076,-4.6093,-4.6032,-4.6032,-4.6093,-4.6093,-4.6099,-4.6102,-4.6161,-4.6202,-4.6203,-4.6198,-4.6237,-4.6281,-4.6295,-4.6295,-4.6301,-4.6305,-4.6307,-4.6287,-4.6289,-4.6289,-4.6289,-4.6288,-4.6287,-4.6307,-4.63,-4.629,-4.6302,-4.624,0.0,0.0,0.0,0.0,0.0,0.0,0.0,0.0,0.0,0.0,0.0,0.0,0.0,0.0,0.0,0.0,0.0,0.0,0.0,-4.6026,-4.6,-4.5994,-4.5982,-4.6047,-4.6095,-4.6122,-4.6897,-4.7465,-4.753,-4.899,-5.0323,-5.1143,-5.1318,-5.1363,-5.1339,-5.1324,-5.1346,-5.1366,-5.207,-5.2637,-5.2656,-5.2656,-5.2656,-5.2656,-5.1973,-5.1426,-5.1406,-5.1367,-5.1328,-5.1307,-5.0621,-5.0071,-5.0051,-4.9485,-4.9406,-5.0988,-5.1222,-5.1241,-5.1241,-5.1222,-5.1301,-5.1242,-5.0575,-5.0029,-4.5899,-4.5599,-4.5708,-4.58,-4.5867,-4.5848,-4.5867,-4.5937,-4.5953,-4.5997,-4.6027,-4.605,-4.6091,-4.6123,-4.6087,-4.606,-4.6042,-4.6027,-4.6022,-4.6026,-4.6026,-4.6021,-4.6011,-4.5944,-4.5953,-4.5964,-4.6025,-4.6021,-4.6022,-4.6059,-4.6089,-4.6208,-4.6197,-4.6197,-4.6228,-4.6245,-4.6234,-4.623,-4.6256,-4.6301,-4.6287,-4.6288,-4.6289,-4.6289,-4.6289,-4.6289,-4.6287,-4.6305,-4.6301,-4.629,-4.6278,0.0,-4.656,0.0,0.0,0.0,0.0,-5.0363,-5.0799,-5.0027,0.0,0.0,0.0,-4.719,0.0,0.0,0.0,0.0,-4.6268,-4.6119,-4.6083,-4.6054,-4.6074,-4.6078,-4.6084,-4.6126,-4.6157,-4.6445,-4.6897,-4.7514,-4.8009,-4.8641,-4.9505,-5.017,-5.0542,-5.0543,-5.0019,-4.9844,-5.0469,-5.0762,-5.1133,-5.168,-5.1777,-5.1777,-5.1758,-5.1562,-5.1387,-5.1387,-5.0918,-5.0332,-4.9707,-4.9413,-4.9257,-4.9238,-4.9062,-4.9081,-4.9472,-4.9625,-4.9621,-4.9621,-4.9602,-4.9602,-4.9602,-4.9406,-4.9056,-4.6668,-4.586,-4.5708,-4.5692,-4.5734,-4.5757,-4.5791,-4.5819,-4.5854,-4.588,-4.591,-4.5944,-4.5972,-4.6017,-4.5936,-4.5916,-4.5918,-4.5905,-4.5938,-4.5919,-4.5919,-4.5912,-4.588,-4.5834,-4.5827,-4.5808,-4.588,-4.5899,-4.5925,-4.5911,-4.5972,-4.6067,-4.6103,-4.6119,-4.6121,-4.6148,-4.6167,-4.6177,-4.6236,-4.627,-4.6301,-4.6305,-4.6288,-4.6289,-4.6289,-4.6289,-4.6288,-4.6288,-4.6305,-4.6301,-4.6295,-4.6284,0.0,-4.6727,-4.7125,-4.7435,-4.8335,-4.9224,-4.9872,-4.9456,0.0,0.0,-4.7119,-4.6436,-4.5995,0.0,0.0,-4.6145,-4.618,-4.617,-4.6144,-4.6138,-4.6135,-4.6135,-4.6131,-4.6167,-4.624,-4.6261,-4.6488,-4.7021,-4.7376,-4.7789,-4.8319,-4.8847,-4.9296,-4.9648,-4.9219,-4.9082,-4.9609,-4.9687,-4.9863,-5.0332,-5.041,-5.041,-5.041,-5.041,-5.041,-5.041,-5.0019,-4.9531,-4.9004,-4.8633,-4.8398,-4.8359,-4.8105,-4.7871,-4.7871,-4.787,-4.8142,-4.8747,-4.8884,-4.8884,-4.8884,-4.863,-4.822,-4.7783,-4.6442,-4.5918,-4.567,-4.5596,-4.5684,-4.568,-4.5708,-4.5765,-4.5783,-4.58,-4.5873,-4.5887,-4.5873,-4.5827,-4.5793,-4.5793,-4.5803,-4.5788,-4.58,-4.58,-4.5765,-4.5708,-4.5688,-4.5688,-4.5688,-4.5765,-4.58,-4.5788,-4.5778,-4.5833,-4.5886,-4.5935,-4.5977,-4.6008,-4.6056,-4.6091,-4.6091,-4.6162,-4.6228,-4.63,-4.6301,-4.6288,-4.6289,-4.6289,-4.6289,-4.6289,-4.6288,-4.6287,-4.6287,-4.6304,-4.6297,-4.6303,-4.6253,-4.6587,-4.7375,-4.74,-4.77,-4.8355,-4.8407,-4.8074,-4.7294,-4.6471,-4.6014,-4.6026,-4.6078,-4.6126,-4.6203,-4.6209,-4.6195,-4.6204,-4.6197,-4.621,-4.621,-4.6199,-4.6225,-4.6303,-4.6296,-4.6304,-4.6287,-4.701,-4.7499,-4.75,-4.75,-4.7793,-4.8594,-4.8691,-4.8711,-4.8769,-4.8789,-4.8808,-4.8984,-4.8926,-4.8906,-4.9062,-4.9043,-4.9004,-4.8887,-4.8808,-4.873,-4.8594,-4.8027,-4.7539,-4.748,-4.6855,-4.6348,-4.6308,-4.6426,-4.6797,-4.8359,-4.8613,-4.8652,-4.8535,-4.7988,-4.748,-4.8099,-4.725,-4.6682,-4.6081,-4.554,-4.5665,-4.5679,-4.5698,-4.5719,-4.5704,-4.5739,-4.5746,-4.5734,-4.5761,-4.5719,-4.5719,-4.5719,-4.5723,-4.5723,-4.5723,-4.5715,-4.5715,-4.5688,-4.5688,-4.5688,-4.5708,-4.5715,-4.5723,-4.5723,-4.5731,-4.5719,-4.5754,-4.5757,-4.5821,-4.5925,-4.5983,-4.6026,-4.6018,-4.6088,-4.6173,-4.63,-4.6301,-4.6288,-4.6288,-4.6289,-4.6289,-4.6289,-4.6289,-4.6289,-4.6287,-4.6306,-4.6304,-4.6299,-4.6291,-4.638,-4.6561,-4.7153,-4.7267,-4.683,-4.7381,-4.7605,-4.7301,-4.6526,-4.6071,-4.608,-4.6134,-4.6178,-4.6211,-4.6243,-4.6277,-4.6278,-4.6277,-4.6277,-4.6276,-4.6278,-4.628,-4.6303,-4.6305,-4.6287,-4.6289,-4.6484,-4.6601,-4.6621,-4.6601,-4.668,-4.6894,-4.6914,-4.7148,-4.7793,-4.791,-4.8144,-4.8711,-4.8828,-4.8887,-4.8828,-4.8887,-4.8633,-4.8008,-4.791,-4.7695,-4.7031,-4.6758,-4.6621,-4.6601,-4.6465,-4.6308,-4.6289,-4.6289,-4.6426,-4.6816,-4.6914,-4.6933,-4.6894,-4.6738,-4.6601,-4.8555,-4.7569,-4.7348,-4.6589,-4.5476,-4.5594,-4.5648,-4.5657,-4.5654,-4.566,-4.5684,-4.5673,-4.5692,-4.5676,-4.5676,-4.5687,-4.5651,-4.5651,-4.5651,-4.5651,-4.5651,-4.5651,-4.5651,-4.5651,-4.5651,-4.5651,-4.5651,-4.5643,-4.5651,-4.5651,-4.566,-4.5676,-4.5676,-4.5735,-4.5822,-4.5873,-4.5932,-4.596,-4.605,-4.6141,-4.6253,-4.6297,-4.6306,-4.6287,-4.6289,-4.6289,-4.6289,-4.6289,-4.6289,-4.6289,-4.6289,-4.6288,-4.6305,-4.6302,-4.6299,-4.6312,-4.6733,-4.6761,-4.6294,-4.6674,-4.6885,-4.6816,-4.6395,-4.6146,-4.6138,-4.6198,-4.6234,-4.6251,-4.6281,-4.6305,-4.6306,-4.6306,-4.6306,-4.6305,-4.6306,-4.6306,-4.6287,-4.6288,-4.6289,-4.6289,-4.6289,-4.6289,-4.6289,-4.6289,-4.6289,-4.6289,-4.6289,-4.6465,-4.6914,-4.7031,-4.7207,-4.7656,-4.7734,-4.7754,-4.7734,-4.7734,-4.7598,-4.7148,-4.7012,-4.6836,-4.6387,-4.6289,-4.6289,-4.6289,-4.6289,-4.6289,-4.6289,-4.6289,-4.6289,-4.6289,-4.6289,-4.6289,-4.6289,-4.6289,-4.6289,-4.9061,-4.781,-4.7941,-4.7058,-4.5563,-4.5589,-4.5594,-4.5594,-4.5594,-4.5631,-4.5693,-4.5687,-4.5687,-4.5693,-4.5693,-4.5648,-4.5594,-4.5594,-4.5594,-4.5594,-4.5594,-4.5594,-4.5594,-4.5594,-4.5594,-4.5594,-4.5594,-4.5594,-4.5594,-4.5594,-4.5631,-4.5693,-4.5693,-4.5693,-4.5673,-4.5727,-4.581,-4.5906,-4.6041,-4.6141,-4.6204,-4.6272,-4.6303,-4.6287,-4.6289,-4.6289,-4.6289,-4.6289,-4.6289,-4.6289,-4.6289,-4.6289,-4.6288,-4.6288,-4.6306,-4.6302,-4.6299,-4.6293,-4.6305,-4.6238,-4.6212,-4.6212,-4.6214,-4.6217,-4.6217,-4.6271,-4.6334,-4.6463,-4.6483,-4.6523,-4.6621,-4.6641,-4.6582,-4.6483,-4.6464,-4.6426,-4.6327,-4.6289,-4.6289,-4.6289,-4.6289,-4.6289,-4.6289,-4.6289,-4.6289,-4.6289,-4.6289,-4.6308,-4.6308,-4.6348,-4.6387,-4.6289,-4.6289,-4.6504,-4.6465,-4.6387,-4.6387,-4.6328,-4.6367,-4.6289,-4.6308,-4.6289,-4.6289,-4.6289,-4.6289,-4.6289,-4.6289,-4.6289,-4.6289,-4.6289,-4.6289,-4.6289,-4.6289,-4.6289,-4.6289,-4.9403,-4.8629,-4.819,-4.7403,-4.6426,-4.5839,-4.5594,-4.5594,-4.5594,-4.5594,-4.5631,-4.5631,-4.5631,-4.5622,-4.5622,-4.5622,-4.5594,-4.5594,-4.5594,-4.5594,-4.5594,-4.5594,-4.5594,-4.5594,-4.5594,-4.5594,-4.5594,-4.5594,-4.5594,-4.5594,-4.5594,-4.5622,-4.5622,-4.5622,-4.5622,-4.562,-4.5723,-4.588,-4.6013,-4.613,-4.6209,-4.6264,-4.63,-4.6287,-4.6289,-4.6289,-4.6289,-4.6289,-4.6289,-4.6289,-4.6289,-4.6289,-4.6289,-4.6289,-4.6289,-4.6306,-4.6306,-4.6304,-4.6299,-4.6297,-4.6278,-4.6278,-4.6276,-4.6291,-4.6266,-4.6299,-4.6599,-4.7285,-4.7344,-4.7656,-4.832,-4.8418,-4.8125,-4.7441,-4.7344,-4.709,-4.6426,-4.6289,-4.6289,-4.6289,-4.6289,-4.6289,-4.6289,-4.6289,-4.6289,-4.6289,-4.6289,-4.6289,-4.6289,-4.6289,-4.6289,-4.6289,-4.6289,-4.6289,-4.6289,-4.6289,-4.6289,-4.6289,-4.6289,-4.6289,-4.6289,-4.6289,-4.6289,-4.6289,-4.6289,-4.6289,-4.6289,-4.6289,-4.6289,-4.6289,-4.6289,-4.6289,-4.6289,-4.6289,-4.6289,-4.9511,-4.8893,-4.8679,-4.7884,-4.6724,-4.6386,-4.599,-4.5594,-4.5594,-4.5594,-4.5594,-4.5594,-4.5594,-4.5594,-4.5594,-4.5594,-4.5594,-4.5594,-4.5594,-4.5594,-4.5594,-4.5594,-4.5594,-4.5594,-4.5594,-4.5594,-4.5594,-4.5594,-4.5594,-4.5594,-4.5594,-4.5594,-4.5594,-4.5594,-4.5594,-4.5637,-4.5723,-4.5861,-4.5977,-4.6076,-4.6154,-4.6249,-4.6291,-4.6297,-4.6306,-4.6289,-4.6289,-4.6289,-4.6289,-4.6289,-4.6289,-4.6289,-4.6289,-4.6289,-4.6289,-4.6289,-4.6289,-4.6288,-4.6305,-4.6305,-4.6305,-4.6305,-4.6306,-4.6306,-4.6302,-4.6696,-4.7128,-4.7539,-4.7988,-4.8418,-4.8828,-4.8516,-4.8086,-4.7637,-4.7226,-4.6758,-4.6387,-4.6289,-4.6289,-4.6289,-4.6289,-4.6289,-4.6289,-4.6289,-4.6289,-4.6289,-4.6289,-4.6289,-4.6289,-4.6289,-4.6289,-4.6289,-4.6289,-4.6289,-4.6289,-4.6289,-4.6289,-4.6289,-4.6289,-4.6289,-4.6289,-4.6289,-4.6289,-4.6289,-4.6289,-4.6289,-4.6289,-4.6289,-4.6289,-4.6289,-4.6289,-4.6289,-4.6289,-4.6289,-4.6289,-4.9613,-4.9132,-4.916,-4.8354,-4.7012,-4.6943,-4.6413,-4.5594,-4.5594,-4.5594,-4.5594,-4.5594,-4.5594,-4.5594,-4.5594,-4.5594,-4.5594,-4.5594,-4.5594,-4.5594,-4.5594,-4.5594,-4.5594,-4.5594,-4.5594,-4.5594,-4.5594,-4.5594,-4.5594,-4.5594,-4.5594,-4.5594,-4.5594,-4.5594,-4.5603,-4.5651,-4.5719,-4.58,-4.5939,-4.6017,-4.6088,-4.6226,-4.6296,-4.6303,-4.6301,-4.6306,-4.6287,-4.6289,-4.6289,-4.6289,-4.6289,-4.6289,-4.6289,-4.6289,-4.6289,-4.6289,-4.6289,-4.6289,-4.6288,-4.6288,-4.6288,-4.6288,-4.6289,-4.6289,-4.6307,-4.6971,-4.7499,-4.7793,-4.8496,-4.8945,-4.9101,-4.8516,-4.793,-4.7637,-4.6973,-4.6504,-4.6348,-4.6289,-4.6289,-4.6289,-4.6289,-4.6289,-4.6289,-4.6289,-4.6289,-4.6289,-4.6289,-4.6289,-4.6289,-4.6289,-4.6289,-4.6289,-4.6289,-4.6289,-4.6289,-4.6289,-4.6289,-4.6289,-4.6289,-4.6289,-4.6289,-4.6289,-4.6289,-4.6289,-4.6289,-4.6289,-4.6289,-4.6289,-4.6289,-4.6289,-4.6289,-4.6289,-4.6289,-4.6289,-4.6289,-4.9936,-4.9971,-4.9428,-4.868,-4.778,-4.7155,-4.6413,-4.5614,-4.5594,-4.5594,-4.5594,-4.5594,-4.5594,-4.5594,-4.5594,-4.5594,-4.5594,-4.5594,-4.5594,-4.5594,-4.5594,-4.5594,-4.5594,-4.5594,-4.5594,-4.5594,-4.5594,-4.5594,-4.5594,-4.5594,-4.5594,-4.5594,-4.5594,-4.5594,-4.5594,-4.5665,-4.573,-4.5815,-4.5925,-4.6042,-4.6107,-4.6174,-4.6238,-4.629,-4.6294,-4.6301,-4.6307,-4.6288,-4.6288,-4.6289,-4.6289,-4.6289,-4.6289,-4.6289,-4.6289,-4.6289,-4.6289,-4.6289,-4.6289,-4.6289,-4.6289,-4.6289,-4.6289,-4.6289,-4.6308,-4.6406,-4.709,-4.8516,-4.8808,-4.9219,-4.9863,-4.9805,-4.9062,-4.7812,-4.748,-4.7129,-4.6406,-4.6289,-4.6289,-4.6289,-4.6289,-4.6289,-4.6289,-4.6289,-4.6289,-4.6289,-4.6289,-4.6289,-4.6289,-4.6289,-4.6289,-4.6289,-4.6289,-4.6289,-4.6289,-4.6289,-4.6289,-4.6289,-4.6289,-4.6289,-4.6289,-4.6289,-4.6289,-4.6289,-4.6289,-4.6289,-4.6289,-4.6289,-4.6289,-4.6289,-4.6289,-4.6289,-4.6289,-4.6289,-4.6289,-5.0063,-5.0228,-4.9994,-4.9459,-4.8673,-4.7423,-4.6682,-4.6278,-4.5806,-4.5594,-4.5594,-4.5594,-4.5594,-4.5594,-4.5594,-4.5594,-4.5594,-4.5594,-4.5594,-4.5594,-4.5594,-4.5594,-4.5594,-4.5594,-4.5594,-4.5594,-4.5594,-4.5594,-4.5594,-4.5594,-4.5594,-4.5594,-4.5594,-4.5594,-4.5594,-4.5676,-4.5717,-4.5746,-4.5873,-4.5978,-4.6051,-4.6119,-4.6187,-4.6231,-4.6251,-4.6266,-4.6296,-4.6305,-4.6288,-4.6289,-4.6289,-4.6289,-4.6289,-4.6289,-4.6289,-4.6289,-4.6289,-4.6289,-4.6289,-4.6289,-4.6289,-4.6289,-4.6289,-4.6289,-4.6289,-4.6738,-4.7344,-4.8144,-4.8613,-4.9062,-4.9433,-4.9062,-4.8457,-4.7695,-4.7207,-4.6738,-4.6387,-4.6289,-4.6289,-4.6289,-4.6289,-4.6289,-4.6289,-4.6289,-4.6289,-4.6289,-4.6289,-4.6289,-4.6289,-4.6289,-4.6289,-4.6289,-4.6289,-4.6289,-4.6289,-4.6289,-4.6289,-4.6289,-4.6289,-4.6289,-4.6289,-4.6289,-4.6289,-4.6289,-4.6289,-4.6289,-4.6289,-4.6289,-4.6289,-4.6289,-4.6289,-4.6289,-4.6289,-4.6289,-4.6289,-5.0133,-5.0325,-5.0457,-5.0064,-4.9279,-4.7798,-4.7086,-4.6836,-4.6182,-4.5787,-4.5614,-4.5594,-4.5594,-4.5594,-4.5594,-4.5594,-4.5594,-4.5594,-4.5594,-4.5594,-4.5594,-4.5594,-4.5594,-4.5594,-4.5594,-4.5594,-4.5594,-4.5594,-4.5594,-4.5594,-4.5594,-4.5594,-4.5594,-4.5594,-4.5594,-4.5648,-4.5693,-4.569,-4.5807,-4.5906,-4.5969,-4.6052,-4.6122,-4.6165,-4.6192,-4.6223,-4.6278,-4.6296,-4.6305,-4.6307,-4.6289,-4.6289,-4.6289,-4.6289,-4.6289,-4.6289,-4.6289,-4.6289,-4.6289,-4.6289,-4.6289,-4.6289,-4.6289,-4.6289,-4.6348,-4.6914,-4.7422,-4.7637,-4.8223,-4.8574,-4.8535,-4.8047,-4.7519,-4.7305,-4.6738,-4.6348,-4.6308,-4.6289,-4.6289,-4.6289,-4.6289,-4.6289,-4.6289,-4.6289,-4.6289,-4.6289,-4.6289,-4.6289,-4.6289,-4.6289,-4.6289,-4.6289,-4.6289,-4.6289,-4.6289,-4.6289,-4.6289,-4.6289,-4.6289,-4.6289,-4.6289,-4.6289,-4.6289,-4.6289,-4.6289,-4.6289,-4.6289,-4.6289,-4.6289,-4.6289,-4.6289,-4.6289,-4.6289,-4.6289,-4.6289,-5.0158,-5.039,-5.0468,-5.0083,-4.9336,-4.8413,-4.7586,-4.6951,-4.6808,-4.6336,-4.5633,-4.5594,-4.5594,-4.5594,-4.5594,-4.5594,-4.5594,-4.5594,-4.5594,-4.5594,-4.5594,-4.5594,-4.5594,-4.5594,-4.5594,-4.5594,-4.5594,-4.5594,-4.5594,-4.5594,-4.5594,-4.5594,-4.5594,-4.5594,-4.5594,-4.5594,-4.564,-4.5682,-4.5717,-4.5785,-4.5906,-4.5964,-4.6032,-4.6122,-4.6165,-4.6209,-4.6225,-4.6278,-4.6294,-4.6306,-4.6287,-4.6288,-4.6289,-4.6289,-4.6289,-4.6289,-4.6289,-4.6289,-4.6289,-4.6289,-4.6289,-4.6289,-4.6289,-4.6289,-4.6289,-4.6387,-4.6777,-4.7383,-4.7656,-4.7715,-4.7715,-4.7598,-4.7226,-4.6621,-4.6387,-4.6289,-4.6289,-4.6289,-4.6289,-4.6289,-4.6289,-4.6289,-4.6289,-4.6289,-4.6289,-4.6289,-4.6289,-4.6289,-4.6289,-4.6289,-4.6289,-4.6289,-4.6289,-4.6289,-4.6289,-4.6289,-4.6289,-4.6289,-4.6289,-4.6289,-4.6289,-4.6289,-4.6289,-4.6289,-4.6289,-4.6289,-4.6289,-4.6289,-4.6289,-4.6289,-4.6289,-4.6289,-4.6289,-4.6289,-4.6289,-5.0267,-5.0412,-5.0511,-5.0402,-5.0067,-4.924,-4.8394,-4.7605,-4.7105,-4.6394,-4.5652,-4.5594,-4.5594,-4.5594,-4.5594,-4.5594,-4.5594,-4.5594,-4.5594,-4.5594,-4.5594,-4.5594,-4.5594,-4.5594,-4.5594,-4.5594,-4.5594,-4.5594,-4.5594,-4.5594,-4.5594,-4.5594,-4.5594,-4.5594,-4.5594,-4.5594,-4.5622,-4.562,-4.5671,-4.5735,-4.5783,-4.5848,-4.5941,-4.6027,-4.6102,-4.6169,-4.6201,-4.6249,-4.629,-4.6303,-4.6306,-4.6288,-4.6289,-4.6289,-4.6289,-4.6289,-4.6289,-4.6289,-4.6289,-4.6289,-4.6289,-4.6289,-4.6289,-4.6289,-4.6289,-4.6289,-4.6465,-4.6758,-4.6836,-4.6836,-4.6855,-4.6855,-4.666,-4.6348,-4.6289,-4.6289,-4.6289,-4.6289,-4.6289,-4.6289,-4.6289,-4.6289,-4.6289,-4.6289,-4.6289,-4.6289,-4.6289,-4.6289,-4.6289,-4.6289,-4.6289,-4.6289,-4.6289,-4.6289,-4.6289,-4.6289,-4.6289,-4.6289,-4.6289,-4.6289,-4.6289,-4.6289,-4.6289,-4.6289,-4.6289,-4.6289,-4.6289,-4.6289,-4.6289,-4.6289,-4.6289,-4.6289,-4.6289,-4.6289,-4.6289,-5.0348,-5.0427,-5.0553,-5.0653,-5.0635,-5.0038,-4.9125,-4.8105,-4.749,-4.6624,-4.5633,-4.5594,-4.5594,-4.5594,-4.5594,-4.5594,-4.5594,-4.5594,-4.5594,-4.5594,-4.5594,-4.5594,-4.5594,-4.5594,-4.5594,-4.5594,-4.5594,-4.5594,-4.5594,-4.5594,-4.5594,-4.5594,-4.5594,-4.5594,-4.5594,-4.5594,-4.5594,-4.5612,-4.566,-4.5719,-4.5731,-4.5771,-4.5867,-4.595,-4.6056,-4.6138,-4.6196,-4.6236,-4.6284,-4.6301,-4.6305,-4.6288,-4.6289,-4.6289,-4.6289,-4.6289,-4.6289,-4.6289,-4.6289,-4.6289,-4.6289,-4.6289,-4.6289,-4.6289,-4.6289,-4.6289,-4.6289,-4.6328,-4.6289,-4.6328,-4.6289,-4.6289,-4.6289,-4.6289,-4.6289,-4.6289,-4.6289,-4.6289,-4.6289,-4.6289,-4.6289,-4.6289,-4.6289,-4.6289,-4.6289,-4.6289,-4.6289,-4.6289,-4.6289,-4.6289,-4.6289,-4.6289,-4.6289,-4.6289,-4.6289,-4.6289,-4.6289,-4.6289,-4.6289,-4.6289,-4.6289,-4.6289,-4.6289,-4.6289,-4.6289,-4.6289,-4.6289,-4.6289,-4.6289,-4.6289,-4.6289,-4.6289,-4.6289,-4.6289,-4.6289,-5.0371,-5.0511,-5.0663,-5.0683,-5.0693,-5.0635,-4.9644,-4.8105,-4.8029,-4.7124,-4.571,-4.5594,-4.5594,-4.5594,-4.5594,-4.5594,-4.5594,-4.5594,-4.5594,-4.5594,-4.5594,-4.5594,-4.5594,-4.5594,-4.5594,-4.5594,-4.5594,-4.5594,-4.5594,-4.5594,-4.5594,-4.5594,-4.5594,-4.5594,-4.5594,-4.5603,-4.5631,-4.5673,-4.5698,-4.573,-4.5781,-4.5805,-4.5848,-4.5923,-4.6041,-4.6137,-4.6196,-4.6215,-4.6232,-4.6301,-4.6302,-4.6305,-4.6289,-4.6289,-4.6289,-4.6289,-4.6289,-4.6289,-4.6289,-4.6289,-4.6289,-4.6289,-4.6289,-4.6289,-4.6289,-4.6289,-4.6289,-4.6289,-4.6289,-4.6289,-4.6289,-4.6289,-4.6289,-4.6289,-4.6289,-4.6289,-4.6289,-4.6289,-4.6289,-4.6289,-4.6289,-4.6289,-4.6289,-4.6289,-4.6289,-4.6289,-4.6289,-4.6289,-4.6289,-4.6289,-4.6289,-4.6289,-4.6289,-4.6289,-4.6289,-4.6289,-4.6289,-4.6289,-4.6289,-4.6289,-4.6289,-4.6289,-4.6289,-4.6289,-4.6289,-4.6289,-4.6289,-4.6289,-4.6289,-4.6289,-4.6289,-4.6289,-4.6289,-4.6289,-4.6289,-5.096,-5.0633,-5.0673,-5.0683,-5.0683,-5.0683,-4.9702,-4.8135,-4.8096,-4.7163,-4.5787,-4.5594,-4.5594,-4.5594,-4.5594,-4.5594,-4.5594,-4.5594,-4.5594,-4.5594,-4.5594,-4.5594,-4.5594,-4.5594,-4.5594,-4.5594,-4.5594,-4.5594,-4.5594,-4.5594,-4.5594,-4.5603,-4.564,-4.5676,-4.5657,-4.5662,-4.5687,-4.5711,-4.5731,-4.5776,-4.5812,-4.5887,-4.5949,-4.5969,-4.6037,-4.6132,-4.6196,-4.6212,-4.623,-4.6301,-4.6301,-4.6305,-4.6289,-4.6289,-4.6289,-4.6289,-4.6289,-4.6289,-4.6289,-4.6289,-4.6289,-4.6289,-4.6289,-4.6289,-4.6289,-4.6289,-4.6289,-4.6289,-4.6289,-4.6289,-4.6289,-4.6289,-4.6308,-4.6289,-4.6308,-4.6328,-4.6289,-4.6289,-4.6289,-4.6289,-4.6289,-4.6289,-4.6289,-4.6289,-4.6289,-4.6289,-4.6289,-4.6289,-4.6289,-4.6289,-4.6289,-4.6289,-4.6289,-4.6289,-4.6289,-4.6289,-4.6289,-4.6289,-4.6289,-4.6289,-4.6289,-4.6289,-4.6289,-4.6289,-4.6289,-4.6289,-4.6289,-4.6289,-4.6289,-4.6289,-4.6289,-4.6289,-4.6289,-4.6289,-4.6289,-5.1102,-5.0721,-5.0683,-5.0683,-5.0673,-5.0375,-4.9452,-4.8135,-4.7808,-4.6913,-4.5768,-4.5594,-4.5594,-4.5594,-4.5594,-4.5594,-4.5594,-4.5594,-4.5594,-4.5594,-4.5631,-4.5631,-4.564,-4.5629,-4.5618,-4.5637,-4.564,-4.5631,-4.5594,-4.5594,-4.5622,-4.562,-4.5684,-4.569,-4.5687,-4.5727,-4.575,-4.5754,-4.58,-4.5822,-4.5867,-4.5986,-4.6021,-4.6027,-4.6099,-4.6158,-4.6206,-4.6223,-4.6255,-4.6299,-4.6303,-4.6306,-4.6289,-4.6289,-4.6289,-4.6289,-4.6289,-4.6289,-4.6289,-4.6289,-4.6289,-4.6289,-4.6289,-4.6289,-4.6289,-4.6289,-4.6289,-4.6289,-4.6308,-4.6367,-4.666,-4.6719,-4.6719,-4.6719,-4.6719,-4.6719,-4.6719,-4.6738,-4.6582,-4.6367,-4.6289,-4.6289,-4.6289,-4.6289,-4.6289,-4.6289,-4.6289,-4.6289,-4.6289,-4.6289,-4.6289,-4.6289,-4.6289,-4.6289,-4.6289,-4.6289,-4.6289,-4.6289,-4.6289,-4.6289,-4.6289,-4.6289,-4.6289,-4.6289,-4.6289,-4.6289,-4.6289,-4.6289,-4.6289,-4.6289,-4.6289,-4.6289,-4.6289,-4.6289,-4.6289,-5.0653,-5.0683,-5.0683,-5.0683,-5.0596,-4.9856,-4.8952,-4.8086,-4.7288,-4.649,-4.5652,-4.5594,-4.5594,-4.5594,-4.5594,-4.5594,-4.5594,-4.5614,-4.5622,-4.5622,-4.5665,-4.5682,-4.5682,-4.5695,-4.5692,-4.5692,-4.5679,-4.5657,-4.5622,-4.5594,-4.5631,-4.5673,-4.5709,-4.5695,-4.5688,-4.5761,-4.5798,-4.5821,-4.588,-4.5949,-4.5997,-4.6075,-4.6095,-4.6102,-4.6162,-4.6209,-4.6206,-4.6245,-4.6288,-4.6301,-4.6305,-4.6288,-4.6289,-4.6289,-4.6289,-4.6288,-4.6287,-4.6287,-4.6287,-4.6287,-4.6288,-4.6289,-4.6289,-4.6289,-4.6289,-4.6289,-4.6289,-4.6289,-4.6406,-4.666,-4.7363,-4.7578,-4.7598,-4.7598,-4.7598,-4.7598,-4.7598,-4.7578,-4.7266,-4.6582,-4.6367,-4.6308,-4.6289,-4.6289,-4.6289,-4.6289,-4.6289,-4.6289,-4.6289,-4.6289,-4.6289,-4.6289,-4.6289,-4.6289,-4.6289,-4.6289,-4.6289,-4.6289,-4.6289,-4.6289,-4.6289,-4.6289,-4.6289,-4.6289,-4.6289,-4.6289,-4.6289,-4.6289,-4.6289,-4.6289,-4.6289,-4.6289,-4.6289,-4.6289,-4.6289,-5.0692,-5.0683,-5.0683,-5.0683,-5.0577,-4.976,-4.8913,-4.8029,-4.724,-4.6413,-4.571,-4.5594,-4.5594,-4.5594,-4.5594,-4.5594,-4.5594,-4.564,-4.5676,-4.5665,-4.5687,-4.5684,-4.5692,-4.568,-4.5688,-4.568,-4.5679,-4.5673,-4.5657,-4.5631,-4.564,-4.5701,-4.5738,-4.5746,-4.5771,-4.5893,-4.5944,-4.5937,-4.6014,-4.6056,-4.6085,-4.613,-4.6177,-4.6183,-4.6223,-4.6284,-4.6267,-4.6296,-4.6291,-4.6305,-4.6306,-4.6288,-4.6289,-4.6289,-4.6288,-4.6287,-4.6305,-4.6303,-4.6304,-4.6304,-4.6305,-4.6288,-4.6288,-4.6289,-4.6289,-4.6289,-4.6308,-4.6387,-4.6816,-4.7344,-4.7617,-4.8183,-4.8476,-4.8516,-4.8496,-4.8496,-4.8437,-4.7988,-4.7519,-4.7207,-4.668,-4.6348,-4.6308,-4.6308,-4.6289,-4.6289,-4.6289,-4.6289,-4.6289,-4.6289,-4.6289,-4.6289,-4.6289,-4.6289,-4.6289,-4.6289,-4.6289,-4.6289,-4.6289,-4.6289,-4.6289,-4.6289,-4.6289,-4.6289,-4.6289,-4.6289,-4.6289,-4.6289,-4.6289,-4.6289,-4.6289,-4.6289,-4.6289,-4.6289,-4.6289,-5.0683,-5.0683,-5.0683,-5.0519,-5.0135,-4.9279,-4.8432,-4.7605,-4.6778,-4.6105,-4.5652,-4.5594,-4.5594,-4.5594,-4.5594,-4.5603,-4.564,-4.5682,-4.5722,-4.5735,-4.5739,-4.5734,-4.5754,-4.5749,-4.5769,-4.5727,-4.5746,-4.5714,-4.5682,-4.5673,-4.5662,-4.5695,-4.5773,-4.5819,-4.5848,-4.5949,-4.6019,-4.6046,-4.6114,-4.6149,-4.6158,-4.619,-4.6215,-4.6231,-4.6294,-4.6288,-4.6293,-4.6294,-4.63,-4.6306,-4.6288,-4.6289,-4.6289,-4.6288,-4.6306,-4.6305,-4.6301,-4.6299,-4.6299,-4.6299,-4.6301,-4.6305,-4.6306,-4.6288,-4.6289,-4.6289,-4.6387,-4.6836,-4.7246,-4.7871,-4.8516,-4.9023,-4.9473,-4.9824,-4.9551,-4.9414,-4.9258,-4.8613,-4.8144,-4.793,-4.7363,-4.6894,-4.6777,-4.6406,-4.6328,-4.6289,-4.6289,-4.6289,-4.6289,-4.6289,-4.6289,-4.6289,-4.6289,-4.6289,-4.6289,-4.6289,-4.6289,-4.6289,-4.6289,-4.6289,-4.6289,-4.6289,-4.6289,-4.6289,-4.6289,-4.6289,-4.6289,-4.6289,-4.6289,-4.6289,-4.6289,-4.6289,-4.6289,-4.6289,-4.6289,-5.0683,-5.0683,-5.0683,-5.0231,-4.9413,-4.8548,-4.7759,-4.6894,-4.6028,-4.5671,-4.5594,-4.5594,-4.5594,-4.5594,-4.5594,-4.5631,-4.5682,-4.5684,-4.5739,-4.5778,-4.5807,-4.5807,-4.5814,-4.5854,-4.5834,-4.58,-4.5783,-4.575,-4.5698,-4.5676,-4.5688,-4.5688,-4.5764,-4.5841,-4.5911,-4.5956,-4.6056,-4.6098,-4.6162,-4.6209,-4.6209,-4.6216,-4.6232,-4.6302,-4.6291,-4.63,-4.6305,-4.6306,-4.6306,-4.6288,-4.6289,-4.6289,-4.6289,-4.6288,-4.6305,-4.6301,-4.6295,-4.6291,-4.6291,-4.6288,-4.6293,-4.63,-4.6303,-4.6345,-4.6463,-4.6562,-4.6875,-4.7578,-4.7871,-4.8496,-4.9707,-5.0195,-5.0547,-5.1113,-5.0625,-5.0293,-5.0195,-4.9473,-4.9043,-4.8828,-4.8262,-4.7637,-4.7519,-4.6855,-4.6523,-4.6289,-4.6289,-4.6289,-4.6289,-4.6289,-4.6289,-4.6289,-4.6289,-4.6289,-4.6289,-4.6289,-4.6289,-4.6289,-4.6289,-4.6289,-4.6289,-4.6289,-4.6289,-4.6289,-4.6289,-4.6289,-4.6289,-4.6289,-4.6289,-4.6289,-4.6289,-4.6289,-4.6289,-4.6289,-4.6328,-5.0683,-5.0683,-5.0683,-5.0202,-4.9336,-4.8471,-4.7625,-4.6836,-4.597,-4.5594,-4.5594,-4.5594,-4.5594,-4.5594,-4.5594,-4.564,-4.5662,-4.5684,-4.5727,-4.5807,-4.5861,-4.588,-4.588,-4.5886,-4.588,-4.5867,-4.5807,-4.5769,-4.5692,-4.57,-4.5688,-4.5708,-4.5812,-4.5919,-4.5966,-4.6037,-4.6115,-4.6169,-4.6192,-4.6216,-4.6269,-4.6261,-4.627,-4.6297,-4.6302,-4.6305,-4.6287,-4.6289,-4.6289,-4.6289,-4.6289,-4.6289,-4.6288,-4.6305,-4.63,-4.629,-4.63,-4.629,-4.6245,-4.6223,-4.6251,-4.6285,-4.6387,-4.6588,-4.7201,-4.7244,-4.7694,-4.8456,-4.9082,-4.9629,-5.0215,-5.0723,-5.1152,-5.1308,-5.1133,-5.1016,-5.0898,-5.0371,-4.9844,-4.9766,-4.9082,-4.8398,-4.7851,-4.7402,-4.6992,-4.6523,-4.6328,-4.6289,-4.6289,-4.6289,-4.6289,-4.6289,-4.6289,-4.6289,-4.6289,-4.6289,-4.6289,-4.6289,-4.6289,-4.6289,-4.6289,-4.6289,-4.6289,-4.6289,-4.6289,-4.6289,-4.6289,-4.6289,-4.6289,-4.6289,-4.6289,-4.6289,-4.6289,-4.6308,-4.6367,-5.0683,-5.0673,-5.0308,-4.9644,-4.8779,-4.7952,-4.7124,-4.6374,-4.5845,-4.5594,-4.5594,-4.5594,-4.5594,-4.5594,-4.5594,-4.5648,-4.5687,-4.5692,-4.5749,-4.5854,-4.5923,-4.5947,-4.5947,-4.5935,-4.5931,-4.5899,-4.5827,-4.5764,-4.5723,-4.5723,-4.5723,-4.5739,-4.5821,-4.5911,-4.598,-4.6065,-4.613,-4.6183,-4.6219,-4.6257,-4.6287,-4.6296,-4.6301,-4.6305,-4.6288,-4.6289,-4.6289,-4.6289,-4.6289,-4.6289,-4.6289,-4.6289,-4.6287,-4.6302,-4.6294,-4.6302,-4.6286,-4.6233,-4.6223,-4.6203,-4.6406,-4.6709,-4.6813,-4.7256,-4.7873,-4.8116,-4.8471,-4.9313,-4.9921,-5.0312,-5.0703,-5.1152,-5.1367,-5.1387,-5.1387,-5.1387,-5.1387,-5.0976,-5.0742,-5.0508,-4.998,-4.9316,-4.8672,-4.8105,-4.7461,-4.6933,-4.6504,-4.6387,-4.6289,-4.6289,-4.6289,-4.6289,-4.6289,-4.6289,-4.6289,-4.6289,-4.6289,-4.6289,-4.6289,-4.6289,-4.6289,-4.6289,-4.6289,-4.6289,-4.6289,-4.6289,-4.6289,-4.6289,-4.6289,-4.6289,-4.6289,-4.6289,-4.6289,-4.6484,-4.6523,-5.0644,-5.0471,-4.9721,-4.8836,-4.7971,-4.7221,-4.6509,-4.5729,-4.5614,-4.5614,-4.5622,-4.5622,-4.5612,-4.5603,-4.5629,-4.5662,-4.5708,-4.5715,-4.5786,-4.588,-4.5947,-4.5956,-4.5969,-4.5978,-4.5955,-4.5899,-4.5822,-4.5764,-4.5731,-4.5739,-4.5739,-4.5746,-4.5815,-4.5916,-4.6002,-4.6074,-4.6141,-4.6181,-4.6269,-4.6285,-4.6294,-4.6303,-4.6306,-4.6288,-4.6289,-4.6289,-4.6289,-4.6289,-4.6289,-4.6289,-4.6289,-4.6289,-4.6306,-4.6299,-4.6287,-4.6351,-4.6409,-4.6446,-4.6414,-4.6589,-4.6852,-4.747,-4.7627,-4.8018,-4.8693,-4.8937,-4.9296,-5.0164,-5.0288,-5.0701,-5.1132,-5.1386,-5.1387,-5.1387,-5.1387,-5.1387,-5.1387,-5.1387,-5.1387,-5.1367,-5.0703,-5.0391,-4.9824,-4.8965,-4.7812,-4.7324,-4.6914,-4.6641,-4.6445,-4.6289,-4.6289,-4.6289,-4.6289,-4.6289,-4.6289,-4.6289,-4.6289,-4.6289,-4.6289,-4.6289,-4.6289,-4.6289,-4.6289,-4.6289,-4.6289,-4.6289,-4.6289,-4.6289,-4.6289,-4.6289,-4.6289,-4.6289,-4.6328,-4.668,-4.6836,-5.021,-4.9595,-4.9471,-4.8529,-4.725,-4.6951,-4.6394,-4.5614,-4.5594,-4.5631,-4.5657,-4.5684,-4.5662,-4.5695,-4.5676,-4.5727,-4.5765,-4.5773,-4.5831,-4.588,-4.5911,-4.591,-4.5935,-4.598,-4.5955,-4.5899,-4.5841,-4.5764,-4.5712,-4.5708,-4.5715,-4.5712,-4.5826,-4.5937,-4.5997,-4.6054,-4.6137,-4.6184,-4.6271,-4.6288,-4.6297,-4.6305,-4.6288,-4.6289,-4.6289,-4.6289,-4.6289,-4.6289,-4.6288,-4.6288,-4.6327,-4.6384,-4.6322,-4.635,-4.637,-4.6479,-4.694,-4.7202,-4.7252,-4.7676,-4.8206,-4.8355,-4.8483,-4.8814,-4.9607,-4.9742,-5.0189,-5.0891,-5.1136,-5.1164,-5.1345,-5.1386,-5.1386,-5.1387,-5.1387,-5.1387,-5.1387,-5.1387,-5.1387,-5.1328,-5.1211,-5.0918,-5.0312,-5.0,-4.8965,-4.7949,-4.7363,-4.7012,-4.6777,-4.6582,-4.668,-4.6875,-4.6836,-4.6953,-4.6953,-4.6973,-4.6973,-4.6953,-4.6875,-4.6582,-4.6582,-4.6445,-4.6504,-4.6426,-4.6289,-4.6289,-4.6289,-4.6289,-4.6289,-4.6289,-4.6328,-4.6406,-4.6562,-4.6894,-4.7519,-4.9669,-4.9229,-4.85,-4.7702,-4.6904,-4.6451,-4.6028,-4.5652,-4.5594,-4.564,-4.5693,-4.5682,-4.5687,-4.5688,-4.5688,-4.5723,-4.5746,-4.5803,-4.5845,-4.588,-4.5893,-4.5892,-4.5899,-4.5912,-4.5893,-4.5854,-4.5826,-4.5754,-4.5719,-4.5676,-4.5692,-4.5696,-4.5805,-4.5906,-4.6,-4.606,-4.6138,-4.6206,-4.6267,-4.6306,-4.6294,-4.6301,-4.6305,-4.6307,-4.6288,-4.6287,-4.6307,-4.6306,-4.6304,-4.6399,-4.6651,-4.6667,-4.6467,-4.6667,-4.6813,-4.6953,-4.7552,-4.7961,-4.8147,-4.8384,-4.8778,-4.9206,-4.9226,-4.977,-5.031,-5.0591,-5.0797,-5.1213,-5.1351,-5.139,-5.1401,-5.1402,-5.1384,-5.1385,-5.1386,-5.1386,-5.1386,-5.1387,-5.1387,-5.1387,-5.1367,-5.1191,-5.0879,-5.0527,-5.0078,-4.9004,-4.8379,-4.8027,-4.8027,-4.7851,-4.7793,-4.7832,-4.7715,-4.7695,-4.7715,-4.7754,-4.7851,-4.7891,-4.793,-4.7519,-4.7207,-4.7012,-4.6797,-4.6582,-4.6289,-4.6289,-4.6289,-4.6289,-4.6289,-4.6289,-4.6367,-4.6543,-4.6855,-4.7324,-4.8144,-4.9009,-4.8758,-4.7348,-4.6762,-4.6568,-4.5904,-4.5624,-4.5614,-4.5622,-4.5657,-4.5709,-4.5717,-4.5719,-4.5723,-4.5712,-4.5723,-4.5739,-4.5776,-4.5826,-4.584,-4.5841,-4.5835,-4.5848,-4.5814,-4.5786,-4.5778,-4.5781,-4.5738,-4.5698,-4.5673,-4.569,-4.57,-4.5757,-4.5848,-4.596,-4.6047,-4.6111,-4.618,-4.6245,-4.6273,-4.628,-4.6272,-4.6278,-4.628,-4.6261,-4.628,-4.6338,-4.6434,-4.6549,-4.6544,-4.7274,-4.7249,-4.7045,-4.7226,-4.7658,-4.7696,-4.838,-4.8763,-4.886,-4.9023,-4.9425,-4.9983,-5.0045,-5.0386,-5.0967,-5.1117,-5.1191,-5.1252,-5.1344,-5.1394,-5.1393,-5.1395,-5.1395,-5.1398,-5.1402,-5.1384,-5.1386,-5.1386,-5.1387,-5.1387,-5.1387,-5.1289,-5.1133,-5.0879,-5.0527,-5.0137,-4.9512,-4.9043,-4.9023,-4.8906,-4.8691,-4.8496,-4.832,-4.8262,-4.8262,-4.834,-4.8457,-4.8594,-4.873,-4.8398,-4.793,-4.7812,-4.75,-4.6601,-4.6289,-4.6367,-4.6367,-4.6289,-4.6289,-4.6289,-4.6582,-4.6933,-4.7344,-4.7793,-4.875,-4.8204,-4.6955,-4.6789,-4.634,-4.5773,-4.5571,-4.554,-4.5614,-4.5648,-4.5671,-4.5711,-4.575,-4.5769,-4.5778,-4.5786,-4.5791,-4.5788,-4.5795,-4.5769,-4.5754,-4.5742,-4.5749,-4.5749,-4.5754,-4.5715,-4.5722,-4.5726,-4.5717,-4.5693,-4.5667,-4.5676,-4.5706,-4.5758,-4.5838,-4.5906,-4.5969,-4.6047,-4.6123,-4.6187,-4.6215,-4.6221,-4.623,-4.6296,-4.6319,-4.6358,-4.6399,-4.6534,-4.696,-4.7305,-4.7398,-4.814,-4.837,-4.8334,-4.842,-4.8526,-4.8613,-4.9204,-4.9638,-4.9653,-5.0222,-5.0629,-5.0855,-5.0817,-5.083,-5.1086,-5.1153,-5.1201,-5.128,-5.1303,-5.1339,-5.1384,-5.1392,-5.1403,-5.139,-5.1396,-5.14,-5.1384,-5.1386,-5.1386,-5.1387,-5.1387,-5.1387,-5.125,-5.1133,-5.0879,-5.0625,-5.0234,-4.9726,-4.9492,-4.9336,-4.9101,-4.8945,-4.8808,-4.8769,-4.8769,-4.8867,-4.8984,-4.9121,-4.9219,-4.9141,-4.8808,-4.8711,-4.8242,-4.7363,-4.6797,-4.6719,-4.6621,-4.6582,-4.6641,-4.6914,-4.7168,-4.7461,-4.8047,-4.8672,-4.9355,-4.7152,-4.6462,-4.6143,-4.5773,-4.5496,-4.5475,-4.5513,-4.5568,-4.5648,-4.5687,-4.5715,-4.5769,-4.5819,-4.5847,-4.5854,-4.5845,-4.5795,-4.5758,-4.5723,-4.5708,-4.5688,-4.5688,-4.568,-4.5684,-4.5687,-4.5682,-4.5676,-4.5648,-4.564,-4.5622,-4.5659,-4.5701,-4.573,-4.5773,-4.5866,-4.5918,-4.598,-4.6047,-4.6111,-4.6165,-4.618,-4.6209,-4.6376,-4.6727,-4.6866,-4.7059,-4.7527,-4.7794,-4.8116,-4.8282,-4.892,-4.9277,-4.944,-4.963,-4.9711,-4.9504,-5.0001,-5.0435,-5.0414,-5.0845,-5.092,-5.0978,-5.1039,-5.1048,-5.1043,-5.1088,-5.1142,-5.1235,-5.13,-5.1312,-5.134,-5.1358,-5.135,-5.136,-5.1377,-5.1389,-5.1395,-5.1402,-5.1385,-5.1386,-5.1387,-5.1387,-5.1387,-5.1269,-5.1172,-5.1016,-5.084,-5.0488,-5.0058,-4.9961,-4.9824,-4.9883,-4.9863,-4.9844,-4.9805,-4.9785,-4.9766,-4.9824,-4.9844,-4.9785,-4.9668,-4.957,-4.9004,-4.8203,-4.7754,-4.7656,-4.7676,-4.7891,-4.7734,-4.7578,-4.7988,-4.8437,-4.8984,-4.9609,-5.0195,-4.6149,-4.6129,-4.5511,-4.5279,-4.539,-4.5448,-4.5514,-4.555,-4.5637,-4.5711,-4.5719,-4.5805,-4.5854,-4.588,-4.5893,-4.5859,-4.5773,-4.5715,-4.57,-4.5695,-4.5668,-4.5657,-4.5668,-4.569,-4.5684,-4.5657,-4.564,-4.5594,-4.5594,-4.5594,-4.5631,-4.5676,-4.5673,-4.5703,-4.5776,-4.5847,-4.5918,-4.5983,-4.6047,-4.6123,-4.634,-4.661,-4.6968,-4.7548,-4.765,-4.7965,-4.8394,-4.8803,-4.8931,-4.9166,-4.9644,-5.0153,-5.0239,-5.0726,-5.0759,-5.0358,-5.0706,-5.093,-5.0966,-5.0959,-5.0971,-5.0998,-5.1005,-5.102,-5.1034,-5.1069,-5.112,-5.1175,-5.1225,-5.1269,-5.1276,-5.1281,-5.128,-5.1297,-5.1344,-5.1388,-5.14,-5.1391,-5.1401,-5.1385,-5.1386,-5.1387,-5.1387,-5.1387,-5.1269,-5.1269,-5.1094,-5.1113,-5.0781,-5.0918,-5.0898,-5.1035,-5.1074,-5.1074,-5.1016,-5.0898,-5.082,-5.0762,-5.0742,-5.0703,-5.0566,-5.043,-4.9805,-4.9316,-4.9433,-4.9375,-4.9316,-4.8906,-4.8496,-4.8418,-4.8887,-4.9297,-4.9629,-5.0117,-5.0703,-4.5603,-4.5095,-4.506,-4.5148,-4.5298,-4.5389,-4.5486,-4.5586,-4.566,-4.5727,-4.5786,-4.5854,-4.5899,-4.5912,-4.5893,-4.5826,-4.5746,-4.5708,-4.5668,-4.5637,-4.5629,-4.562,-4.5631,-4.5603,-4.5785,-4.5862,-4.5787,-4.5594,-4.5806,-4.5806,-4.5671,-4.5727,-4.5811,-4.5717,-4.573,-4.5931,-4.5834,-4.5938,-4.6038,-4.6452,-4.7134,-4.7819,-4.8188,-4.8407,-4.8481,-4.8594,-4.8963,-4.9449,-4.9755,-4.9847,-5.0503,-5.09,-5.0979,-5.0958,-5.0988,-5.0918,-5.0995,-5.106,-5.1012,-5.1027,-5.1053,-5.1053,-5.1067,-5.1094,-5.1067,-5.1067,-5.1108,-5.1121,-5.1126,-5.115,-5.1194,-5.1206,-5.1243,-5.1277,-5.1303,-5.1341,-5.1364,-5.14,-5.1394,-5.1401,-5.1384,-5.1386,-5.1387,-5.1387,-5.1387,-5.1387,-5.1387,-5.1387,-5.1387,-5.1387,-5.1387,-5.1387,-5.1387,-5.1387,-5.1387,-5.1387,-5.1387,-5.1387,-5.1367,-5.1348,-5.1133,-5.0937,-5.1094,-5.0781,-5.082,-5.0449,-4.9863,-4.9394,-4.9062,-4.9258,-4.9766,-4.9961,-5.0078,-5.0625,-5.1133,-4.4866,-4.4815,-4.4895,-4.5026,-4.5192,-4.5338,-4.5458,-4.5568,-4.5703,-4.5776,-4.5821,-4.5931,-4.596,-4.5949,-4.5925,-4.5821,-4.5712,-4.5688,-4.566,-4.565,-4.5614,-4.5614,-4.5748,-4.6086,-4.6336,-4.6432,-4.6778,-4.7124,-4.6894,-4.6547,-4.6336,-4.6345,-4.6343,-4.6119,-4.6001,-4.6213,-4.6422,-4.6682,-4.7062,-4.7534,-4.7934,-4.8354,-4.8793,-4.9239,-4.9258,-4.9497,-4.9943,-5.0273,-5.0584,-5.061,-5.0945,-5.0961,-5.0974,-5.0956,-5.0937,-5.0945,-5.1039,-5.106,-5.1039,-5.1081,-5.1095,-5.1088,-5.1095,-5.1095,-5.1067,-5.1046,-5.1039,-5.1,-5.1062,-5.1089,-5.1095,-5.1132,-5.1153,-5.1181,-5.1228,-5.1292,-5.1333,-5.1386,-5.1384,-5.1394,-5.1401,-5.1384,-5.1386,-5.1387,-5.1387,-5.1387,-5.1387,-5.1387,-5.1387,-5.1387,-5.1387,-5.1387,-5.1387,-5.1387,-5.1387,-5.1387,-5.1387,-5.1387,-5.1387,-5.1367,-5.1387,-5.1348,-5.1387,-5.1387,-5.1191,-5.0762,-5.0254,-5.0215,-5.0195,-5.0391,-5.0625,-5.0664,-5.0683,-5.0879,-5.1289,-4.4358,-4.46,-4.4757,-4.4919,-4.5091,-4.5297,-4.5448,-4.5559,-4.5719,-4.5824,-4.5945,-4.6172,-4.6283,-4.6088,-4.6125,-4.6125,-4.5688,-4.5688,-4.5651,-4.5659,-4.5817,-4.596,-4.6259,-4.6759,-4.7201,-4.7201,-4.7605,-4.8029,-4.8144,-4.7894,-4.7509,-4.724,-4.7201,-4.6931,-4.6669,-4.6915,-4.7284,-4.7399,-4.8176,-4.8592,-4.8754,-4.8989,-4.9488,-4.9863,-5.0141,-5.038,-5.0942,-5.1,-5.0981,-5.0966,-5.0902,-5.0882,-5.0874,-5.0905,-5.0916,-5.094,-5.1017,-5.1087,-5.1074,-5.1089,-5.1108,-5.1102,-5.1082,-5.1095,-5.1034,-5.1005,-5.0968,-5.0917,-5.0941,-5.0983,-5.0998,-5.1022,-5.1056,-5.1099,-5.1136,-5.1205,-5.1312,-5.1476,-5.1499,-5.1384,-5.1393,-5.1399,-5.1383,-5.1386,-5.1387,-5.1387,-5.1387,-5.1387,-5.1387,-5.1387,-5.1387,-5.1387,-5.1387,-5.1387,-5.1387,-5.1387,-5.1387,-5.1387,-5.1387,-5.1387,-5.1387,-5.1387,-5.1387,-5.1387,-5.1387,-5.123,-5.082,-5.1113,-5.1387,-5.1172,-5.1035,-5.1191,-5.1308,-5.1387,-5.1387,-4.4259,-4.4325,-4.4575,-4.4808,-4.5014,-4.5233,-4.5429,-4.5594,-4.5773,-4.5989,-4.6335,-4.6818,-4.6837,-4.6443,-4.6764,-4.664,-4.5804,-4.5708,-4.5883,-4.6093,-4.6355,-4.674,-4.7086,-4.7528,-4.8029,-4.8048,-4.8413,-4.8836,-4.9125,-4.9183,-4.8644,-4.8144,-4.8105,-4.8009,-4.7874,-4.7862,-4.8244,-4.8461,-4.9112,-4.9429,-4.9661,-4.9997,-5.0516,-5.0593,-5.0745,-5.0858,-5.0897,-5.0905,-5.0913,-5.0913,-5.0863,-5.0819,-5.0819,-5.0846,-5.0874,-5.0897,-5.0995,-5.1046,-5.1074,-5.1133,-5.1194,-5.1171,-5.1121,-5.1088,-5.1067,-5.0945,-5.0897,-5.0888,-5.0877,-5.0957,-5.0955,-5.0937,-5.1179,-5.1534,-5.1741,-5.1786,-5.1862,-5.1767,-5.1746,-5.1479,-5.1576,-5.1856,-5.1709,-5.1792,-5.1483,-5.1465,-5.1387,-5.1387,-5.1387,-5.1387,-5.1387,-5.1387,-5.1387,-5.1387,-5.1387,-5.1387,-5.1387,-5.1387,-5.1387,-5.1387,-5.1387,-5.1387,-5.1387,-5.1387,-5.1387,-5.1387,-5.1387,-5.1387,-5.1387,-5.1387,-5.1387,-5.1387,-5.1387,-5.1387,-5.1387,-4.4524,-4.5043,-4.5242,-4.5172,-4.4962,-4.5211,-4.5409,-4.5699,-4.6298,-4.7036,-4.7621,-4.7976,-4.796,-4.7742,-4.7702,-4.7748,-4.7317,-4.7248,-4.7139,-4.7219,-4.749,-4.7615,-4.7932,-4.8375,-4.8894,-4.9009,-4.9356,-4.9779,-5.0164,-5.0164,-5.0067,-4.9663,-4.924,-4.8529,-4.8403,-4.8797,-4.9268,-4.9758,-5.0075,-5.0247,-5.0324,-5.0514,-5.0821,-5.0821,-5.081,-5.0846,-5.0827,-5.0846,-5.0846,-5.0829,-5.0794,-5.0757,-5.0729,-5.0775,-5.0793,-5.0866,-5.0964,-5.1075,-5.1125,-5.1178,-5.1203,-5.1181,-5.114,-5.1152,-5.1261,-5.103,-5.0899,-5.0827,-5.0917,-5.114,-5.1536,-5.1655,-5.1857,-5.2307,-5.2509,-5.2492,-5.25,-5.2431,-5.2483,-5.2448,-5.2635,-5.2904,-5.2589,-5.227,-5.1869,-5.1523,-5.1445,-5.1387,-5.1387,-5.1387,-5.1387,-5.1387,-5.1387,-5.1387,-5.1387,-5.1387,-5.1387,-5.1387,-5.1387,-5.1387,-5.1387,-5.1387,-5.1387,-5.1387,-5.1387,-5.1387,-5.1387,-5.1387,-5.1387,-5.1387,-5.1387,-5.1387,-5.1387,-5.1387,-5.1387,-4.5126,-4.5941,-4.6158,-4.601,-4.5709,-4.5927,-4.6157,-4.6476,-4.7167,-4.7895,-4.8701,-4.8842,-4.881,-4.8675,-4.8767,-4.845,-4.8172,-4.8053,-4.8047,-4.8115,-4.8212,-4.8414,-4.8769,-4.924,-4.9798,-4.9952,-5.026,-5.0644,-5.0616,-5.0914,-5.0971,-5.0875,-5.0683,-5.0067,-4.9356,-4.9721,-5.0567,-5.1231,-5.1443,-5.1443,-5.1511,-5.1558,-5.1615,-5.1654,-5.1692,-5.1442,-5.1345,-5.123,-5.1037,-5.0874,-5.072,-5.0702,-5.0702,-5.0692,-5.072,-5.085,-5.1093,-5.1281,-5.138,-5.1464,-5.168,-5.2082,-5.2007,-5.1932,-5.1772,-5.1683,-5.1831,-5.172,-5.1663,-5.1741,-5.2339,-5.2443,-5.2564,-5.2934,-5.3104,-5.3129,-5.3243,-5.3246,-5.3423,-5.352,-5.3615,-5.3533,-5.3413,-5.2985,-5.2317,-5.1853,-5.1445,-5.1387,-5.1387,-5.1387,-5.1387,-5.1387,-5.1387,-5.1387,-5.1387,-5.1387,-5.1387,-5.1387,-5.1387,-5.1387,-5.1387,-5.1387,-5.1387,-5.1387,-5.1387,-5.1387,-5.1387,-5.1387,-5.1387,-5.1387,-5.1387,-5.1387,-5.1387,-5.1387,-5.1387,-4.6127,-4.6961,-4.7192,-4.7307,-4.7365,-4.7613,-4.7789,-4.7895,-4.8256,-4.8573,-4.8967,-4.9551,-4.9448,-4.9033,-4.9434,-4.9233,-4.8641,-4.8413,-4.8356,-4.8558,-4.9038,-4.9269,-4.9606,-5.0067,-5.0404,-5.0606,-5.0712,-5.0712,-5.0818,-5.1375,-5.1673,-5.2068,-5.2125,-5.1933,-5.0818,-5.1433,-5.225,-5.2953,-5.2953,-5.2886,-5.2828,-5.278,-5.2771,-5.2752,-5.2733,-5.2405,-5.2059,-5.1924,-5.1703,-5.1328,-5.1174,-5.1145,-5.1106,-5.1077,-5.1058,-5.1047,-5.176,-5.2128,-5.2237,-5.2293,-5.2698,-5.3152,-5.2942,-5.3004,-5.3219,-5.3189,-5.2905,-5.2617,-5.282,-5.2934,-5.3156,-5.3244,-5.3388,-5.3685,-5.39,-5.4014,-5.4149,-5.4238,-5.442,-5.4594,-5.4227,-5.3927,-5.3936,-5.3698,-5.2919,-5.2263,-5.1621,-5.1406,-5.1465,-5.1406,-5.1406,-5.1387,-5.1387,-5.1387,-5.1387,-5.1387,-5.1387,-5.1387,-5.1387,-5.1387,-5.1387,-5.1387,-5.1387,-5.1387,-5.1387,-5.1387,-5.1387,-5.1387,-5.1387,-5.1387,-5.1387,-5.1387,-5.1387,-5.1387,-5.1387,-4.7113,-4.7933,-4.8191,-4.8669,-4.906,-4.8217,-4.7991,-4.8312,-4.9012,-4.972,-5.0264,-5.0648,-5.0557,-5.0324,-5.0178,-5.0091,-4.9769,-4.969,-4.9649,-4.9649,-4.9939,-5.0123,-5.0326,-5.0433,-5.0702,-5.0712,-5.0731,-5.1087,-5.1548,-5.2,-5.2365,-5.275,-5.3183,-5.2876,-5.2529,-5.2702,-5.2972,-5.3145,-5.3164,-5.3183,-5.3222,-5.326,-5.3299,-5.3318,-5.3337,-5.3145,-5.2818,-5.276,-5.2529,-5.2222,-5.2125,-5.2164,-5.2183,-5.2194,-5.2261,-5.2329,-5.2895,-5.324,-5.3595,-5.384,-5.3696,-5.3762,-5.3704,-5.3672,-5.3511,-5.3377,-5.3321,-5.3359,-5.3464,-5.3606,-5.3925,-5.4052,-5.4285,-5.4959,-5.5229,-5.5283,-5.5352,-5.5365,-5.5467,-5.565,-5.5503,-5.5054,-5.4881,-5.4604,-5.3892,-5.3316,-5.2772,-5.1972,-5.1816,-5.1562,-5.1445,-5.1406,-5.1387,-5.1387,-5.1426,-5.166,-5.166,-5.1621,-5.1523,-5.1387,-5.1387,-5.1387,-5.1387,-5.1387,-5.1387,-5.1387,-5.1387,-5.1387,-5.1387,-5.1387,-5.1387,-5.1387,-5.1387,-5.1387,-5.1387,-4.8205,-4.8959,-4.9227,-4.9692,-5.0096,-4.9235,-4.897,-4.9324,-5.0028,-5.0681,-5.1058,-5.1081,-5.0972,-5.0863,-5.0763,-5.0635,-5.0495,-5.0399,-5.0396,-5.0427,-5.044,-5.0464,-5.0535,-5.0701,-5.0932,-5.0981,-5.1202,-5.1548,-5.2375,-5.2702,-5.3337,-5.3972,-5.4068,-5.4164,-5.401,-5.3895,-5.3857,-5.4087,-5.4299,-5.426,-5.4222,-5.4184,-5.4164,-5.4184,-5.4126,-5.3991,-5.3741,-5.3606,-5.351,-5.3356,-5.3241,-5.3241,-5.3241,-5.3222,-5.3242,-5.3262,-5.3648,-5.414,-5.4785,-5.5026,-5.481,-5.4581,-5.4334,-5.4308,-5.429,-5.44,-5.4333,-5.4254,-5.4012,-5.4309,-5.4733,-5.487,-5.5122,-5.5748,-5.5788,-5.5798,-5.5844,-5.5822,-5.5863,-5.6097,-5.6207,-5.5905,-5.5712,-5.5388,-5.4921,-5.4445,-5.3963,-5.3163,-5.2402,-5.2187,-5.207,-5.209,-5.2187,-5.2402,-5.2344,-5.2168,-5.2109,-5.1875,-5.1758,-5.166,-5.1387,-5.1387,-5.1387,-5.1387,-5.1387,-5.1387,-5.1387,-5.1387,-5.1387,-5.1387,-5.1387,-5.1387,-5.1387,-5.1387,-5.1387,-4.929,-4.9987,-5.0212,-5.0363,-5.0483,-5.0433,-5.0673,-5.1004,-5.1125,-5.1136,-5.1082,-5.1017,-5.0925,-5.0763,-5.0596,-5.0432,-5.0337,-5.0243,-5.0255,-5.029,-5.0317,-5.0446,-5.0589,-5.0737,-5.1162,-5.1644,-5.2019,-5.2414,-5.326,-5.4164,-5.4972,-5.5511,-5.5703,-5.5761,-5.5588,-5.5395,-5.5203,-5.5241,-5.5203,-5.5164,-5.5145,-5.5338,-5.5241,-5.5222,-5.5222,-5.4953,-5.4703,-5.4491,-5.4126,-5.3799,-5.3472,-5.3433,-5.3376,-5.3318,-5.3299,-5.354,-5.4196,-5.494,-5.5509,-5.5634,-5.5663,-5.5422,-5.5577,-5.573,-5.5605,-5.5334,-5.5197,-5.5215,-5.5156,-5.5348,-5.5579,-5.557,-5.5562,-5.5756,-5.5776,-5.5827,-5.5885,-5.5903,-5.5938,-5.6067,-5.6232,-5.6164,-5.6215,-5.599,-5.5636,-5.5477,-5.5075,-5.4823,-5.4082,-5.3437,-5.334,-5.332,-5.3457,-5.3691,-5.3496,-5.3008,-5.2851,-5.2734,-5.2305,-5.2109,-5.1777,-5.1543,-5.1582,-5.1582,-5.1445,-5.1387,-5.1387,-5.1387,-5.1387,-5.1387,-5.1406,-5.1387,-5.1387,-5.1387,-5.1387,-4.9973,-5.0231,-5.0371,-5.0502,-5.0586,-5.078,-5.0975,-5.1107,-5.1165,-5.1171,-5.1095,-5.0981,-5.0858,-5.071,-5.0472,-5.0294,-5.0194,-5.012,-5.012,-5.0177,-5.0319,-5.042,-5.0711,-5.1158,-5.1594,-5.2067,-5.2577,-5.3318,-5.4337,-5.5464,-5.6252,-5.6618,-5.7049,-5.7319,-5.7319,-5.728,-5.6588,-5.6069,-5.5953,-5.5953,-5.5895,-5.5934,-5.5915,-5.5915,-5.5953,-5.5703,-5.5568,-5.5376,-5.5107,-5.503,-5.4934,-5.4953,-5.4972,-5.4972,-5.4972,-5.5011,-5.5282,-5.5504,-5.5707,-5.5775,-5.5775,-5.5805,-5.5766,-5.5776,-5.5766,-5.5775,-5.5724,-5.5714,-5.5684,-5.5684,-5.5684,-5.5714,-5.5724,-5.5735,-5.5745,-5.5796,-5.5836,-5.5866,-5.5903,-5.6035,-5.6204,-5.6314,-5.6405,-5.6407,-5.6094,-5.6177,-5.6128,-5.5897,-5.5586,-5.4863,-5.4512,-5.4492,-5.4433,-5.457,-5.4219,-5.375,-5.3672,-5.3555,-5.3105,-5.2715,-5.2519,-5.2285,-5.1992,-5.1758,-5.1562,-5.1465,-5.1387,-5.1387,-5.1387,-5.1406,-5.1406,-5.1406,-5.1406,-5.1426,-5.1406,-5.0348,-5.0401,-5.0519,-5.0595,-5.072,-5.0933,-5.106,-5.1107,-5.1172,-5.1153,-5.1049,-5.0929,-5.0791,-5.0605,-5.0359,-5.0158,-5.0012,-4.9965,-4.9965,-5.0139,-5.0544,-5.0853,-5.1253,-5.1847,-5.2553,-5.296,-5.353,-5.4357,-5.5491,-5.6626,-5.7492,-5.755,-5.8146,-5.8242,-5.8173,-5.7992,-5.7665,-5.7146,-5.6819,-5.6722,-5.6665,-5.6646,-5.6703,-5.6646,-5.6646,-5.6646,-5.6588,-5.6453,-5.6233,-5.6107,-5.6022,-5.5684,-5.578,-5.5934,-5.6492,-5.6569,-5.678,-5.6579,-5.6445,-5.6291,-5.606,-5.5838,-5.5761,-5.5705,-5.5735,-5.5724,-5.5714,-5.5684,-5.5684,-5.5684,-5.5684,-5.5684,-5.5684,-5.5695,-5.5714,-5.5724,-5.5756,-5.5776,-5.5885,-5.6018,-5.6158,-5.6288,-5.6383,-5.6448,-5.6494,-5.6424,-5.6418,-5.6384,-5.6191,-5.582,-5.5566,-5.5508,-5.539,-5.5312,-5.4922,-5.4629,-5.4531,-5.4336,-5.3848,-5.3516,-5.3301,-5.3066,-5.2832,-5.2266,-5.166,-5.1641,-5.168,-5.1445,-5.1387,-5.1523,-5.1816,-5.2012,-5.1894,-5.1562,-5.1523,-5.0511,-5.0511,-5.0573,-5.0693,-5.0829,-5.101,-5.1094,-5.1107,-5.1166,-5.1128,-5.0993,-5.0855,-5.0682,-5.0472,-5.0231,-5.0044,-5.002,-5.0014,-5.022,-5.0176,-5.1135,-5.1603,-5.2047,-5.2697,-5.3388,-5.4152,-5.4895,-5.5588,-5.6896,-5.7877,-5.8377,-5.8396,-5.8646,-5.8838,-5.8934,-5.8896,-5.8761,-5.8627,-5.8415,-5.8338,-5.8088,-5.8154,-5.8288,-5.8154,-5.8115,-5.8127,-5.7973,-5.7607,-5.7099,-5.683,-5.6541,-5.6107,-5.6357,-5.6703,-5.7473,-5.778,-5.7877,-5.7607,-5.7242,-5.7107,-5.6742,-5.6376,-5.5934,-5.6214,-5.6426,-5.5868,-5.5733,-5.5703,-5.5684,-5.5684,-5.5684,-5.5684,-5.5684,-5.5684,-5.5714,-5.5714,-5.5724,-5.5776,-5.5885,-5.602,-5.6136,-5.6264,-5.6359,-5.6426,-5.6484,-5.6516,-5.6551,-5.6597,-5.6543,-5.6367,-5.6289,-5.623,-5.6094,-5.5918,-5.5937,-5.5664,-5.5469,-5.5156,-5.4707,-5.4355,-5.418,-5.3945,-5.3691,-5.3105,-5.2539,-5.2148,-5.2012,-5.2051,-5.2168,-5.2207,-5.248,-5.2734,-5.2558,-5.2246,-5.2187,-5.0582,-5.0573,-5.0712,-5.0766,-5.0819,-5.1017,-5.1081,-5.1081,-5.1128,-5.1082,-5.0971,-5.0808,-5.0606,-5.0396,-5.0234,-5.006,-5.0014,-5.0549,-5.0775,-5.122,-5.1921,-5.2462,-5.2882,-5.3686,-5.426,-5.4806,-5.5665,-5.6915,-5.7915,-5.8723,-5.9242,-5.93,-5.9608,-5.9935,-5.9954,-5.9954,-5.9935,-5.9877,-5.9858,-5.9338,-5.8665,-5.8396,-5.8288,-5.8377,-5.8415,-5.8492,-5.8377,-5.8204,-5.7992,-5.7896,-5.7838,-5.7723,-5.7723,-5.7896,-5.8088,-5.828,-5.8492,-5.8319,-5.8107,-5.7973,-5.7742,-5.7684,-5.753,-5.7646,-5.7338,-5.6319,-5.578,-5.5799,-5.5799,-5.5818,-5.5818,-5.5818,-5.578,-5.5761,-5.5684,-5.5684,-5.5695,-5.5797,-5.5895,-5.6003,-5.6114,-5.6227,-5.6328,-5.6409,-5.6472,-5.6526,-5.6566,-5.6621,-5.6621,-5.6504,-5.6484,-5.6445,-5.6484,-5.6445,-5.6504,-5.6426,-5.6094,-5.6074,-5.5801,-5.5449,-5.5078,-5.457,-5.4141,-5.3926,-5.3535,-5.3086,-5.2949,-5.334,-5.3398,-5.3125,-5.332,-5.3613,-5.375,-5.3535,-5.3476,-5.0643,-5.0653,-5.0748,-5.0821,-5.0827,-5.0975,-5.1034,-5.106,-5.1042,-5.1027,-5.0945,-5.0784,-5.0576,-5.0474,-5.0431,-5.0451,-5.0511,-5.1249,-5.1618,-5.2069,-5.2748,-5.3275,-5.3931,-5.4772,-5.5434,-5.6019,-5.7319,-5.8454,-5.8915,-5.9608,-6.0108,-6.0127,-6.0627,-6.08,-6.08,-6.08,-6.08,-6.0742,-6.08,-6.0223,-5.9319,-5.9338,-5.9396,-5.9415,-5.9377,-5.9338,-5.9223,-5.9127,-5.8838,-5.8665,-5.8454,-5.855,-5.8607,-5.88,-5.9069,-5.9358,-5.9473,-5.9242,-5.8973,-5.8819,-5.8704,-5.8569,-5.8338,-5.8127,-5.8069,-5.7203,-5.7146,-5.7146,-5.7146,-5.7165,-5.6953,-5.6915,-5.6579,-5.6445,-5.6002,-5.5684,-5.5735,-5.5816,-5.5876,-5.594,-5.6075,-5.6233,-5.6331,-5.6435,-5.6482,-5.6504,-5.6564,-5.6616,-5.6621,-5.6621,-5.6621,-5.6621,-5.6621,-5.6621,-5.6582,-5.6562,-5.6484,-5.6562,-5.6621,-5.6289,-5.5762,-5.5078,-5.457,-5.4551,-5.4336,-5.3867,-5.3887,-5.4238,-5.4062,-5.3672,-5.4043,-5.4551,-5.4648,-5.4785,-5.4863,-5.0683,-5.0702,-5.0748,-5.0793,-5.0819,-5.0933,-5.1005,-5.0986,-5.1005,-5.096,-5.0938,-5.0892,-5.068,-5.0738,-5.0939,-5.1117,-5.1509,-5.2233,-5.2574,-5.2987,-5.3779,-5.4407,-5.5178,-5.6007,-5.6648,-5.7489,-5.8627,-5.9242,-5.9704,-6.03,-6.0627,-6.0762,-6.08,-6.08,-6.08,-6.08,-6.08,-6.08,-6.08,-6.08,-6.0742,-6.08,-6.0627,-6.0666,-6.08,-6.08,-6.0512,-6.0204,-5.9723,-5.9511,-5.9223,-5.9319,-5.9473,-5.9704,-6.0012,-6.0281,-6.0396,-6.0127,-5.9858,-5.9685,-5.9319,-5.8954,-5.8665,-5.8588,-5.8607,-5.8607,-5.855,-5.8492,-5.8492,-5.8165,-5.7953,-5.7742,-5.7376,-5.7022,-5.6445,-5.5915,-5.5968,-5.5912,-5.5876,-5.5923,-5.6043,-5.6206,-5.6314,-5.6417,-5.6468,-5.6497,-5.6543,-5.6576,-5.6621,-5.6621,-5.6621,-5.6621,-5.6621,-5.6621,-5.6621,-5.6621,-5.6621,-5.6621,-5.6621,-5.6621,-5.6445,-5.582,-5.543,-5.539,-5.5117,-5.4824,-5.4687,-5.4883,-5.459,-5.4414,-5.4922,-5.5469,-5.5527,-5.5723,-5.6152,-5.0683,-5.0693,-5.073,-5.0738,-5.081,-5.0901,-5.0956,-5.0998,-5.0941,-5.0901,-5.1067,-5.1462,-5.1542,-5.1366,-5.1388,-5.1681,-5.242,-5.3207,-5.3625,-5.3938,-5.4747,-5.5559,-5.6318,-5.699,-5.7812,-5.8681,-5.9454,-5.9819,-6.0185,-6.0589,-6.08,-6.08,-6.08,-6.08,-6.08,-6.08,-6.08,-6.08,-6.08,-6.08,-6.08,-6.08,-6.08,-6.08,-6.08,-6.08,-6.0704,-6.0646,-6.0569,-6.0492,-6.0339,-6.0281,-6.03,-6.0377,-6.0569,-6.0646,-6.08,-6.0685,-6.0396,-6.0339,-5.9973,-6.0031,-5.9915,-5.9973,-5.9992,-6.0012,-5.9915,-5.9762,-5.9511,-5.8704,-5.8415,-5.8319,-5.803,-5.7723,-5.7261,-5.6868,-5.6659,-5.6277,-5.5962,-5.5991,-5.604,-5.6156,-5.6233,-5.6329,-5.6437,-5.6489,-5.6563,-5.6595,-5.6619,-5.6621,-5.6621,-5.6621,-5.6621,-5.6621,-5.6621,-5.6621,-5.6621,-5.6621,-5.6621,-5.6621,-5.6601,-5.6562,-5.6308,-5.6035,-5.6133,-5.6035,-5.5937,-5.5566,-5.5762,-5.5723,-5.6035,-5.6367,-5.6367,-5.6367,-5.6543]},{"header":{"parameterUnit":"m.s-1","parameterCategory":1,"la1":31.0,"la2":29.5877,"lo1":-88.7671,"lo2":-86.6584,"dy":0.0162,"dx":0.0185,"nx":115,"ny":88,"refTime":"2023-03-02T18:00:00:Z","depth":0,"parameterNumber":3,"parameterNumberName":"V-component_of_WINDS"},"data":[0.0,0.0,0.0,0.0,0.0,0.0,0.0,0.0,0.0,0.0,0.0,0.0,0.0,0.0,0.0,0.0,0.0,0.0,0.0,0.0,0.0,0.0,0.0,0.0,0.0,0.0,0.0,0.0,0.0,0.0,0.0,0.0,0.0,0.0,0.0,0.0,0.0,0.0,0.0,0.0,0.0,-0.9969,-0.9969,-1.0068,-1.0136,-1.0527,-1.1123,0.0,0.0,0.0,0.0,0.0,0.0,0.0,0.0,0.0,0.0,0.0,0.0,0.0,0.0,0.0,0.0,0.0,0.0,0.0,0.0,0.0,0.0,0.0,0.0,0.0,0.0,0.0,0.0,0.0,0.0,0.0,0.0,0.0,0.0,0.0,0.0,0.0,0.0,0.0,0.0,0.0,0.0,0.0,0.0,0.0,0.0,0.0,0.0,0.0,0.0,0.0,0.0,0.0,0.0,0.0,0.0,0.0,0.0,0.0,0.0,0.0,0.0,0.0,0.0,0.0,0.0,0.0,0.0,0.0,0.0,0.0,0.0,0.0,0.0,0.0,0.0,0.0,0.0,0.0,0.0,0.0,0.0,0.0,0.0,0.0,0.0,0.0,0.0,0.0,0.0,0.0,0.0,0.0,0.0,0.0,0.0,0.0,0.0,0.0,0.0,0.0,0.0,0.0,0.0,0.0,0.0,0.0,0.0,0.0,0.0,-0.9305,-0.9565,-0.9769,-1.0268,-1.1047,0.0,0.0,0.0,0.0,0.0,0.0,0.0,0.0,0.0,0.0,0.0,0.0,0.0,0.0,0.0,0.0,0.0,0.0,0.0,0.0,0.0,0.0,0.0,0.0,0.0,0.0,0.0,0.0,0.0,0.0,0.0,0.0,0.0,0.0,0.0,0.0,0.0,0.0,0.0,0.0,0.0,0.0,0.0,0.0,0.0,0.0,0.0,0.0,0.0,0.0,0.0,0.0,0.0,0.0,0.0,0.0,0.0,0.0,0.0,0.0,0.0,0.0,0.0,0.0,0.0,0.0,0.0,0.0,0.0,0.0,0.0,0.0,0.0,0.0,0.0,0.0,0.0,0.0,0.0,0.0,0.0,0.0,0.0,0.0,0.0,0.0,0.0,0.0,0.0,0.0,0.0,0.0,0.0,0.0,0.0,0.0,0.0,0.0,0.0,0.0,0.0,0.0,0.0,0.0,0.0,0.0,0.0,0.0,0.0,0.0,-0.912,-0.9232,-0.9539,-1.0043,-1.072,0.0,0.0,0.0,0.0,0.0,0.0,0.0,0.0,0.0,0.0,0.0,0.0,0.0,0.0,0.0,0.0,0.0,0.0,0.0,0.0,0.0,0.0,0.0,0.0,0.0,0.0,0.0,0.0,0.0,0.0,0.0,0.0,0.0,0.0,0.0,0.0,0.0,0.0,0.0,0.0,0.0,0.0,0.0,0.0,0.0,0.0,0.0,0.0,0.0,0.0,0.0,0.0,0.0,0.0,0.0,0.0,0.0,0.0,0.0,0.0,0.0,0.0,0.0,0.0,0.0,0.0,0.0,0.0,0.0,0.0,0.0,0.0,0.0,0.0,0.0,0.0,0.0,0.0,0.0,0.0,0.0,0.0,0.0,0.0,0.0,0.0,0.0,0.0,0.0,0.0,0.0,0.0,0.0,0.0,0.0,0.0,0.0,0.0,0.0,0.0,0.0,0.0,0.0,0.0,0.0,0.0,0.0,0.0,0.0,0.0,-0.8616,-0.8721,-0.9306,-0.9904,-1.0485,-1.1415,0.0,0.0,0.0,0.0,0.0,0.0,0.0,0.0,0.0,0.0,0.0,0.0,0.0,0.0,0.0,0.0,0.0,0.0,0.0,0.0,0.0,0.0,0.0,0.0,0.0,0.0,0.0,0.0,0.0,0.0,0.0,0.0,0.0,0.0,0.0,0.0,0.0,0.0,0.0,0.0,0.0,0.0,0.0,0.0,0.0,0.0,0.0,0.0,0.0,0.0,0.0,0.0,0.0,0.0,0.0,0.0,0.0,0.0,0.0,0.0,0.0,0.0,0.0,0.0,0.0,0.0,0.0,0.0,0.0,0.0,0.0,0.0,0.0,0.0,0.0,0.0,0.0,0.0,0.0,0.0,0.0,0.0,0.0,0.0,0.0,0.0,0.0,0.0,0.0,0.0,0.0,0.0,0.0,0.0,0.0,0.0,0.0,0.0,0.0,0.0,0.0,0.0,0.0,0.0,0.0,0.0,0.0,0.0,0.0,-0.7988,-0.8336,-0.9069,-0.9754,-1.0345,-1.1359,0.0,0.0,0.0,0.0,0.0,0.0,0.0,0.0,0.0,0.0,0.0,0.0,0.0,0.0,0.0,0.0,0.0,0.0,0.0,0.0,0.0,0.0,0.0,0.0,0.0,0.0,0.0,0.0,0.0,0.0,0.0,0.0,0.0,0.0,0.0,0.0,0.0,0.0,0.0,0.0,0.0,0.0,0.0,0.0,0.0,0.0,0.0,0.0,0.0,0.0,0.0,0.0,0.0,0.0,0.0,0.0,0.0,0.0,0.0,0.0,0.0,0.0,0.0,0.0,0.0,0.0,0.0,0.0,0.0,0.0,0.0,0.0,0.0,0.0,0.0,0.0,0.0,0.0,0.0,0.0,0.0,0.0,0.0,0.0,0.0,0.0,0.0,0.0,0.0,0.0,0.0,0.0,0.0,0.0,0.0,0.0,0.0,0.0,0.0,0.0,0.0,0.0,0.0,0.0,0.0,0.0,0.0,0.0,0.0,-0.7871,-0.8304,-0.8794,-0.9428,-1.0265,-1.1168,0.0,0.0,0.0,0.0,0.0,0.0,0.0,0.0,0.0,0.0,0.0,0.0,0.0,0.0,0.0,0.0,0.0,0.0,0.0,0.0,0.0,0.0,0.0,0.0,0.0,0.0,0.0,0.0,0.0,0.0,0.0,0.0,0.0,0.0,0.0,0.0,0.0,0.0,0.0,0.0,0.0,0.0,0.0,0.0,0.0,0.0,0.0,0.0,0.0,0.0,0.0,0.0,0.0,0.0,0.0,0.0,0.0,0.0,0.0,0.0,0.0,0.0,0.0,0.0,0.0,0.0,0.0,0.0,0.0,0.0,0.0,0.0,0.0,0.0,0.0,0.0,0.0,0.0,0.0,0.0,0.0,0.0,0.0,0.0,0.0,0.0,0.0,0.0,0.0,0.0,0.0,0.0,0.0,0.0,0.0,0.0,0.0,0.0,0.0,0.0,0.0,0.0,0.0,0.0,0.0,0.0,0.0,0.0,0.0,-0.7343,-0.7684,-0.8465,-0.9203,-0.9871,-1.0802,0.0,0.0,0.0,0.0,0.0,0.0,0.0,0.0,0.0,0.0,0.0,0.0,0.0,0.0,0.0,0.0,0.0,0.0,0.0,0.0,0.0,0.0,0.0,0.0,0.0,0.0,0.0,0.0,0.0,0.0,0.0,0.0,0.0,0.0,0.0,0.0,0.0,0.0,0.0,0.0,0.0,0.0,0.0,0.0,0.0,0.0,0.0,0.0,0.0,0.0,0.0,0.0,0.0,0.0,0.0,0.0,0.0,0.0,0.0,0.0,0.0,0.0,0.0,0.0,0.0,0.0,0.0,0.0,0.0,0.0,0.0,0.0,0.0,0.0,0.0,0.0,0.0,0.0,0.0,0.0,0.0,0.0,0.0,0.0,0.0,0.0,0.0,0.0,0.0,0.0,0.0,0.0,0.0,0.0,0.0,0.0,0.0,0.0,0.0,0.0,0.0,0.0,0.0,0.0,0.0,0.0,0.0,0.0,-0.6406,-0.6784,-0.7065,-0.8097,-0.8871,-0.9379,-1.0472,0.0,0.0,0.0,0.0,0.0,0.0,0.0,0.0,0.0,0.0,0.0,0.0,0.0,0.0,0.0,0.0,0.0,0.0,0.0,0.0,0.0,0.0,0.0,0.0,0.0,0.0,0.0,0.0,0.0,0.0,0.0,0.0,0.0,0.0,0.0,0.0,0.0,0.0,0.0,0.0,0.0,0.0,0.0,0.0,0.0,0.0,0.0,0.0,0.0,0.0,0.0,0.0,0.0,0.0,0.0,0.0,0.0,0.0,0.0,0.0,0.0,0.0,0.0,0.0,0.0,0.0,0.0,0.0,0.0,0.0,0.0,0.0,0.0,0.0,0.0,0.0,0.0,0.0,0.0,0.0,0.0,0.0,0.0,0.0,0.0,0.0,0.0,0.0,0.0,0.0,0.0,0.0,0.0,0.0,0.0,0.0,0.0,0.0,0.0,0.0,0.0,0.0,0.0,0.0,0.0,0.0,0.0,-0.5984,-0.6146,-0.652,-0.7124,-0.7537,-0.8269,-0.9379,-1.0253,0.0,0.0,0.0,0.0,0.0,0.0,0.0,0.0,0.0,0.0,0.0,0.0,0.0,0.0,0.0,0.0,0.0,0.0,0.0,0.0,0.0,0.0,0.0,0.0,0.0,0.0,0.0,0.0,0.0,0.0,0.0,0.0,0.0,0.0,0.0,0.0,0.0,0.0,0.0,0.0,0.0,0.0,0.0,0.0,0.0,0.0,0.0,0.0,0.0,0.0,0.0,0.0,0.0,0.0,0.0,0.0,0.0,0.0,0.0,0.0,0.0,0.0,0.0,0.0,0.0,0.0,0.0,0.0,0.0,0.0,0.0,0.0,0.0,0.0,0.0,0.0,0.0,0.0,0.0,0.0,0.0,0.0,0.0,0.0,0.0,0.0,0.0,0.0,0.0,0.0,0.0,0.0,0.0,0.0,0.0,0.0,0.0,0.0,0.0,0.0,0.0,0.0,0.0,0.0,0.0,0.0,-0.5328,-0.5106,-0.5411,-0.5889,-0.6429,-0.7215,-0.8103,-0.9092,-1.0645,0.0,0.0,0.0,0.0,0.0,0.0,0.0,0.0,0.0,0.0,0.0,0.0,0.0,0.0,0.0,0.0,0.0,0.0,0.0,0.0,0.0,0.0,0.0,0.0,0.0,0.0,0.0,0.0,0.0,0.0,0.0,0.0,0.0,0.0,0.0,0.0,0.0,0.0,0.0,0.0,0.0,0.0,0.0,0.0,0.0,0.0,0.0,0.0,0.0,0.0,0.0,0.0,0.0,0.0,0.0,0.0,0.0,0.0,0.0,0.0,0.0,0.0,0.0,0.0,0.0,0.0,0.0,0.0,0.0,0.0,0.0,0.0,0.0,0.0,0.0,0.0,0.0,0.0,0.0,0.0,0.0,0.0,0.0,0.0,0.0,0.0,0.0,0.0,0.0,0.0,0.0,0.0,0.0,0.0,0.0,0.0,0.0,0.0,0.0,0.0,0.0,0.0,0.0,0.0,0.0,0.0,-0.4725,-0.4369,-0.4839,-0.5306,-0.5759,-0.6879,-0.81,-0.9302,0.0,0.0,0.0,0.0,0.0,0.0,0.0,0.0,0.0,0.0,0.0,0.0,0.0,0.0,0.0,0.0,0.0,0.0,0.0,0.0,0.0,0.0,0.0,0.0,0.0,0.0,0.0,0.0,0.0,0.0,0.0,0.0,0.0,0.0,0.0,0.0,0.0,0.0,0.0,0.0,0.0,0.0,0.0,0.0,0.0,0.0,0.0,0.0,0.0,0.0,0.0,0.0,0.0,0.0,0.0,0.0,0.0,0.0,0.0,0.0,0.0,0.0,0.0,0.0,0.0,0.0,0.0,0.0,0.0,0.0,0.0,0.0,0.0,0.0,0.0,0.0,0.0,0.0,0.0,0.0,0.0,0.0,0.0,0.0,0.0,0.0,0.0,0.0,0.0,0.0,0.0,0.0,0.0,0.0,0.0,0.0,0.0,0.0,0.0,0.0,0.0,0.0,0.0,0.0,0.0,0.0,0.0,-0.478,-0.4377,-0.4728,-0.5089,-0.5427,-0.6599,-0.826,-1.0406,0.0,0.0,0.0,0.0,0.0,0.0,0.0,0.0,0.0,0.0,0.0,0.0,0.0,0.0,0.0,0.0,0.0,0.0,0.0,0.0,0.0,0.0,0.0,0.0,0.0,0.0,0.0,0.0,0.0,0.0,0.0,0.0,0.0,0.0,0.0,0.0,0.0,0.0,0.0,0.0,0.0,0.0,0.0,0.0,0.0,0.0,0.0,0.0,0.0,0.0,0.0,0.0,0.0,0.0,0.0,0.0,0.0,0.0,0.0,0.0,0.0,0.0,0.0,0.0,0.0,0.0,0.0,0.0,0.0,0.0,0.0,0.0,0.0,0.0,0.0,0.0,0.0,0.0,0.0,0.0,0.0,0.0,0.0,0.0,0.0,0.0,0.0,0.0,0.0,0.0,0.0,0.0,0.0,0.0,0.0,0.0,0.0,0.0,0.0,0.0,0.0,0.0,0.0,0.0,0.0,0.0,-0.4706,-0.4312,-0.3843,-0.4187,-0.4594,-0.5096,-0.6985,-0.8702,-1.0355,0.0,0.0,0.0,0.0,0.0,0.0,0.0,0.0,0.0,0.0,0.0,0.0,0.0,0.0,0.0,0.0,0.0,0.0,0.0,0.0,0.0,0.0,0.0,0.0,0.0,0.0,0.0,0.0,0.0,0.0,0.0,0.0,0.0,0.0,0.0,0.0,0.0,0.0,0.0,0.0,0.0,0.0,0.0,0.0,0.0,0.0,0.0,0.0,0.0,0.0,0.0,0.0,0.0,0.0,0.0,0.0,0.0,0.0,0.0,0.0,0.0,0.0,0.0,0.0,0.0,0.0,0.0,0.0,0.0,0.0,0.0,0.0,0.0,0.0,0.0,0.0,0.0,0.0,0.0,0.0,0.0,0.0,0.0,0.0,0.0,0.0,0.0,0.0,0.0,0.0,0.0,0.0,0.0,0.0,0.0,0.0,0.0,0.0,0.0,0.0,0.0,0.0,0.0,0.0,0.0,-0.4851,-0.4339,-0.3836,-0.3365,-0.3692,-0.4314,-0.5318,-0.7207,-0.8868,-1.0139,0.0,0.0,0.0,0.0,0.0,0.0,0.0,0.0,0.0,0.0,0.0,0.0,0.0,0.0,0.0,0.0,0.0,0.0,0.0,0.0,0.0,0.0,0.0,0.0,0.0,0.0,0.0,0.0,0.0,0.0,0.0,0.0,0.0,0.0,0.0,0.0,0.0,0.0,0.0,0.0,0.0,0.0,0.0,0.0,0.0,0.0,0.0,0.0,0.0,0.0,0.0,0.0,0.0,0.0,0.0,0.0,0.0,0.0,0.0,0.0,0.0,0.0,0.0,0.0,0.0,0.0,0.0,0.0,0.0,0.0,0.0,0.0,0.0,0.0,0.0,0.0,0.0,0.0,0.0,0.0,0.0,0.0,0.0,0.0,0.0,0.0,0.0,0.0,0.0,0.0,0.0,0.0,0.0,0.0,0.0,0.0,0.0,0.0,0.0,0.0,0.0,0.0,0.0,0.0,0.0,0.0,-0.4129,-0.3568,-0.3041,-0.3417,-0.448,-0.6154,-0.7149,-0.8423,-1.0127,0.0,0.0,0.0,0.0,0.0,0.0,0.0,0.0,0.0,0.0,0.0,0.0,0.0,0.0,0.0,0.0,0.0,0.0,0.0,0.0,0.0,0.0,0.0,0.0,0.0,0.0,0.0,0.0,0.0,0.0,0.0,0.0,0.0,0.0,0.0,0.0,0.0,0.0,0.0,0.0,0.0,0.0,0.0,0.0,0.0,0.0,0.0,0.0,0.0,0.0,0.0,0.0,0.0,0.0,0.0,0.0,0.0,0.0,0.0,0.0,0.0,0.0,0.0,0.0,0.0,0.0,0.0,0.0,0.0,0.0,0.0,0.0,0.0,0.0,0.0,0.0,0.0,0.0,0.0,0.0,0.0,0.0,0.0,0.0,0.0,0.0,0.0,0.0,0.0,0.0,0.0,0.0,0.0,0.0,0.0,0.0,0.0,0.0,0.0,0.0,0.0,0.0,0.0,0.0,0.0,0.0,-0.4049,-0.3568,-0.3043,-0.3582,-0.4424,-0.5706,-0.6927,-0.8257,-0.9622,0.0,0.0,0.0,0.0,0.0,0.0,0.0,0.0,0.0,0.0,0.0,0.0,0.0,0.0,0.0,0.0,0.0,0.0,0.0,0.0,0.0,0.0,0.0,0.0,0.0,0.0,0.0,0.0,0.0,0.0,0.0,0.0,0.0,0.0,0.0,0.0,0.0,0.0,0.0,0.0,0.0,0.0,0.0,0.0,0.0,0.0,0.0,0.0,0.0,0.0,0.0,0.0,0.0,0.0,0.0,0.0,0.0,0.0,0.0,0.0,0.0,0.0,0.0,0.0,0.0,0.0,0.0,0.0,0.0,0.0,0.0,0.0,0.0,0.0,0.0,0.0,0.0,0.0,0.0,0.0,0.0,0.0,0.0,0.0,0.0,0.0,0.0,0.0,0.0,0.0,0.0,0.0,0.0,0.0,0.0,0.0,0.0,0.0,0.0,0.0,0.0,0.0,0.0,0.0,0.0,0.0,-0.3904,-0.332,-0.2819,-0.338,-0.4201,-0.526,-0.6596,-0.798,0.0,0.0,0.0,0.0,0.0,0.0,0.0,0.0,0.0,0.0,0.0,0.0,0.0,0.0,0.0,0.0,0.0,0.0,0.0,0.0,0.0,0.0,0.0,0.0,0.0,0.0,0.0,0.0,0.0,0.0,0.0,0.0,0.0,0.0,0.0,0.0,0.0,0.0,0.0,0.0,0.0,0.0,0.0,0.0,0.0,0.0,0.0,0.0,0.0,0.0,0.0,0.0,0.0,0.0,0.0,0.0,0.0,0.0,0.0,0.0,0.0,0.0,0.0,0.0,0.0,0.0,0.0,0.0,0.0,0.0,0.0,0.0,0.0,0.0,0.0,0.0,0.0,0.0,0.0,0.0,0.0,0.0,0.0,0.0,0.0,0.0,0.0,0.0,0.0,0.0,0.0,0.0,0.0,0.0,0.0,0.0,0.0,0.0,0.0,0.0,0.0,0.0,0.0,0.0,0.0,0.0,0.0,-0.3537,-0.2926,-0.224,-0.2805,-0.3708,-0.4879,-0.6109,-0.7549,0.0,0.0,0.0,0.0,0.0,0.0,0.0,0.0,0.0,0.0,0.0,0.0,0.0,0.0,0.0,0.0,0.0,0.0,0.0,0.0,0.0,0.0,0.0,0.0,0.0,0.0,0.0,0.0,0.0,0.0,0.0,0.0,0.0,0.0,0.0,0.0,0.0,0.0,0.0,0.0,0.0,0.0,0.0,0.0,0.0,0.0,0.0,0.0,0.0,0.0,0.0,0.0,0.0,0.0,0.0,0.0,0.0,0.0,0.0,0.0,0.0,0.0,0.0,0.0,0.0,0.0,0.0,0.0,0.0,0.0,0.0,0.0,0.0,0.0,0.0,0.0,0.0,0.0,0.0,0.0,0.0,0.0,0.0,0.0,0.0,0.0,0.0,0.0,0.0,0.0,0.0,0.0,0.0,0.0,0.0,0.0,0.0,0.0,0.0,0.0,0.0,0.0,0.0,0.0,0.0,0.0,0.0,-0.2657,-0.2258,-0.2283,-0.2883,-0.371,-0.4751,-0.5897,-0.722,-0.8788,0.0,0.0,0.0,0.0,0.0,0.0,0.0,0.0,0.0,0.0,0.0,0.0,0.0,0.0,0.0,0.0,0.0,0.0,0.0,0.0,0.0,0.0,0.0,0.0,0.0,0.0,0.0,0.0,0.0,0.0,0.0,0.0,0.0,0.0,0.0,0.0,0.0,0.0,0.0,0.0,0.0,0.0,0.0,0.0,0.0,0.0,0.0,0.0,0.0,0.0,0.0,0.0,0.0,0.0,0.0,0.0,0.0,0.0,0.0,0.0,0.0,0.0,0.0,0.0,0.0,0.0,0.0,0.0,0.0,0.0,0.0,0.0,0.0,0.0,0.0,0.0,0.0,0.0,0.0,0.0,0.0,0.0,0.0,0.0,0.0,0.0,0.0,0.0,0.0,0.0,0.0,0.0,0.0,0.0,0.0,0.0,0.0,0.0,0.0,0.0,0.0,0.0,0.0,0.0,0.0,0.0,-0.229,-0.2037,-0.2166,-0.2528,-0.3237,-0.4294,-0.5468,-0.6802,-0.824,0.0,0.0,0.0,0.0,0.0,0.0,0.0,0.0,0.0,0.0,0.0,0.0,0.0,0.0,0.0,0.0,0.0,0.0,0.0,0.0,0.0,0.0,0.0,0.0,0.0,0.0,0.0,0.0,0.0,0.0,0.0,0.0,0.0,0.0,0.0,0.0,0.0,0.0,0.0,0.0,0.0,0.0,0.0,0.0,0.0,0.0,0.0,0.0,0.0,0.0,0.0,0.0,0.0,0.0,0.0,0.0,0.0,0.0,0.0,0.0,0.0,0.0,0.0,0.0,0.0,0.0,0.0,0.0,0.0,0.0,0.0,0.0,0.0,0.0,0.0,0.0,0.0,0.0,0.0,0.0,0.0,0.0,0.0,0.0,0.0,0.0,0.0,0.0,0.0,0.0,0.0,0.0,0.0,0.0,0.0,0.0,0.0,0.0,0.0,0.0,0.0,0.0,0.0,0.0,0.0,0.0,0.0,-0.2139,-0.187,-0.1785,-0.2362,-0.3656,-0.4883,-0.6181,-0.7684,0.0,0.0,0.0,0.0,0.0,0.0,0.0,0.0,0.0,0.0,0.0,0.0,0.0,0.0,0.0,0.0,0.0,0.0,0.0,0.0,0.0,0.0,0.0,0.0,0.0,0.0,0.0,0.0,0.0,0.0,0.0,0.0,0.0,0.0,0.0,0.0,0.0,0.0,0.0,0.0,0.0,0.0,0.0,0.0,0.0,0.0,0.0,0.0,0.0,0.0,0.0,0.0,0.0,0.0,0.0,0.0,0.0,0.0,0.0,0.0,0.0,0.0,0.0,0.0,0.0,0.0,0.0,0.0,0.0,0.0,0.0,0.0,0.0,0.0,0.0,0.0,0.0,0.0,0.0,0.0,0.0,0.0,0.0,0.0,0.0,0.0,0.0,0.0,0.0,0.0,0.0,0.0,0.0,0.0,0.0,0.0,0.0,0.0,0.0,0.0,0.0,0.0,0.0,0.0,0.0,0.0,-0.1637,-0.1366,-0.1508,-0.1337,-0.1952,-0.3534,-0.4457,-0.5755,-0.7462,0.0,0.0,0.0,0.0,0.0,0.0,0.0,0.0,0.0,0.0,0.0,0.0,0.0,0.0,0.0,0.0,0.0,0.0,0.0,0.0,0.0,0.0,0.0,0.0,0.0,0.0,0.0,0.0,0.0,0.0,0.0,0.0,0.0,0.0,0.0,0.0,0.0,0.0,0.0,0.0,0.0,0.0,0.0,0.0,0.0,0.0,0.0,0.0,0.0,0.0,0.0,0.0,0.0,0.0,0.0,0.0,0.0,0.0,0.0,0.0,0.0,0.0,0.0,0.0,0.0,0.0,0.0,0.0,0.0,0.0,0.0,0.0,0.0,0.0,0.0,0.0,0.0,0.0,0.0,0.0,0.0,0.0,0.0,0.0,0.0,0.0,0.0,0.0,0.0,0.0,0.0,0.0,0.0,0.0,0.0,0.0,0.0,0.0,0.0,0.0,0.0,0.0,0.0,0.0,0.0,0.0,-0.1524,-0.1192,-0.1401,-0.1291,-0.1914,-0.3269,-0.4096,-0.5352,-0.6927,0.0,0.0,0.0,0.0,0.0,0.0,0.0,0.0,0.0,0.0,0.0,0.0,0.0,0.0,0.0,0.0,0.0,0.0,0.0,0.0,0.0,0.0,0.0,0.0,0.0,0.0,0.0,0.0,0.0,0.0,0.0,0.0,0.0,0.0,0.0,0.0,0.0,0.0,0.0,0.0,0.0,0.0,0.0,0.0,0.0,0.0,0.0,0.0,-1.4401,0.0,0.0,0.0,0.0,0.0,0.0,0.0,0.0,0.0,0.0,0.0,0.0,0.0,0.0,0.0,0.0,0.0,0.0,0.0,0.0,0.0,0.0,0.0,0.0,0.0,0.0,0.0,0.0,0.0,0.0,0.0,0.0,0.0,0.0,0.0,0.0,0.0,0.0,0.0,0.0,0.0,0.0,0.0,0.0,0.0,0.0,0.0,0.0,0.0,0.0,0.0,0.0,0.0,0.0,0.0,-0.2913,-0.227,-0.1646,-0.1375,-0.1416,-0.1419,-0.1913,-0.2899,-0.3884,-0.4985,-0.6429,0.0,0.0,0.0,0.0,0.0,0.0,0.0,0.0,0.0,0.0,0.0,0.0,0.0,0.0,0.0,0.0,0.0,0.0,0.0,0.0,0.0,0.0,0.0,0.0,0.0,0.0,0.0,0.0,0.0,0.0,0.0,0.0,0.0,0.0,0.0,0.0,0.0,0.0,0.0,0.0,0.0,0.0,0.0,0.0,0.0,0.0,0.0,-1.2599,-1.3688,0.0,0.0,0.0,0.0,0.0,0.0,0.0,0.0,0.0,0.0,0.0,0.0,0.0,0.0,0.0,0.0,0.0,0.0,0.0,0.0,0.0,0.0,0.0,0.0,0.0,0.0,0.0,-0.6387,0.0,-0.6489,0.0,0.0,0.0,0.0,0.0,0.0,0.0,0.0,0.0,0.0,0.0,0.0,0.0,0.0,0.0,0.0,0.0,0.0,0.0,0.0,0.0,0.0,0.0,0.0,-0.3551,-0.2612,-0.1868,-0.1279,-0.0892,-0.0727,-0.0982,-0.1605,-0.259,-0.3513,-0.4823,-0.6581,0.0,0.0,0.0,0.0,0.0,0.0,0.0,0.0,0.0,0.0,0.0,0.0,0.0,0.0,0.0,0.0,0.0,0.0,0.0,0.0,0.0,0.0,0.0,0.0,0.0,0.0,0.0,0.0,0.0,0.0,0.0,0.0,0.0,0.0,0.0,0.0,0.0,0.0,0.0,0.0,0.0,0.0,0.0,0.0,0.0,0.0,0.0,-1.1937,0.0,0.0,0.0,0.0,0.0,0.0,0.0,0.0,0.0,0.0,0.0,0.0,0.0,0.0,0.0,0.0,0.0,0.0,0.0,0.0,0.0,0.0,0.0,0.0,0.0,0.0,0.0,0.0,-0.6387,-0.6387,-0.6387,0.0,0.0,0.0,0.0,0.0,0.0,0.0,0.0,0.0,0.0,0.0,0.0,0.0,0.0,0.0,0.0,0.0,0.0,0.0,0.0,0.0,0.0,0.0,-0.4311,-0.3379,-0.2439,-0.157,-0.1101,-0.0772,-0.0543,-0.0796,-0.1481,-0.2467,-0.3389,-0.4767,-0.6612,0.0,0.0,0.0,0.0,0.0,0.0,0.0,0.0,0.0,0.0,0.0,0.0,0.0,0.0,0.0,0.0,0.0,0.0,0.0,0.0,0.0,0.0,0.0,0.0,0.0,0.0,0.0,0.0,0.0,0.0,0.0,0.0,0.0,0.0,0.0,0.0,0.0,-1.0972,-1.0336,0.0,0.0,0.0,0.0,0.0,0.0,0.0,0.0,-1.1273,-1.2178,0.0,0.0,0.0,0.0,0.0,0.0,0.0,0.0,0.0,0.0,0.0,0.0,0.0,0.0,0.0,0.0,0.0,0.0,0.0,0.0,0.0,0.0,0.0,0.0,0.0,0.0,0.0,-0.6387,-0.6387,-0.6387,0.0,0.0,0.0,0.0,0.0,0.0,0.0,0.0,0.0,0.0,0.0,0.0,0.0,0.0,0.0,0.0,0.0,0.0,0.0,0.0,0.0,0.0,0.0,-0.4032,-0.3215,-0.2324,-0.1335,-0.1038,-0.0769,-0.0421,-0.0793,-0.1416,-0.2343,-0.3329,-0.4708,-0.649,0.0,0.0,0.0,0.0,0.0,0.0,0.0,0.0,0.0,0.0,0.0,0.0,0.0,0.0,0.0,0.0,0.0,0.0,0.0,0.0,0.0,0.0,0.0,0.0,0.0,0.0,0.0,0.0,0.0,0.0,0.0,0.0,0.0,0.0,0.0,0.0,0.0,-1.0566,-0.9775,-0.9127,-0.8732,0.0,0.0,0.0,0.0,0.0,0.0,0.0,-1.1091,-1.1877,-1.308,0.0,0.0,0.0,0.0,0.0,0.0,0.0,0.0,0.0,0.0,0.0,0.0,0.0,0.0,0.0,0.0,0.0,0.0,0.0,0.0,0.0,0.0,0.0,0.0,0.0,-0.6387,-0.6387,-0.6387,0.0,0.0,0.0,0.0,0.0,0.0,0.0,0.0,0.0,0.0,0.0,0.0,0.0,0.0,0.0,0.0,0.0,0.0,0.0,0.0,0.0,0.0,0.0,0.0,-0.2933,-0.2137,-0.1236,-0.1014,-0.064,-0.0118,-0.0721,-0.1219,-0.1663,-0.2899,-0.4284,-0.5833,-0.745,0.0,0.0,0.0,0.0,0.0,0.0,0.0,0.0,0.0,0.0,0.0,0.0,0.0,0.0,0.0,0.0,0.0,0.0,0.0,0.0,0.0,0.0,0.0,0.0,0.0,0.0,0.0,0.0,0.0,0.0,0.0,0.0,0.0,0.0,0.0,0.0,-1.0313,-0.9175,-0.8517,-0.818,-0.843,0.0,0.0,0.0,0.0,0.0,-0.9518,-0.9879,-1.0365,-1.1152,-1.2719,0.0,0.0,0.0,0.0,0.0,0.0,0.0,0.0,0.0,0.0,0.0,0.0,0.0,0.0,0.0,0.0,0.0,0.0,0.0,0.0,0.0,0.0,0.0,0.0,-0.5987,-0.6037,-0.6189,-0.6189,-0.6189,0.0,0.0,0.0,0.0,-0.5984,0.0,0.0,0.0,0.0,0.0,0.0,0.0,0.0,0.0,0.0,0.0,0.0,0.0,0.0,0.0,0.0,0.0,-0.28,-0.2006,-0.1068,-0.0945,-0.0575,-0.0059,-0.0658,-0.1154,-0.154,-0.2837,-0.4102,-0.5476,0.0,0.0,0.0,0.0,0.0,0.0,0.0,0.0,0.0,0.0,0.0,0.0,0.0,0.0,0.0,0.0,0.0,0.0,0.0,0.0,0.0,0.0,0.0,0.0,0.0,0.0,0.0,0.0,0.0,0.0,0.0,0.0,0.0,0.0,0.0,0.0,0.0,0.0,-0.884,-0.8259,-0.7933,-0.8119,-0.8305,-0.8369,-0.8424,-0.8543,-0.8604,-0.8604,-0.8964,-0.9451,-0.994,0.0,0.0,0.0,0.0,0.0,0.0,0.0,0.0,0.0,0.0,0.0,0.0,0.0,0.0,0.0,0.0,0.0,0.0,0.0,0.0,0.0,0.0,0.0,0.0,0.0,0.0,-0.5737,-0.5942,-0.5942,-0.5942,-0.5892,0.0,0.0,0.0,-0.5486,-0.5639,0.0,0.0,0.0,0.0,0.0,0.0,0.0,0.0,0.0,0.0,0.0,0.0,0.0,0.0,0.0,0.0,-0.2724,-0.1937,-0.0854,-0.0879,-0.0624,-0.0059,-0.0594,-0.1083,-0.1404,-0.2567,-0.376,-0.5009,0.0,0.0,0.0,0.0,0.0,0.0,0.0,0.0,0.0,0.0,0.0,0.0,0.0,0.0,0.0,0.0,0.0,0.0,0.0,0.0,0.0,0.0,0.0,0.0,0.0,0.0,0.0,0.0,0.0,0.0,0.0,0.0,0.0,0.0,0.0,0.0,0.0,0.0,0.0,-0.8098,-0.7811,-0.7811,-0.7939,-0.7875,-0.7564,-0.7744,-0.7805,-0.7441,-0.7986,-0.8535,0.0,0.0,0.0,0.0,0.0,0.0,0.0,0.0,0.0,0.0,0.0,0.0,0.0,0.0,0.0,0.0,0.0,0.0,0.0,0.0,0.0,0.0,-0.5534,-0.5584,0.0,0.0,-0.5584,-0.5586,-0.5636,-0.5636,-0.5636,-0.5636,-0.5636,-0.5489,0.0,-0.524,-0.5196,-0.5145,0.0,0.0,0.0,0.0,0.0,0.0,0.0,0.0,0.0,0.0,0.0,0.0,0.0,0.0,0.0,0.0,-0.1937,-0.0853,-0.0869,-0.0613,-0.0058,-0.0347,-0.0699,-0.0947,-0.1718,-0.2761,-0.4159,0.0,0.0,0.0,0.0,0.0,0.0,0.0,0.0,0.0,0.0,0.0,0.0,0.0,0.0,0.0,0.0,0.0,0.0,0.0,0.0,0.0,0.0,0.0,0.0,0.0,-0.9348,0.0,0.0,0.0,0.0,0.0,0.0,0.0,0.0,0.0,0.0,0.0,0.0,0.0,0.0,-0.7447,-0.7447,-0.6957,-0.6526,-0.6215,-0.6151,-0.6092,-0.5726,-0.6462,-0.7133,0.0,0.0,0.0,0.0,0.0,0.0,0.0,0.0,0.0,0.0,0.0,0.0,0.0,0.0,0.0,0.0,0.0,0.0,0.0,0.0,0.0,0.0,-0.4684,-0.4684,-0.4684,-0.4684,-0.4686,-0.4784,-0.4937,-0.4937,-0.4937,-0.4937,-0.4937,-0.4686,-0.4332,-0.4284,-0.4224,-0.409,0.0,0.0,0.0,0.0,0.0,0.0,0.0,0.0,0.0,0.0,0.0,0.0,-0.4638,-0.3935,-0.303,-0.2645,-0.1907,-0.084,-0.0801,-0.0548,-0.0057,-0.0343,-0.0637,-0.0884,-0.1531,-0.2455,0.0,0.0,0.0,0.0,0.0,0.0,0.0,0.0,0.0,0.0,0.0,0.0,0.0,0.0,0.0,0.0,0.0,0.0,0.0,0.0,0.0,0.0,0.0,0.0,0.0,-0.9027,-0.8958,-0.8929,0.0,0.0,0.0,0.0,0.0,0.0,0.0,0.0,0.0,0.0,0.0,0.0,0.0,-0.7011,-0.6825,-0.6401,-0.5908,-0.5416,-0.5172,-0.493,-0.4621,-0.5232,-0.5847,0.0,0.0,0.0,0.0,0.0,0.0,0.0,0.0,0.0,0.0,0.0,0.0,0.0,0.0,0.0,0.0,0.0,0.0,-0.3124,-0.3225,-0.358,-0.3682,-0.3731,-0.3781,-0.3783,-0.3781,-0.3781,-0.3934,-0.4086,-0.4086,-0.4086,-0.4086,-0.4086,-0.3833,-0.3428,-0.3428,-0.3301,-0.319,-0.3361,0.0,0.0,0.0,0.0,0.0,0.0,0.0,0.0,0.0,0.0,-0.4794,-0.4336,-0.3684,-0.2826,-0.2422,-0.1732,-0.0831,-0.0737,-0.0431,0.0,-0.0226,-0.0515,-0.0756,-0.1339,-0.208,0.0,0.0,0.0,0.0,0.0,0.0,0.0,0.0,0.0,0.0,0.0,0.0,0.0,0.0,0.0,0.0,0.0,0.0,0.0,0.0,0.0,0.0,0.0,-0.9357,-0.8801,-0.8627,-0.8577,-0.8584,-0.874,0.0,-0.8929,0.0,0.0,0.0,0.0,0.0,0.0,0.0,0.0,0.0,0.0,-0.6295,-0.6082,-0.56,-0.5047,-0.4372,-0.4006,-0.3698,-0.3452,-0.4004,-0.4551,0.0,0.0,0.0,0.0,0.0,0.0,0.0,0.0,0.0,0.0,0.0,0.0,0.0,0.0,0.0,0.0,0.0,0.0,-0.1866,-0.2168,-0.2622,-0.2876,-0.2875,-0.313,-0.323,-0.323,-0.323,-0.3281,-0.3282,-0.3281,-0.3281,-0.3281,-0.3281,-0.3128,-0.2825,-0.2825,-0.2677,-0.248,-0.2571,0.0,0.0,0.0,0.0,0.0,0.0,0.0,0.0,0.0,0.0,-0.469,-0.3783,-0.3128,-0.2775,-0.207,-0.1376,-0.083,-0.0572,-0.0265,0.0,0.0,-0.0166,-0.045,-0.0788,-0.1395,0.0,0.0,0.0,0.0,0.0,0.0,0.0,0.0,0.0,0.0,0.0,0.0,0.0,0.0,0.0,0.0,0.0,0.0,0.0,0.0,0.0,0.0,0.0,0.0,-0.845,-0.8184,-0.8038,-0.8038,-0.8045,-0.8159,-0.834,0.0,0.0,0.0,0.0,0.0,0.0,0.0,0.0,0.0,0.0,-0.5326,-0.5039,-0.4249,-0.3451,-0.2774,-0.2405,-0.2157,-0.2157,-0.2713,-0.3191,-0.351,-0.4337,-0.4885,0.0,0.0,0.0,0.0,0.0,0.0,0.0,0.0,0.0,0.0,0.0,0.0,0.0,0.0,0.0,-0.0655,-0.0806,-0.1361,-0.1563,-0.1613,-0.1866,-0.1967,-0.1967,-0.2118,-0.2219,-0.2219,-0.2219,-0.2219,-0.2219,-0.2219,-0.2069,-0.1817,-0.1818,-0.1666,-0.1414,-0.1628,0.0,0.0,0.0,0.0,0.0,0.0,0.0,0.0,0.0,0.0,-0.3784,-0.338,-0.2827,-0.207,-0.1768,-0.1268,-0.0562,-0.0465,-0.0261,0.0,0.0,-0.0108,-0.0381,-0.0761,-0.1192,-0.1884,0.0,0.0,0.0,0.0,0.0,0.0,0.0,0.0,0.0,0.0,0.0,0.0,0.0,0.0,0.0,0.0,0.0,0.0,0.0,0.0,0.0,0.0,0.0,0.0,-0.7637,-0.759,-0.7743,-0.759,-0.7544,-0.7575,-0.7759,0.0,0.0,0.0,0.0,0.0,0.0,0.0,-0.5201,0.0,-0.43,-0.4003,-0.337,-0.2713,-0.2281,-0.1727,-0.1358,-0.1419,-0.1775,-0.2125,-0.2173,-0.2964,-0.3551,-0.351,0.0,0.0,0.0,0.0,0.0,0.0,0.0,0.0,0.0,0.0,0.0,0.0,0.0,0.0,0.0806,0.0554,0.0101,-0.0151,-0.0252,-0.0504,-0.0655,-0.0756,-0.0908,-0.111,-0.1211,-0.1261,-0.1261,-0.1211,-0.1261,-0.111,-0.0859,-0.0808,-0.0758,-0.0606,-0.0758,-0.0966,0.0,0.0,0.0,0.0,0.0,0.0,0.0,0.0,0.0,-0.3079,-0.2827,-0.2373,-0.1617,-0.1364,-0.096,-0.0404,-0.0307,-0.0206,0.0,0.0,-0.0106,-0.0267,-0.0587,-0.0958,-0.1428,0.0,0.0,0.0,0.0,-0.7026,0.0,0.0,0.0,0.0,0.0,0.0,0.0,0.0,0.0,0.0,0.0,0.0,0.0,0.0,0.0,0.0,0.0,0.0,0.0,0.0,-0.7288,-0.7441,-0.7188,-0.6924,-0.6909,-0.6596,-0.646,-0.6539,0.0,0.0,0.0,0.0,0.0,0.0,-0.3714,-0.3235,-0.2988,-0.2427,-0.19,-0.1593,-0.1042,-0.0736,-0.0797,-0.1029,-0.1256,-0.1309,-0.1925,-0.2408,-0.2511,-0.2881,-0.3195,-0.3309,-0.4369,-0.5371,-0.5706,0.0,0.0,0.0,0.0,0.0,0.0,0.0,0.0,0.267,0.1966,0.1664,0.1412,0.1159,0.0907,0.0656,0.0404,0.0404,0.0101,-0.0404,-0.0404,-0.0404,-0.0404,-0.0404,-0.0252,-0.005,0.0,0.0,0.0,0.0,0.0,0.0,0.0253,0.0202,-0.0254,-0.1645,-0.2413,-0.2429,-0.2675,-0.2775,-0.2725,-0.202,-0.1617,-0.1516,-0.0808,-0.0404,-0.0404,-0.0152,0.0,0.0,0.0,0.0,0.0,-0.0267,-0.0529,-0.0832,0.0,0.0,0.0,0.0,-0.5836,0.0,0.0,0.0,0.0,0.0,0.0,0.0,0.0,0.0,0.0,0.0,0.0,0.0,0.0,0.0,0.0,0.0,0.0,0.0,0.0,-0.7185,-0.7185,-0.6736,-0.6437,-0.6395,-0.5874,-0.5312,0.0,0.0,0.0,0.0,0.0,-0.3553,-0.3266,-0.2702,-0.2259,-0.1941,-0.1434,-0.0966,-0.0604,-0.0241,-0.0121,-0.0423,-0.0536,-0.0645,-0.0867,-0.1208,0.0,0.0,0.0,0.0,0.0,0.0,0.0,0.0,0.0,0.0,0.0,0.0,0.0,0.0,0.0,0.0,0.4176,0.3575,0.3123,0.2772,0.2522,0.2418,0.2218,0.2018,0.1817,0.1412,0.0958,0.0757,0.0556,0.0455,0.0606,0.0707,0.0808,0.1009,0.116,0.1312,0.1312,0.1312,0.1362,0.1615,0.1665,0.1515,0.0659,-0.0304,-0.1313,-0.1614,-0.1716,-0.1716,-0.1313,-0.101,-0.0808,-0.0353,-0.0151,-0.0101,-0.005,0.0,0.0,0.0,0.0,0.0,-0.0257,-0.0616,-0.102,-0.1631,0.0,0.0,-0.3816,-0.4738,0.0,0.0,0.0,0.0,0.0,0.0,0.0,0.0,0.0,0.0,0.0,0.0,0.0,0.0,0.0,0.0,0.0,0.0,0.0,0.0,-0.6389,-0.6389,-0.6087,-0.5734,-0.5384,-0.4891,-0.4411,-0.3878,-0.3853,-0.3816,-0.3579,-0.3027,-0.2585,-0.2317,-0.177,-0.1325,-0.1216,-0.0882,-0.0653,-0.0534,-0.0238,-0.0059,-0.0119,-0.0176,-0.0174,-0.0288,-0.0513,-0.079,-0.0842,-0.1121,-0.1402,-0.1514,-0.1737,-0.2241,-0.3139,-0.3309,-0.3309,-0.3309,-0.3195,-0.3139,-0.3139,-0.3085,-0.2908,0.5629,0.4931,0.4481,0.4081,0.3731,0.3729,0.3627,0.3327,0.3075,0.2672,0.2167,0.1867,0.1666,0.1515,0.1666,0.1818,0.1919,0.2169,0.2369,0.2572,0.2571,0.2622,0.2722,0.2973,0.3025,0.2924,0.2622,0.1815,0.0605,-0.0151,-0.0504,-0.0504,-0.0252,-0.005,0.005,0.0303,0.0353,0.0303,0.0202,0.0151,0.0151,0.005,0.0,0.0,-0.0252,-0.0556,-0.0909,-0.1263,-0.1676,0.0,-0.2928,0.0,0.0,0.0,0.0,0.0,0.0,0.0,0.0,0.0,0.0,0.0,0.0,0.0,0.0,0.0,0.0,0.0,0.0,0.0,0.0,-0.5691,-0.5691,-0.5589,-0.5338,-0.5035,-0.4585,-0.4048,-0.3542,-0.3002,-0.2747,-0.2639,-0.2629,-0.2298,-0.1907,-0.1514,-0.1019,-0.0741,-0.0741,-0.0463,-0.0351,-0.0351,-0.0117,0.0,0.0,0.0,0.0,0.0,-0.017,-0.028,-0.0392,-0.067,-0.0889,-0.0889,-0.0885,-0.1162,-0.1903,-0.2075,-0.2075,-0.2075,-0.2075,-0.2075,-0.2075,-0.2066,-0.1995,0.7086,0.6079,0.5732,0.5334,0.4834,0.4834,0.4682,0.4429,0.4183,0.3729,0.3224,0.2975,0.2826,0.2826,0.2825,0.3027,0.3281,0.353,0.3627,0.3627,0.3627,0.3778,0.4033,0.428,0.428,0.4033,0.4033,0.3729,0.3173,0.1662,0.0907,0.0857,0.1109,0.111,0.0858,0.1111,0.1111,0.0808,0.0556,0.0404,0.0404,0.0151,0.0,0.0,-0.0252,-0.0404,-0.0404,-0.0909,-0.1313,-0.1566,-0.212,0.0,0.0,0.0,0.0,0.0,0.0,0.0,0.0,0.0,0.0,0.0,0.0,0.0,0.0,0.0,0.0,0.0,0.0,0.0,-0.4736,-0.4987,-0.5037,-0.4782,-0.4535,-0.4236,-0.3934,-0.3279,-0.2643,-0.2127,-0.1818,-0.1702,-0.173,-0.1736,-0.1569,-0.0952,-0.0616,-0.0392,-0.0392,-0.017,0.0,0.0,0.0,0.0,0.0,0.0,0.0,0.0,0.0,-0.0112,-0.0336,-0.0663,-0.0819,-0.0874,-0.081,-0.0862,-0.089,-0.095,-0.095,-0.095,-0.095,-0.0895,-0.0894,-0.1048,-0.0982,0.8922,0.7375,0.6933,0.6437,0.5937,0.5934,0.5784,0.5539,0.5236,0.4834,0.4331,0.4079,0.383,0.3681,0.388,0.4182,0.4585,0.4533,0.4583,0.4736,0.4736,0.4786,0.4887,0.5133,0.5236,0.5135,0.4939,0.4786,0.4583,0.3979,0.3071,0.1967,0.2219,0.2219,0.1968,0.2019,0.1817,0.1362,0.111,0.0808,0.0404,0.0303,0.0202,0.0,-0.005,-0.0202,-0.0404,-0.0556,-0.0859,-0.1313,-0.1667,0.0,-0.2746,0.0,0.0,0.0,0.0,-0.6351,-0.7875,-0.7756,0.0,0.0,0.0,-0.679,0.0,0.0,0.0,0.0,-0.4048,-0.3731,-0.393,-0.4029,-0.4031,-0.3981,-0.3677,-0.3377,-0.2924,-0.2332,-0.1843,-0.1555,-0.131,-0.1061,-0.081,-0.0766,-0.0717,-0.0607,-0.0273,-0.0109,-0.011,-0.0055,0.0,0.0,0.0,0.0,0.0,0.0,0.0,0.0,0.0,-0.0055,-0.0108,-0.0216,-0.0269,0.0,-0.0268,-0.0268,-0.027,-0.0595,-0.0866,-0.0866,-0.0866,-0.0866,-0.0866,-0.0862,-0.0803,1.0399,0.8811,0.7905,0.7288,0.6886,0.6736,0.6639,0.6439,0.6189,0.5837,0.5434,0.5133,0.4883,0.4634,0.5031,0.5384,0.5689,0.5636,0.5691,0.5842,0.5842,0.5892,0.5989,0.6187,0.6237,0.6234,0.5989,0.5839,0.5792,0.5586,0.4883,0.3879,0.3679,0.3478,0.3175,0.3075,0.2773,0.2218,0.1766,0.1313,0.0859,0.0556,0.0252,0.0,0.0,-0.0101,-0.0252,-0.0353,-0.0556,-0.0859,-0.1111,-0.1515,0.0,-0.2551,-0.3089,-0.3681,-0.4176,-0.4957,-0.6179,-0.6511,0.0,0.0,-0.6308,-0.5959,-0.5546,0.0,0.0,-0.3885,-0.3179,-0.2723,-0.2822,-0.2923,-0.2973,-0.2973,-0.272,-0.242,-0.212,-0.1615,-0.1217,-0.0975,-0.0775,-0.0573,-0.0264,-0.0213,-0.0269,-0.0217,-0.0107,0.0,0.0,0.0,0.0,0.0,0.0,0.0,0.0,0.0,0.0,0.0,0.0,0.0,0.0,0.0,0.0,0.0,0.0,0.0,0.0,-0.0313,-0.0525,-0.0532,-0.0533,-0.0533,-0.0533,-0.053,-0.0473,1.1472,1.0243,0.8718,0.7899,0.763,0.7338,0.7235,0.7188,0.6942,0.6689,0.6437,0.6192,0.5939,0.5734,0.6237,0.6487,0.6487,0.6692,0.6792,0.6845,0.6845,0.6942,0.7188,0.7185,0.7185,0.7185,0.6942,0.6845,0.6792,0.6587,0.6339,0.6092,0.5386,0.4832,0.4531,0.4232,0.383,0.3324,0.252,0.1968,0.1617,0.0808,0.0303,0.0,0.0,0.0,0.0,-0.0252,-0.0404,-0.0404,-0.0657,-0.101,-0.1516,-0.1817,-0.2238,-0.2846,-0.3366,-0.3806,-0.4177,-0.4874,-0.5424,-0.5702,-0.5346,-0.5039,-0.4736,-0.3981,-0.3377,-0.313,-0.2371,-0.1815,-0.1563,-0.1765,-0.1917,-0.1917,-0.1714,-0.1513,-0.1516,-0.1061,-0.0657,-0.0404,-0.0359,-0.0259,0.0,0.0,0.0,0.0,0.0,0.0,0.0,0.0,0.0,0.0,0.0,0.0,0.0,0.0,0.0,0.0,0.0,0.0,0.0,0.0,0.0,0.0,0.0,0.0,0.0,0.0,0.0,0.0,0.0,0.0,0.0,0.0,0.0,1.1659,1.0746,0.9391,0.8593,0.8184,0.7693,0.749,0.7494,0.7241,0.7086,0.6989,0.6939,0.6886,0.6839,0.6986,0.6986,0.6986,0.7089,0.7089,0.7089,0.7138,0.7138,0.7185,0.7185,0.7185,0.7188,0.7138,0.7089,0.7089,0.7039,0.6986,0.6889,0.6736,0.6287,0.5639,0.5138,0.4736,0.4431,0.3627,0.2672,0.1617,0.0808,0.0353,0.0303,0.0101,0.0,0.0,-0.005,-0.0202,-0.0404,-0.0455,-0.0657,-0.096,-0.1263,-0.1569,-0.1931,-0.2265,-0.2684,-0.3121,-0.3365,-0.4008,-0.5128,-0.4839,-0.4487,-0.4183,-0.3277,-0.2572,-0.2321,-0.1564,-0.106,-0.101,-0.106,-0.106,-0.1111,-0.101,-0.0909,-0.0707,-0.0556,-0.0404,-0.0101,-0.0101,-0.0051,0.0,0.0,0.0,0.0,0.0,0.0,0.0,0.0,0.0,0.0,0.0,0.0,0.0,0.0,0.0,0.0,0.0,0.0,0.0,0.0,0.0,0.0,0.0,0.0,0.0,0.0,0.0,0.0,0.0,0.0,0.0,0.0,0.0,1.1769,1.0928,0.9741,0.8951,0.8531,0.7988,0.7793,0.7743,0.764,0.7487,0.7338,0.7285,0.7288,0.7388,0.7388,0.7441,0.7537,0.7537,0.7537,0.7537,0.7537,0.7537,0.7537,0.7537,0.7537,0.7537,0.7537,0.7587,0.7537,0.7537,0.7487,0.7388,0.7388,0.7141,0.6695,0.6192,0.5741,0.5338,0.4079,0.2873,0.1817,0.101,0.0505,0.0404,0.0151,0.0,0.0,0.0,-0.005,-0.0202,-0.0202,-0.0353,-0.0606,-0.0758,-0.096,-0.1213,-0.153,-0.1837,-0.2224,-0.2446,-0.2868,-0.3582,-0.3702,-0.3632,-0.3479,-0.2573,-0.1817,-0.1312,-0.0858,-0.0556,-0.0455,-0.0455,-0.0505,-0.0606,-0.0505,-0.0455,-0.0404,-0.0303,-0.0151,0.0,0.0,0.0,0.0,0.0,0.0,0.0,0.0,0.0,0.0,0.0,0.0,0.0,0.0,0.0,0.0,0.0,0.0,0.0,0.0,0.0,0.0,0.0,0.0,0.0,0.0,0.0,0.0,0.0,0.0,0.0,0.0,0.0,0.0,0.0,0.0,1.1835,1.0928,0.9863,0.92,0.8805,0.8244,0.7988,0.7988,0.7988,0.7892,0.7646,0.7441,0.7441,0.7646,0.7646,0.7793,0.7988,0.7988,0.7988,0.7988,0.7988,0.7988,0.7988,0.7988,0.7988,0.7988,0.7988,0.7988,0.7988,0.7988,0.7892,0.7646,0.7646,0.7646,0.7643,0.7191,0.6642,0.5942,0.418,0.2873,0.2068,0.1262,0.0707,0.0404,0.0151,0.0,0.0,0.0,0.0,0.0,0.0,-0.0101,-0.0353,-0.0353,-0.0455,-0.0758,-0.096,-0.1212,-0.1465,-0.1716,-0.1866,-0.1866,-0.227,-0.2574,-0.2574,-0.1869,-0.1112,-0.0405,-0.0355,-0.0254,0.0,0.0,-0.0102,-0.0304,-0.0152,-0.0101,-0.0303,-0.0151,0.0,0.0,0.0,0.0,0.0,0.0,0.0,0.0,0.0,0.0,0.0,0.0,0.0,0.0,0.0,0.0,0.0,0.0,0.0,0.0,0.0,0.0,0.0,0.0,0.0,0.0,0.0,0.0,0.0,0.0,0.0,0.0,0.0,0.0,0.0,0.0,0.0,1.1918,1.1115,0.9914,0.9268,0.8972,0.8289,0.7988,0.7988,0.7988,0.7988,0.7892,0.7892,0.7892,0.7942,0.7942,0.7942,0.7988,0.7988,0.7988,0.7988,0.7988,0.7988,0.7988,0.7988,0.7988,0.7988,0.7988,0.7988,0.7988,0.7988,0.7988,0.7942,0.7942,0.7942,0.7942,0.7839,0.7089,0.5684,0.4481,0.3327,0.2371,0.1515,0.0909,0.0404,0.0151,0.0,0.0,0.0,0.0,0.0,0.0,0.0,-0.005,-0.0101,-0.0202,-0.0455,-0.0505,-0.0657,-0.096,-0.101,-0.101,-0.101,-0.1111,-0.1263,-0.1464,-0.096,-0.0458,-0.0103,-0.0052,-0.0052,0.0,0.0,-0.0052,-0.0052,0.0,0.0,-0.0101,0.0,0.0,0.0,0.0,0.0,0.0,0.0,0.0,0.0,0.0,0.0,0.0,0.0,0.0,0.0,0.0,0.0,0.0,0.0,0.0,0.0,0.0,0.0,0.0,0.0,0.0,0.0,0.0,0.0,0.0,0.0,0.0,0.0,0.0,0.0,0.0,0.0,0.0,1.1887,1.1007,0.9959,0.9253,0.8871,0.8336,0.8109,0.7988,0.7988,0.7988,0.7988,0.7988,0.7988,0.7988,0.7988,0.7988,0.7988,0.7988,0.7988,0.7988,0.7988,0.7988,0.7988,0.7988,0.7988,0.7988,0.7988,0.7988,0.7988,0.7988,0.7988,0.7988,0.7988,0.7988,0.7988,0.7739,0.7089,0.5987,0.4832,0.3778,0.2975,0.1918,0.1263,0.101,0.0455,0.0202,0.0202,0.005,0.0,0.0,0.0,0.0,0.0,0.0,-0.005,-0.0202,-0.0202,-0.0303,-0.0556,-0.0606,-0.0606,-0.0606,-0.0505,-0.0505,-0.0758,-0.056,-0.0308,0.0,0.0,0.0,0.0,0.0,0.0,0.0,0.0,0.0,0.0,0.0,0.0,0.0,0.0,0.0,0.0,0.0,0.0,0.0,0.0,0.0,0.0,0.0,0.0,0.0,0.0,0.0,0.0,0.0,0.0,0.0,0.0,0.0,0.0,0.0,0.0,0.0,0.0,0.0,0.0,0.0,0.0,0.0,0.0,0.0,0.0,0.0,0.0,1.1797,1.0836,0.9946,0.929,0.8713,0.8436,0.8184,0.7988,0.7988,0.7988,0.7988,0.7988,0.7988,0.7988,0.7988,0.7988,0.7988,0.7988,0.7988,0.7988,0.7988,0.7988,0.7988,0.7988,0.7988,0.7988,0.7988,0.7988,0.7988,0.7988,0.7988,0.7988,0.7988,0.7988,0.7939,0.7537,0.6986,0.6437,0.5183,0.4228,0.3627,0.2423,0.1718,0.1516,0.0859,0.0505,0.0404,0.0202,0.005,0.0,0.0,0.0,0.0,0.0,0.0,0.0,0.0,-0.0101,-0.0303,-0.0353,-0.0303,-0.0303,-0.0101,-0.0101,-0.0303,-0.0359,-0.0259,0.0,0.0,0.0,0.0,0.0,0.0,0.0,0.0,0.0,0.0,0.0,0.0,0.0,0.0,0.0,0.0,0.0,0.0,0.0,0.0,0.0,0.0,0.0,0.0,0.0,0.0,0.0,0.0,0.0,0.0,0.0,0.0,0.0,0.0,0.0,0.0,0.0,0.0,0.0,0.0,0.0,0.0,0.0,0.0,0.0,0.0,0.0,0.0,1.1873,1.1021,1.0,0.9352,0.8855,0.8474,0.8184,0.7992,0.7988,0.7988,0.7988,0.7988,0.7988,0.7988,0.7988,0.7988,0.7988,0.7988,0.7988,0.7988,0.7988,0.7988,0.7988,0.7988,0.7988,0.7988,0.7988,0.7988,0.7988,0.7988,0.7988,0.7988,0.7988,0.7988,0.7988,0.7693,0.7294,0.6745,0.5639,0.4585,0.3629,0.2976,0.217,0.1313,0.1162,0.0859,0.0404,0.0353,0.0252,0.0,0.0,0.0,0.0,0.0,0.0,0.0,0.0,0.0,0.0,0.0,-0.005,-0.005,0.0,0.0,-0.0051,-0.0051,-0.0051,0.0,0.0,0.0,0.0,0.0,0.0,0.0,0.0,0.0,0.0,0.0,0.0,0.0,0.0,0.0,0.0,0.0,0.0,0.0,0.0,0.0,0.0,0.0,0.0,0.0,0.0,0.0,0.0,0.0,0.0,0.0,0.0,0.0,0.0,0.0,0.0,0.0,0.0,0.0,0.0,0.0,0.0,0.0,0.0,0.0,0.0,0.0,0.0,1.1673,1.0848,1.0058,0.9334,0.8747,0.8415,0.8231,0.816,0.8025,0.7988,0.7988,0.7988,0.7988,0.7988,0.7988,0.7988,0.7988,0.7988,0.7988,0.7988,0.7988,0.7988,0.7988,0.7988,0.7988,0.7988,0.7988,0.7988,0.7988,0.7988,0.7988,0.7988,0.7988,0.7988,0.7988,0.7746,0.7497,0.7194,0.6192,0.5188,0.4282,0.3731,0.3078,0.2322,0.1868,0.1464,0.1061,0.0606,0.0353,0.0202,0.0101,0.0,0.0,0.0,0.0,0.0,0.0,0.0,0.0,0.0,0.0,0.0,0.0,0.0,0.0,0.0,0.0,0.0,0.0,0.0,0.0,0.0,0.0,0.0,0.0,0.0,0.0,0.0,0.0,0.0,0.0,0.0,0.0,0.0,0.0,0.0,0.0,0.0,0.0,0.0,0.0,0.0,0.0,0.0,0.0,0.0,0.0,0.0,0.0,0.0,0.0,0.0,0.0,0.0,0.0,0.0,0.0,0.0,0.0,0.0,0.0,0.0,0.0,0.0,0.0,1.1459,1.0582,1.0036,0.9392,0.8689,0.8428,0.8303,0.8258,0.8143,0.8022,0.7992,0.7988,0.7988,0.7988,0.7988,0.7988,0.7988,0.7988,0.7988,0.7988,0.7988,0.7988,0.7988,0.7988,0.7988,0.7988,0.7988,0.7988,0.7988,0.7988,0.7988,0.7988,0.7988,0.7988,0.7988,0.7793,0.7646,0.7543,0.6795,0.5942,0.5085,0.4485,0.3934,0.338,0.2674,0.2069,0.1667,0.1061,0.0606,0.0404,0.0202,0.005,0.0,0.0,0.0,0.0,0.0,0.0,0.0,0.0,0.0,0.0,0.0,0.0,0.0,0.0,0.0,0.0,0.0,0.0,0.0,0.0,0.0,0.0,0.0,0.0,0.0,0.0,0.0,0.0,0.0,0.0,0.0,0.0,0.0,0.0,0.0,0.0,0.0,0.0,0.0,0.0,0.0,0.0,0.0,0.0,0.0,0.0,0.0,0.0,0.0,0.0,0.0,0.0,0.0,0.0,0.0,0.0,0.0,0.0,0.0,0.0,0.0,0.0,0.0,1.135,1.0366,0.9981,0.9395,0.8699,0.8537,0.8391,0.8279,0.8306,0.817,0.7995,0.7988,0.7988,0.7988,0.7988,0.7988,0.7988,0.7988,0.7988,0.7988,0.7988,0.7988,0.7988,0.7988,0.7988,0.7988,0.7988,0.7988,0.7988,0.7988,0.7988,0.7988,0.7988,0.7988,0.7988,0.7988,0.7842,0.7593,0.7497,0.6945,0.5942,0.5135,0.4483,0.3934,0.338,0.2725,0.2018,0.1667,0.1162,0.0455,0.0404,0.0252,0.0,0.0,0.0,0.0,0.0,0.0,0.0,0.0,0.0,0.0,0.0,0.0,0.0,0.0,0.0,0.0,0.0,0.0,0.0,0.0,0.0,0.0,0.0,0.0,0.0,0.0,0.0,0.0,0.0,0.0,0.0,0.0,0.0,0.0,0.0,0.0,0.0,0.0,0.0,0.0,0.0,0.0,0.0,0.0,0.0,0.0,0.0,0.0,0.0,0.0,0.0,0.0,0.0,0.0,0.0,0.0,0.0,0.0,0.0,0.0,0.0,0.0,0.0,1.0857,1.0257,0.9761,0.9285,0.8828,0.8682,0.8533,0.8394,0.8306,0.818,0.7998,0.7988,0.7988,0.7988,0.7988,0.7988,0.7988,0.7988,0.7988,0.7988,0.7988,0.7988,0.7988,0.7988,0.7988,0.7988,0.7988,0.7988,0.7988,0.7988,0.7988,0.7988,0.7988,0.7988,0.7988,0.7988,0.7942,0.7839,0.754,0.7141,0.6689,0.6087,0.5336,0.4533,0.3932,0.333,0.2522,0.1918,0.1313,0.0707,0.0455,0.0252,0.0,0.0,0.0,0.0,0.0,0.0,0.0,0.0,0.0,0.0,0.0,0.0,0.0,0.0,0.0,0.0,0.0,0.0,0.0,0.0,0.0,0.0,0.0,0.0,0.0,0.0,0.0,0.0,0.0,0.0,0.0,0.0,0.0,0.0,0.0,0.0,0.0,0.0,0.0,0.0,0.0,0.0,0.0,0.0,0.0,0.0,0.0,0.0,0.0,0.0,0.0,0.0,0.0,0.0,0.0,0.0,0.0,0.0,0.0,0.0,0.0,0.0,0.0,1.0472,1.0088,0.9541,0.9103,0.8871,0.8767,0.8662,0.8482,0.8374,0.8221,0.7995,0.7988,0.7988,0.7988,0.7988,0.7988,0.7988,0.7988,0.7988,0.7988,0.7988,0.7988,0.7988,0.7988,0.7988,0.7988,0.7988,0.7988,0.7988,0.7988,0.7988,0.7988,0.7988,0.7988,0.7988,0.7988,0.7988,0.7889,0.7487,0.7241,0.7039,0.6637,0.5937,0.5083,0.4435,0.3732,0.2927,0.2221,0.1515,0.0859,0.0606,0.0353,0.0,0.0,0.0,0.0,0.0,0.0,0.0,0.0,0.0,0.0,0.0,0.0,0.0,0.0,0.0,0.0,0.0,0.0,0.0,0.0,0.0,0.0,0.0,0.0,0.0,0.0,0.0,0.0,0.0,0.0,0.0,0.0,0.0,0.0,0.0,0.0,0.0,0.0,0.0,0.0,0.0,0.0,0.0,0.0,0.0,0.0,0.0,0.0,0.0,0.0,0.0,0.0,0.0,0.0,0.0,0.0,0.0,0.0,0.0,0.0,0.0,0.0,0.0,1.0363,0.9761,0.9161,0.8937,0.8881,0.8871,0.8754,0.8482,0.8469,0.8309,0.8008,0.7988,0.7988,0.7988,0.7988,0.7988,0.7988,0.7988,0.7988,0.7988,0.7988,0.7988,0.7988,0.7988,0.7988,0.7988,0.7988,0.7988,0.7988,0.7988,0.7988,0.7988,0.7988,0.7988,0.7988,0.7939,0.7892,0.7643,0.7494,0.7294,0.6842,0.6539,0.6087,0.5486,0.4788,0.3986,0.323,0.2624,0.1867,0.0808,0.0758,0.0556,0.0,0.0,0.0,0.0,0.0,0.0,0.0,0.0,0.0,0.0,0.0,0.0,0.0,0.0,0.0,0.0,0.0,0.0,0.0,0.0,0.0,0.0,0.0,0.0,0.0,0.0,0.0,0.0,0.0,0.0,0.0,0.0,0.0,0.0,0.0,0.0,0.0,0.0,0.0,0.0,0.0,0.0,0.0,0.0,0.0,0.0,0.0,0.0,0.0,0.0,0.0,0.0,0.0,0.0,0.0,0.0,0.0,0.0,0.0,0.0,0.0,0.0,0.0,0.9906,0.9213,0.8992,0.8937,0.8937,0.8937,0.8764,0.8542,0.8535,0.8316,0.8022,0.7988,0.7988,0.7988,0.7988,0.7988,0.7988,0.7988,0.7988,0.7988,0.7988,0.7988,0.7988,0.7988,0.7988,0.7988,0.7988,0.7988,0.7988,0.7988,0.7988,0.7939,0.7842,0.7746,0.7743,0.759,0.7441,0.7291,0.7039,0.6739,0.6489,0.5939,0.5438,0.5085,0.4636,0.4036,0.323,0.2675,0.1917,0.0859,0.0808,0.0556,0.0,0.0,0.0,0.0,0.0,0.0,0.0,0.0,0.0,0.0,0.0,0.0,0.0,0.0,0.0,0.0,0.0,0.0,0.0,0.0,0.0,0.0,0.0,0.0,0.0,0.0,0.0,0.0,0.0,0.0,0.0,0.0,0.0,0.0,0.0,0.0,0.0,0.0,0.0,0.0,0.0,0.0,0.0,0.0,0.0,0.0,0.0,0.0,0.0,0.0,0.0,0.0,0.0,0.0,0.0,0.0,0.0,0.0,0.0,0.0,0.0,0.0,0.0,0.9471,0.8944,0.8937,0.8937,0.8878,0.8882,0.872,0.8542,0.8484,0.8272,0.8019,0.7988,0.7988,0.7988,0.7988,0.7988,0.7988,0.7988,0.7988,0.7988,0.7892,0.7892,0.7842,0.7789,0.7736,0.7739,0.7842,0.7892,0.7988,0.7988,0.7942,0.7839,0.7696,0.7543,0.7441,0.7191,0.7042,0.6889,0.6437,0.6134,0.5937,0.529,0.4786,0.4533,0.4185,0.3734,0.3079,0.2473,0.1767,0.096,0.0707,0.0455,0.0,0.0,0.005,0.0101,0.0,0.0151,0.0151,0.0101,0.0,0.0,0.0,0.0,0.0,0.0,0.0,0.0,0.0,0.0,0.0,0.0,0.0,0.0,0.0,0.0,0.0,0.0,0.0,0.0,0.0,0.0,0.0,0.0,0.0,0.0,0.0,0.0,0.0,0.0,0.0,0.0,0.0,0.0,0.0,0.0,0.0,0.0,0.0,0.0,0.0,0.0,0.0,0.0,0.0,0.0,0.0,0.0,0.0,0.0,0.0,0.0,0.0,0.0,0.0,0.9217,0.8937,0.8937,0.8937,0.8865,0.8791,0.8632,0.8479,0.8391,0.8197,0.7998,0.7988,0.7988,0.7988,0.7988,0.7988,0.7988,0.7992,0.7942,0.7942,0.7693,0.7593,0.7593,0.7391,0.7288,0.7288,0.749,0.7743,0.7942,0.7988,0.7892,0.7643,0.7547,0.7391,0.7185,0.6839,0.6589,0.6287,0.5837,0.5438,0.519,0.464,0.4236,0.3932,0.343,0.3029,0.2775,0.2019,0.1364,0.0859,0.0556,0.0303,0.005,0.0,0.0101,0.0303,0.0404,0.0404,0.0404,0.0404,0.0303,0.0,0.0,0.0,0.0,0.0,0.0,0.0,0.0,0.0,0.0,0.0,0.0,0.0,0.0,0.0,0.0,0.0,0.0,0.0,0.0,0.0,0.0,0.0,0.0,0.0,0.0,0.0,0.0,0.0,0.0,0.0,0.0,0.0,0.0,0.0,0.0,0.0,0.0,0.0,0.0,0.0,0.0,0.0,0.0,0.0,0.0,0.0,0.0,0.0,0.0,0.0,0.0,0.0,0.0,0.8995,0.8937,0.8937,0.8937,0.8861,0.8774,0.8625,0.8469,0.833,0.8184,0.8008,0.7988,0.7988,0.7988,0.7988,0.7988,0.7988,0.7842,0.7746,0.7693,0.7441,0.7338,0.7288,0.7235,0.7185,0.7235,0.749,0.7643,0.7743,0.7892,0.7842,0.7596,0.7244,0.6939,0.6637,0.6042,0.5641,0.5539,0.5039,0.4638,0.4336,0.3833,0.3482,0.3128,0.2473,0.2021,0.1969,0.1718,0.1263,0.0556,0.0455,0.0303,0.0101,0.0202,0.0303,0.0404,0.0606,0.0707,0.0657,0.0657,0.0556,0.0353,0.0252,0.0202,0.0,0.0,0.0,0.0,0.0,0.0,0.0,0.0,0.0,0.0,0.0,0.0,0.0,0.0,0.0,0.0,0.0,0.0,0.0,0.0,0.0,0.0,0.0,0.0,0.0,0.0,0.0,0.0,0.0,0.0,0.0,0.0,0.0,0.0,0.0,0.0,0.0,0.0,0.0,0.0,0.0,0.0,0.0,0.0,0.0,0.0,0.0,0.0,0.0,0.0,0.0,0.8937,0.8937,0.8937,0.8851,0.8784,0.8689,0.854,0.8394,0.8248,0.813,0.7998,0.7988,0.7988,0.7988,0.7988,0.7939,0.7842,0.7593,0.7344,0.7141,0.6989,0.6886,0.6889,0.6786,0.6789,0.6936,0.7194,0.7394,0.7593,0.7643,0.759,0.7391,0.6892,0.6439,0.6087,0.5438,0.4989,0.4738,0.4237,0.3835,0.3481,0.3027,0.2624,0.2322,0.1768,0.1364,0.1212,0.1162,0.0909,0.0455,0.0303,0.0151,0.005,0.0252,0.0455,0.0556,0.0808,0.096,0.096,0.096,0.0808,0.0606,0.0455,0.0353,0.0,0.0,0.0,0.0,0.0,0.0,0.0,0.0,0.0,0.0,0.0,0.0,0.0,0.0,0.0,0.0,0.0,0.0,0.0,0.0,0.0,0.0,0.0,0.0,0.0,0.0,0.0,0.0,0.0,0.0,0.0,0.0,0.0,0.0,0.0,0.0,0.0,0.0,0.0,0.0,0.0,0.0,0.0,0.0,0.0,0.0,0.0,0.0,0.0,0.0,0.0,0.8937,0.8937,0.8937,0.8801,0.8713,0.856,0.8421,0.8269,0.8116,0.8002,0.7988,0.7988,0.7988,0.7988,0.7988,0.7892,0.7593,0.7338,0.6989,0.6587,0.6387,0.6387,0.6337,0.6189,0.6187,0.6437,0.6689,0.7042,0.7494,0.7388,0.7185,0.7185,0.6686,0.6137,0.5586,0.5033,0.4435,0.3982,0.343,0.3029,0.2725,0.222,0.1867,0.1566,0.1263,0.0909,0.0606,0.0505,0.0455,0.0353,0.0151,0.005,0.005,0.0252,0.0556,0.0859,0.1111,0.1263,0.1263,0.1364,0.1212,0.0909,0.0707,0.0455,0.0405,0.0,0.0,0.0,0.0,0.0,0.0,0.0,0.0,0.0,0.0,0.0,0.0,0.0,0.0,0.0,0.0,0.0,0.0,0.0,0.0,0.0,0.0,0.0,0.0,0.0,0.0,0.0,0.0,0.0,0.0,0.0,0.0,0.0,0.0,0.0,0.0,0.0,0.0,0.0,0.0,0.0,0.0,0.0,0.0,0.0,0.0,0.0,0.0,0.0,0.0,0.8937,0.8937,0.8937,0.8852,0.8699,0.8547,0.8397,0.8258,0.8106,0.7988,0.7988,0.7988,0.7988,0.7988,0.7988,0.7842,0.759,0.7338,0.6936,0.6387,0.5987,0.5837,0.5837,0.5787,0.5837,0.6089,0.6387,0.6789,0.7288,0.7238,0.7185,0.7188,0.6489,0.5842,0.5288,0.4433,0.3781,0.333,0.2674,0.222,0.1919,0.1615,0.1313,0.101,0.0758,0.0556,0.0404,0.0202,0.0101,0.0101,0.005,0.0101,0.0303,0.0556,0.0909,0.1313,0.1617,0.1869,0.2019,0.2069,0.1868,0.1465,0.1316,0.1118,0.0772,0.0464,0.0312,0.0264,0.0,0.0,0.0,0.0,0.0,0.0,0.0,0.0,0.0,0.0,0.0,0.0,0.0,0.0,0.0,0.0,0.0,0.0,0.0,0.0,0.0,0.0,0.0,0.0,0.0,0.0,0.0,0.0,0.0,0.0,0.0,0.0,0.0,0.0,0.0,0.0,0.0,0.0,0.0,0.0,0.0,0.0,0.0,0.0,0.0,0.0,0.0,0.8937,0.8878,0.8814,0.8754,0.8601,0.8455,0.8309,0.8177,0.8032,0.7988,0.7988,0.7988,0.7988,0.7988,0.7988,0.7793,0.7441,0.7288,0.6786,0.6037,0.5486,0.5286,0.5286,0.5386,0.5589,0.5839,0.6237,0.6686,0.7089,0.7089,0.7089,0.6989,0.6287,0.5586,0.4985,0.4131,0.3327,0.2825,0.217,0.1716,0.1414,0.1061,0.0808,0.0606,0.0353,0.0202,0.0202,0.0101,0.0,0.0,0.0,0.0101,0.0404,0.0758,0.1162,0.1566,0.197,0.2271,0.2473,0.2472,0.2331,0.2141,0.1993,0.165,0.1306,0.0945,0.074,0.0592,0.0327,0.022,0.0166,0.0056,0.0,0.0,0.0,0.0,0.0,0.0,0.0,0.0,0.0,0.0,0.0,0.0,0.0,0.0,0.0,0.0,0.0,0.0,0.0,0.0,0.0,0.0,0.0,0.0,0.0,0.0,0.0,0.0,0.0,0.0,0.0,0.0,0.0,0.0,0.0,0.0,0.0,0.0,0.0,0.0,0.0,0.0,0.0,0.893,0.8899,0.8767,0.8611,0.8459,0.8326,0.8201,0.8012,0.7992,0.7992,0.7942,0.7942,0.7889,0.7939,0.7789,0.759,0.7188,0.7138,0.6537,0.5837,0.5286,0.5033,0.5085,0.5188,0.5388,0.5687,0.6134,0.6686,0.7039,0.6989,0.6989,0.6939,0.6184,0.5384,0.4784,0.4031,0.3176,0.2521,0.1919,0.1465,0.1162,0.0707,0.0455,0.0353,0.0151,0.0,0.0,0.005,0.0,0.0,0.005,0.0202,0.0505,0.096,0.1414,0.1821,0.228,0.2688,0.289,0.2901,0.2763,0.2903,0.2548,0.2149,0.1913,0.1655,0.1399,0.1095,0.0713,0.0498,0.0335,0.0168,0.0,0.0,0.0,0.0,0.0,0.0,0.0,0.0,0.0,0.0,0.0,0.0,0.0,0.0,0.0,0.0,0.0,0.0,0.0,0.0,0.0,0.0,0.0,0.0,0.0,0.0,0.0,0.0,0.0,0.0,0.0,0.0,0.0,0.0,0.0,0.0,0.0,0.0,0.0,0.0,0.0,0.0,0.0,0.9249,0.9136,0.8834,0.8557,0.8385,0.8279,0.818,0.7992,0.7988,0.7892,0.7743,0.7696,0.759,0.7391,0.7388,0.7191,0.6942,0.6892,0.6492,0.5989,0.5586,0.5434,0.5386,0.534,0.5388,0.5687,0.6137,0.6686,0.7036,0.7188,0.7138,0.7036,0.6389,0.5539,0.4834,0.4029,0.3226,0.2471,0.1869,0.1364,0.101,0.0606,0.0353,0.0151,0.005,0.0,0.0,0.0202,0.0303,0.0303,0.0354,0.0506,0.0758,0.1264,0.1822,0.2436,0.2922,0.3404,0.3771,0.3857,0.3847,0.3699,0.355,0.3306,0.2817,0.2498,0.2136,0.1666,0.1283,0.0893,0.0504,0.0336,0.0224,0.0,0.0,0.0,0.0,0.0,0.0,0.0,0.0,0.0,0.0,0.0,0.0,0.0,0.0,0.0,0.0,0.0,0.0,0.0,0.0,0.0,0.0,0.0,0.0,0.0,0.0,0.0,0.0,0.0,0.0,0.0,0.0,0.0,0.0,0.0,0.0,0.0,0.0,0.0,0.0,0.0,0.0,0.9486,0.918,0.8825,0.8519,0.8323,0.8191,0.8116,0.7998,0.7988,0.7842,0.7646,0.7593,0.7441,0.7185,0.7185,0.7089,0.6939,0.6692,0.6392,0.5989,0.5737,0.5584,0.5687,0.5739,0.5889,0.6037,0.6389,0.6889,0.7241,0.7388,0.7288,0.7135,0.6539,0.5789,0.4987,0.4182,0.3479,0.2775,0.1969,0.1415,0.1162,0.0808,0.0556,0.0404,0.0353,0.0404,0.0404,0.0505,0.0657,0.081,0.0916,0.1069,0.1268,0.1732,0.2402,0.3026,0.369,0.4196,0.453,0.4712,0.4697,0.4738,0.4523,0.4136,0.3739,0.3371,0.2884,0.2404,0.1905,0.129,0.0729,0.0617,0.0561,0.0448,0.028,0.0168,0.0168,0.0,0.0,0.0,0.0,0.0,0.0,0.0,0.0,0.0,0.0,0.0,0.0,0.0,0.0,0.0,0.0,0.0,0.0,0.0,0.0,0.0,0.0,0.0,0.0,0.0,0.0,0.0,0.0,0.0,0.0,0.0,0.0,0.0,0.0,0.0,0.0,0.0,0.0,0.9804,0.9257,0.8936,0.8561,0.8316,0.8146,0.8045,0.7992,0.7942,0.7743,0.7547,0.7497,0.7241,0.7089,0.7036,0.7089,0.6989,0.6739,0.6389,0.6289,0.6137,0.6034,0.6087,0.6337,0.6537,0.6587,0.6842,0.7244,0.7494,0.7643,0.7543,0.7238,0.6736,0.6087,0.5338,0.4535,0.3831,0.3179,0.2424,0.1818,0.1616,0.1262,0.101,0.0909,0.0908,0.0909,0.0961,0.1013,0.1117,0.132,0.1702,0.1856,0.2054,0.2372,0.3019,0.3597,0.4339,0.4856,0.5243,0.5369,0.5467,0.575,0.537,0.4907,0.4571,0.4191,0.3748,0.3135,0.2522,0.1795,0.1177,0.1065,0.1065,0.0897,0.0673,0.0504,0.0336,0.0168,0.0,0.0,0.0,0.0,0.0,0.0,0.0,0.0,0.0,0.0,0.0,0.0,0.0,0.0,0.0,0.0,0.0,0.0,0.0,0.0,0.0,0.0,0.0,0.0,0.0,0.0,0.0,0.0,0.0,0.0,0.0,0.0,0.0,0.0,0.0,0.0,0.0,1.0136,0.9713,0.9254,0.8798,0.8432,0.8343,0.8184,0.7992,0.7793,0.754,0.7291,0.7042,0.6789,0.6587,0.6537,0.6639,0.6792,0.6742,0.6789,0.6889,0.6836,0.6786,0.6786,0.6889,0.7138,0.7344,0.7447,0.7497,0.7646,0.7796,0.7746,0.7444,0.6992,0.6442,0.5789,0.5085,0.4332,0.3681,0.3078,0.2624,0.2119,0.1917,0.1718,0.1618,0.1619,0.157,0.1625,0.1742,0.191,0.2018,0.247,0.2905,0.3168,0.3333,0.3766,0.436,0.4955,0.5491,0.5877,0.6055,0.6104,0.6188,0.6015,0.5735,0.5369,0.5094,0.4592,0.3867,0.325,0.2634,0.2075,0.1851,0.1514,0.129,0.1009,0.0785,0.0561,0.0336,0.0224,0.0,0.0,0.0,0.0,0.0,0.0,0.0,0.0,0.0,0.0,0.0,0.0,0.0,0.0,0.0,0.0,0.0,0.0,0.0,0.0,0.0,0.0,0.0,0.0,0.0,0.0,0.0,0.0,0.0,0.0,0.0,0.0,0.0,0.0,0.0,0.0,1.0561,0.9876,0.9493,0.9053,0.8638,0.8428,0.8333,0.8137,0.7793,0.7441,0.7138,0.6789,0.6439,0.6239,0.6189,0.6392,0.6742,0.6992,0.7089,0.7188,0.7185,0.7185,0.7235,0.7338,0.7441,0.7593,0.7746,0.7793,0.7842,0.7942,0.7846,0.7596,0.7294,0.6892,0.6242,0.5689,0.4985,0.4332,0.3831,0.338,0.2875,0.2725,0.2532,0.2551,0.2507,0.2569,0.2595,0.2714,0.289,0.3059,0.3474,0.3932,0.4325,0.4615,0.4787,0.5094,0.5586,0.6081,0.6413,0.6581,0.676,0.6768,0.6606,0.6381,0.6098,0.5708,0.5206,0.4426,0.3868,0.3419,0.2971,0.2635,0.241,0.2186,0.1738,0.1346,0.1065,0.0673,0.0448,0.0224,0.0,0.0,0.0,0.0,0.0,0.0,0.0,0.0,0.0,0.0,0.0,0.0,0.0,0.0,0.0,0.0,0.0,0.0,0.0,0.0,0.0,0.0,0.0,0.0,0.0,0.0,0.0,0.0,0.0,0.0,0.0,0.0,0.0,0.0,0.0,1.108,1.0121,0.9933,0.9521,0.8977,0.868,0.8435,0.8237,0.7739,0.7291,0.6986,0.6539,0.6189,0.5989,0.6042,0.6292,0.6892,0.7138,0.7238,0.7391,0.7437,0.7385,0.7437,0.7543,0.7696,0.7743,0.7842,0.7988,0.7988,0.7988,0.7892,0.7746,0.7643,0.7341,0.6739,0.6239,0.5689,0.5138,0.4535,0.4137,0.3901,0.3719,0.3645,0.3742,0.3698,0.367,0.3702,0.3734,0.3851,0.4085,0.4452,0.4884,0.5391,0.578,0.5839,0.5738,0.6282,0.6536,0.671,0.6765,0.6824,0.6771,0.6715,0.6604,0.6492,0.6044,0.5599,0.4871,0.4538,0.426,0.3923,0.3586,0.3305,0.3025,0.2522,0.1963,0.1627,0.1234,0.0729,0.0448,0.0224,0.0,0.0,0.0,0.0,0.0,0.0,0.0,0.0,0.0,0.0,0.0,0.0,0.0,0.0,0.0,0.0,0.0,0.0,0.0,0.0,0.0,0.0,0.0,0.0,0.0,0.0,0.0,0.0,0.0,0.0,0.0,0.0,0.0,0.0,1.1741,1.1035,1.0766,1.0216,0.9525,0.9183,0.8687,0.8038,0.7487,0.6936,0.6537,0.6189,0.5839,0.5739,0.5889,0.6389,0.6939,0.7188,0.7437,0.7739,0.7789,0.7839,0.7892,0.7939,0.7919,0.7932,0.8022,0.7988,0.8025,0.8025,0.8002,0.7909,0.7769,0.7497,0.7294,0.6762,0.6187,0.5844,0.5347,0.4985,0.485,0.4868,0.4905,0.4874,0.4722,0.4572,0.4607,0.4653,0.4736,0.48,0.5308,0.5631,0.5808,0.6313,0.6543,0.6478,0.6487,0.6439,0.6659,0.6548,0.6495,0.6495,0.6383,0.633,0.6383,0.6383,0.6049,0.5768,0.5543,0.532,0.4873,0.4536,0.4089,0.3642,0.325,0.2578,0.2074,0.1627,0.1121,0.0729,0.0504,0.0224,0.0,0.0,0.0,0.0,0.0,0.0,0.0,0.0,0.0,0.0,0.0,0.0,0.0,0.0,0.0,0.0,0.0,0.0,0.0,0.0,0.0,0.0,0.0,0.0,0.0,0.0,0.0,0.0,0.0,0.0,0.0,0.0,0.0,1.2601,1.159,1.1194,1.0654,1.0019,0.943,0.8836,0.8137,0.7341,0.6739,0.6287,0.5589,0.5338,0.5438,0.5639,0.6287,0.7036,0.7185,0.7487,0.7895,0.7992,0.7992,0.8015,0.8126,0.817,0.8187,0.8248,0.8309,0.8269,0.8208,0.817,0.812,0.8015,0.7821,0.7698,0.7371,0.7041,0.6613,0.6144,0.5836,0.5779,0.5723,0.5667,0.5719,0.5558,0.553,0.558,0.5617,0.5652,0.5766,0.6255,0.6596,0.6654,0.6935,0.7215,0.716,0.6606,0.6439,0.6606,0.6272,0.6161,0.6216,0.6161,0.6161,0.6383,0.655,0.6606,0.6601,0.627,0.6047,0.5822,0.5487,0.5094,0.459,0.4032,0.3418,0.2746,0.2019,0.1514,0.1121,0.0729,0.0504,0.028,0.0,0.0,0.0,0.0,0.0,0.0,0.0,0.0,0.0,0.0,0.0,0.0,0.0,0.0,0.0,0.0,0.0,0.0,0.0,0.0,0.0,0.0,0.0,0.0,0.0,0.0,0.0,0.0,0.0,0.0,0.0,0.0,1.3298,1.2316,1.1731,1.1096,1.0462,0.9628,0.8886,0.8187,0.7241,0.6542,0.5947,0.521,0.4916,0.5251,0.5612,0.6226,0.7185,0.7185,0.7537,0.7846,0.8079,0.8052,0.8157,0.8245,0.8323,0.8323,0.8394,0.8469,0.8489,0.8445,0.8377,0.833,0.8323,0.817,0.7967,0.7798,0.7595,0.7242,0.6931,0.6775,0.6744,0.6613,0.657,0.6565,0.6546,0.6521,0.6594,0.6601,0.6599,0.671,0.7041,0.7321,0.7376,0.7438,0.7496,0.7329,0.6773,0.6386,0.6328,0.6047,0.588,0.5935,0.6102,0.6161,0.6492,0.6715,0.6993,0.7213,0.7046,0.6882,0.6771,0.6434,0.5986,0.5427,0.4868,0.4311,0.3701,0.2979,0.2136,0.1514,0.1177,0.0841,0.0617,0.028,0.0,0.0,0.0,0.0,0.0,0.0,0.0,0.0,0.0,0.0,0.0,0.0,0.0,0.0,0.0,0.0,0.0,0.0,0.0,0.0,0.0,0.0,0.0,0.0,0.0,0.0,0.0,0.0,0.0,0.0,0.0,1.369,1.334,1.2624,1.1693,1.0703,0.9924,0.8985,0.7988,0.7147,0.6208,0.533,0.4869,0.4871,0.524,0.569,0.6347,0.7203,0.7188,0.7575,0.7972,0.8174,0.8241,0.8303,0.8381,0.8469,0.8472,0.8537,0.8611,0.8662,0.8672,0.8577,0.8489,0.8482,0.8465,0.8334,0.817,0.8019,0.7784,0.7669,0.7663,0.7699,0.7695,0.7662,0.7674,0.7584,0.7487,0.7493,0.7438,0.7382,0.7382,0.7715,0.7878,0.7878,0.7826,0.7773,0.7493,0.694,0.655,0.6328,0.5656,0.5268,0.5491,0.5938,0.6216,0.6383,0.716,0.7493,0.7549,0.749,0.7616,0.7502,0.7215,0.6738,0.6271,0.5667,0.5043,0.4423,0.3904,0.3052,0.2135,0.1632,0.1414,0.1015,0.0734,0.0337,0.0,0.0,0.0,0.0,0.0,0.0,0.0,0.0,0.0,0.0,0.0,0.0,0.0,0.0,0.0,0.0,0.0,0.0,0.0,0.0,0.0,0.0,0.0,0.0,0.0,0.0,0.0,0.0,0.0,0.0,1.3825,1.3664,1.292,1.1998,1.1002,1.0023,0.8981,0.7955,0.7074,0.588,0.469,0.4672,0.4829,0.5229,0.591,0.6604,0.7389,0.7695,0.7994,0.822,0.8374,0.8449,0.8452,0.853,0.8621,0.8642,0.8703,0.8777,0.8845,0.8845,0.8828,0.8757,0.8682,0.8557,0.848,0.8495,0.841,0.8438,0.8323,0.8239,0.8252,0.8057,0.7992,0.7992,0.7934,0.7826,0.7823,0.7826,0.7826,0.7937,0.8159,0.8266,0.8318,0.8156,0.8045,0.7829,0.7163,0.6781,0.6391,0.5605,0.4987,0.521,0.577,0.6337,0.6408,0.7115,0.7607,0.7823,0.8008,0.81,0.822,0.7835,0.7403,0.7002,0.6505,0.5807,0.5171,0.4645,0.4015,0.3093,0.2528,0.2194,0.1722,0.1255,0.0792,0.0,0.0,0.0,0.0,0.0,0.0,0.0,0.0,0.0,0.0,0.0,0.0,0.0,0.0,0.0,0.0,0.0,0.0,0.0,0.0,0.0,0.0,0.0,0.0,0.0,0.0,0.0,0.0,0.0,0.0,1.3796,1.3663,1.2909,1.2113,1.1238,1.0129,0.9024,0.7934,0.6944,0.5775,0.4475,0.4649,0.4969,0.5492,0.6204,0.7079,0.7737,0.8095,0.8364,0.8538,0.8664,0.8646,0.8654,0.8682,0.8781,0.8808,0.8862,0.893,0.8868,0.8977,0.8988,0.8971,0.8937,0.8828,0.8703,0.8767,0.8916,0.8976,0.8897,0.8782,0.8735,0.857,0.8464,0.847,0.8477,0.8435,0.842,0.8401,0.8369,0.8399,0.8488,0.8598,0.8598,0.854,0.8374,0.8054,0.7636,0.715,0.6707,0.6034,0.5318,0.5417,0.6098,0.6549,0.6873,0.7379,0.7978,0.8307,0.8414,0.8542,0.8876,0.8482,0.809,0.7734,0.7227,0.6582,0.5949,0.5362,0.4733,0.4036,0.3514,0.2923,0.2157,0.1561,0.0856,0.0453,0.0,0.0,0.0,0.0,0.0,0.0,0.0,0.0,0.0,0.0,0.0,0.0,0.0,0.0,0.0,0.0,0.0,0.0,0.0,0.0,0.0,0.0,0.0,0.0,0.0,0.0,0.0,0.0,0.0,1.3445,1.33,1.2535,1.2014,1.1535,1.0283,0.9019,0.7854,0.6782,0.5695,0.4769,0.4826,0.5252,0.5966,0.6673,0.7523,0.8249,0.8537,0.8744,0.8945,0.9033,0.8965,0.8858,0.8828,0.8831,0.8923,0.8885,0.8885,0.896,0.9059,0.9169,0.9181,0.9191,0.9157,0.896,0.9069,0.9272,0.9337,0.9337,0.9266,0.9256,0.9188,0.9127,0.9124,0.912,0.9064,0.9004,0.8981,0.8884,0.8877,0.8851,0.8903,0.8897,0.8719,0.8601,0.8428,0.7793,0.7442,0.7225,0.6653,0.6237,0.588,0.65,0.7096,0.7539,0.8009,0.8439,0.8628,0.8958,0.9215,0.9194,0.9029,0.8635,0.8383,0.7875,0.7351,0.6769,0.6359,0.578,0.5016,0.4268,0.3535,0.2709,0.1875,0.1039,0.0513,0.0169,0.0,0.0,0.0,0.0,0.0,0.0,0.0,0.0,0.0,0.0,0.0,0.0,0.0,0.0,0.0,0.0,0.0,0.0,0.0,0.0,0.0,0.0,0.0,0.0,0.0,0.0,0.0,0.0,1.3121,1.3012,1.2183,1.1628,1.1157,0.9974,0.8786,0.7598,0.6289,0.5281,0.4951,0.5044,0.5537,0.6346,0.7276,0.8102,0.872,0.9266,0.9482,0.9482,0.9425,0.929,0.9157,0.9006,0.894,0.8885,0.8888,0.9008,0.9089,0.9228,0.9292,0.9361,0.9378,0.9323,0.9262,0.9293,0.934,0.9371,0.9374,0.9378,0.9384,0.9391,0.9398,0.9401,0.9405,0.9371,0.9313,0.9303,0.9262,0.9208,0.9191,0.9198,0.9201,0.9027,0.898,0.8816,0.8378,0.8194,0.807,0.7746,0.7367,0.7018,0.7011,0.7543,0.7699,0.8335,0.8684,0.8929,0.9247,0.9452,0.9448,0.9167,0.8962,0.8951,0.8624,0.8139,0.7656,0.7412,0.6933,0.6033,0.5161,0.4212,0.3297,0.2205,0.1235,0.064,0.0345,0.0113,0.0,0.0,0.0,0.0,0.0,0.0,0.0,0.0,0.0,0.0,0.0,0.0,0.0,0.0,0.0,0.0,0.0,0.0,0.0,0.0,0.0,0.0,0.0,0.0,0.0,0.0,0.0,1.2523,1.2491,1.1648,1.1016,1.0534,0.957,0.8415,0.7042,0.57,0.5103,0.5254,0.5594,0.6202,0.7035,0.7983,0.8871,0.953,1.0025,1.0139,1.0088,0.9919,0.9695,0.9423,0.9168,0.9095,0.9047,0.9028,0.9089,0.9235,0.9293,0.9405,0.9517,0.9534,0.9551,0.9523,0.9503,0.9496,0.9537,0.9574,0.9568,0.9561,0.9554,0.9551,0.9554,0.9544,0.952,0.9476,0.9452,0.9435,0.9408,0.9388,0.9388,0.9388,0.9384,0.9268,0.9152,0.8978,0.8757,0.8555,0.8531,0.813,0.7671,0.7878,0.8056,0.8174,0.8738,0.9031,0.9262,0.9402,0.9515,0.9589,0.9367,0.9286,0.9329,0.9086,0.865,0.8346,0.8094,0.7665,0.6764,0.5784,0.483,0.3774,0.26,0.1498,0.095,0.0471,0.0232,0.0,0.0,0.0,0.0,0.0,0.0,0.0,0.0,0.0,0.0,0.0,0.0,0.0,0.0,0.0,0.0,0.0,0.0,0.0,0.0,0.0,0.0,0.0,0.0,0.0,0.0,0.0,1.172,1.1828,1.1017,1.0304,0.9699,0.9006,0.7799,0.6262,0.5373,0.5262,0.5764,0.6151,0.6874,0.7983,0.8978,0.986,1.0527,1.0966,1.0911,1.0747,1.0523,1.0091,0.9662,0.9404,0.9252,0.9222,0.9231,0.9242,0.9391,0.9551,0.9693,0.9788,0.9822,0.9832,0.9802,0.9768,0.9734,0.9741,0.9734,0.9727,0.9724,0.9758,0.9741,0.9737,0.9737,0.969,0.9646,0.9608,0.9544,0.9486,0.9429,0.9422,0.9412,0.9401,0.9398,0.938,0.9252,0.9071,0.8978,0.9061,0.9003,0.8654,0.8802,0.9076,0.9118,0.9198,0.9423,0.955,0.9663,0.9697,0.9738,0.9674,0.961,0.9518,0.9396,0.9092,0.8851,0.848,0.8111,0.7319,0.6283,0.5223,0.3869,0.2689,0.1761,0.1089,0.0601,0.0299,0.0,0.0,0.0,0.0,0.0,0.0,0.0,0.0,0.0,0.0,0.0,0.0,0.0,0.0,0.0,0.0,0.0,0.0,0.0,0.0,0.0,0.0,0.0,0.0,0.0,0.0,0.0,1.1193,1.1021,1.0363,0.9702,0.9034,0.7873,0.6937,0.6219,0.5547,0.5491,0.5822,0.6599,0.7487,0.8429,0.9754,1.0633,1.1185,1.1514,1.1514,1.1354,1.0983,1.0315,0.9857,0.9597,0.9388,0.9298,0.933,0.9401,0.9581,0.9717,0.9856,0.992,1.0059,1.0107,1.0107,1.01,0.9978,0.9886,0.9866,0.9866,0.9856,0.9863,0.9859,0.9859,0.9866,0.9822,0.9798,0.9764,0.9717,0.9703,0.9686,0.969,0.9693,0.9693,0.9693,0.97,0.9623,0.96,0.9572,0.9521,0.9521,0.9464,0.9457,0.9396,0.9457,0.9521,0.97,0.9761,0.9819,0.9819,0.9819,0.9761,0.97,0.964,0.9579,0.94,0.9156,0.8973,0.848,0.7564,0.6528,0.5298,0.3944,0.2956,0.2081,0.1287,0.0735,0.0366,0.0,0.0,0.0,0.0,0.0,0.0,0.0,0.0,0.0,0.0,0.0,0.0,0.0,0.0,0.0,0.0,0.0,0.0,0.0,0.0,0.0,0.0,0.0,0.0,0.0,0.0,0.0,1.0472,1.0312,0.982,0.9206,0.8374,0.7102,0.6439,0.6219,0.5661,0.5659,0.6212,0.6988,0.7931,0.9151,1.0417,1.135,1.1891,1.2169,1.2169,1.1691,1.1321,1.0635,1.0137,0.9843,0.9681,0.9517,0.9439,0.9585,0.9785,0.9985,1.0137,1.0148,1.0253,1.027,1.0323,1.0226,1.0168,1.0076,1.0019,1.0002,0.9992,0.9988,0.9998,0.9988,0.9988,0.9988,0.9978,0.9954,0.9852,0.9893,0.9815,0.9819,0.9836,0.9863,0.9961,0.9975,1.0012,0.9913,0.9889,0.9862,0.9822,0.9846,0.9832,0.9697,0.964,0.97,0.9761,0.9819,0.9819,0.9819,0.9819,0.9819,0.9819,0.9758,0.9761,0.97,0.9518,0.9396,0.8601,0.7686,0.6585,0.5358,0.4252,0.3267,0.2343,0.1539,0.0923,0.0492,0.0,0.0,0.0,0.0,0.0,0.0,0.0,0.0,0.0,0.0,0.0,0.0,0.0,0.0,0.0,0.0,0.0,0.0,0.0,0.0,0.0,0.0,0.0,0.0,0.0,0.0,0.0,0.9761,0.9761,0.943,0.8768,0.7937,0.6829,0.633,0.6219,0.5717,0.5882,0.6657,0.7374,0.8481,0.9754,1.1021,1.1841,1.2356,1.2702,1.2521,1.2046,1.1806,1.1145,1.0353,1.0184,0.9895,0.9731,0.968,0.9802,1.0032,1.0205,1.0293,1.0297,1.0341,1.0375,1.0392,1.0385,1.0361,1.0337,1.03,1.0287,1.0243,1.032,1.0343,1.032,1.0313,1.0249,1.0222,1.0158,1.0004,0.9957,0.9906,0.9893,0.9937,0.9998,1.0134,1.0188,1.0205,1.0158,1.0093,1.007,1.0005,0.9941,0.9863,0.9849,0.9886,0.9788,0.9765,0.9822,0.9819,0.9819,0.9819,0.9819,0.9819,0.9819,0.9761,0.9761,0.97,0.9396,0.8726,0.7811,0.6768,0.5604,0.4559,0.3637,0.259,0.1727,0.1111,0.0679,0.0,0.0,0.0,0.0,0.0,0.0,0.0,0.0,0.0,0.0,0.0,0.0,0.0,0.0,0.0,0.0,0.0,0.0,0.0,0.0,0.0,0.0,0.0,0.0,0.0,0.0,0.0,0.9489,0.943,0.8657,0.8211,0.7878,0.6773,0.6272,0.6272,0.5882,0.6102,0.6824,0.782,0.8923,1.0139,1.1367,1.2192,1.2702,1.2896,1.2718,1.2297,1.2047,1.1331,1.0459,1.0314,1.0118,0.9849,0.9815,1.0036,1.0212,1.0354,1.0446,1.0456,1.051,1.0568,1.0571,1.0571,1.0568,1.0558,1.0555,1.0463,1.0344,1.0297,1.0343,1.0293,1.03,1.0314,1.0293,1.0263,1.0226,1.0209,1.0198,1.0178,1.0178,1.0209,1.0243,1.0276,1.0314,1.0283,1.0246,1.0222,1.0181,1.0171,1.0144,1.0164,1.011,0.993,0.9836,0.9839,0.9839,0.9842,0.9842,0.9842,0.9836,0.9832,0.9819,0.9819,0.9758,0.9275,0.879,0.7933,0.6952,0.5972,0.4928,0.3883,0.2836,0.2036,0.1358,0.0,0.0,0.0,0.0,0.0,0.0,0.0,0.0,0.0,0.0,0.0,0.0,0.0,0.0,0.0,0.0,0.0,0.0,0.0,0.0,0.0,0.0,0.0,0.0,0.0,0.0,0.0,0.0,0.9158,0.9103,0.8322,0.7992,0.7823,0.6937,0.6492,0.6439,0.6267,0.6548,0.716,0.81,0.9203,1.0441,1.1643,1.2404,1.2887,1.3075,1.281,1.2441,1.1936,1.1263,1.0789,1.0461,1.0212,0.9941,1.0107,1.0307,1.0388,1.051,1.0599,1.0602,1.069,1.0721,1.0721,1.0721,1.0721,1.0711,1.0721,1.0619,1.046,1.0463,1.0473,1.0477,1.047,1.0463,1.0443,1.0426,1.0375,1.0344,1.0307,1.0324,1.0334,1.0368,1.0415,1.0466,1.0487,1.0446,1.0399,1.0371,1.0351,1.0327,1.0287,1.0249,1.0239,1.0086,1.0076,1.0076,1.0076,1.008,1.0042,1.0036,0.9913,0.9889,0.9812,0.9819,0.964,0.9278,0.8787,0.8236,0.7258,0.6096,0.5114,0.407,0.3022,0.2097,0.1419,0.0741,0.0,0.0,0.0,0.0,0.0,0.0,0.0,0.0,0.0,0.0,0.0,0.0,0.0,0.0,0.0,0.0,0.0,0.0,0.0,0.0,0.0,0.0,0.0,0.0,0.0,0.0,0.0,0.8937,0.8826,0.8322,0.8045,0.7878,0.7102,0.6715,0.6712,0.6715,0.7049,0.7613,0.8288,0.9393,1.0611,1.1702,1.239,1.2843,1.2842,1.2683,1.2294,1.18,1.1193,1.0726,1.0444,1.0307,1.0266,1.0337,1.0446,1.0527,1.0633,1.069,1.0714,1.0721,1.0721,1.0721,1.0721,1.0721,1.0721,1.0721,1.0721,1.0711,1.0721,1.069,1.0697,1.0721,1.0721,1.067,1.0616,1.0531,1.0493,1.0443,1.046,1.0487,1.0527,1.0582,1.0629,1.0649,1.0602,1.0555,1.0524,1.046,1.0395,1.0344,1.0331,1.0334,1.0334,1.0324,1.0314,1.0314,1.0256,1.0219,1.0181,1.0117,0.999,0.9889,0.9859,0.9554,0.9294,0.8912,0.8482,0.7503,0.6342,0.5298,0.4316,0.3268,0.2281,0.1481,0.0802,0.0,0.0,0.0,0.0,0.0,0.0,0.0,0.0,0.0,0.0,0.0,0.0,0.0,0.0,0.0,0.0,0.0,0.0,0.0,0.0,0.0,0.0,0.0,0.0,0.0,0.0,0.0,0.8937,0.8881,0.8546,0.8263,0.7934,0.7324,0.6935,0.6771,0.7046,0.7324,0.7803,0.867,0.9669,1.0567,1.1216,1.1872,1.2404,1.2467,1.2134,1.1711,1.1574,1.1114,1.0692,1.0498,1.0454,1.0479,1.0483,1.0548,1.0612,1.0683,1.0721,1.0721,1.0721,1.0721,1.0721,1.0721,1.0721,1.0721,1.0721,1.0721,1.0721,1.0721,1.0721,1.0721,1.0721,1.0721,1.0704,1.0694,1.068,1.0666,1.0639,1.0629,1.0633,1.0646,1.068,1.0694,1.0721,1.07,1.0649,1.0639,1.0575,1.0585,1.0565,1.0575,1.0578,1.0582,1.0565,1.0538,1.0493,1.0351,1.03,1.0283,1.0232,1.0178,1.0097,0.9963,0.9799,0.9481,0.9114,0.8555,0.7814,0.6771,0.5724,0.4681,0.3452,0.2466,0.1481,0.0864,0.0432,0.0,0.0,0.0,0.0,0.0,0.0,0.0,0.0,0.0,0.0,0.0,0.0,0.0,0.0,0.0,0.0,0.0,0.0,0.0,0.0,0.0,0.0,0.0,0.0,0.0,0.0]}]]